     2              OBSERVATION DATA    GPS                 RINEX VERSION / TYPE
teqc 1997Jul24 19970814                                     PGM / RUN BY / DATE
                                                            COMMENT
BIT 2 OF LLI FLAGS DATA COLLECTED UNDER A-S CONDITION       COMMENT
BIT 2 OF LLI FLAGS DATA COLLECTED UNDER A-S CONDITION       COMMENT
Original Marker Name: 1202                                  COMMENT
Campaign Name: hpgn california 1991                         COMMENT
4-Character Station Name: 1202                              COMMENT
6-Character Antenna Code: TRMSST                            COMMENT
Vertical Measurement Point: BPA                             COMMENT
Vertical Offset to Rinex Ref. Point: 0.0000                 COMMENT
Radial Measurement Point: RRP                               COMMENT
Radial Offset to Rinex Ref. Point: 0.0000                   COMMENT
Antenna Height from Field Measurement: 2.2200 m             COMMENT
Original XYZ: -2474104.4562 -4716376.4354 3497478.8003      COMMENT
New XYZ position is based on association with SCEC monument COMMENT
E1D0D6U2+0011. Position of that monument is believed to be  COMMENT
valid to within 1 m horizontally; vertical accuracy         COMMENT
should be no worse than 3-times this value.                 COMMENT
                                                            COMMENT
Revised Rinex header created by UCSD GPS archive for        COMMENT
GSAC on 12-Apr-1999 (1999:102) 02:43:31 GMT                 COMMENT
For assistance contact dagnew@ucsd.edu or hjohnson@ucsd.edu COMMENT
                                                            COMMENT
HPGN CALIF STA 12-02 1991                                   MARKER NAME
unknown CALIF DEPT TRANSPORTATION                           OBSERVER / AGENCY
622 TRIMBLE 4000 SST NP 4.30 / SP 4.20                      REC # / TYPE / VERS
123 TR 4000SST L1/L2 GEO                                    ANT # / TYPE
 -2474104.0000 -4716384.0000  3497481.0000                  APPROX POSITION XYZ
        2.2200        0.0000        0.0000                  ANTENNA: DELTA H/E/N
     1     1     0                                          WAVELENGTH FACT L1/2
     3    C1    L1    L2                                    # / TYPES OF OBSERV
     0                                                      INTERVAL
  1991     4    12    20    39   45.000000                  TIME OF FIRST OBS
  1991     4    13     2    42    0.000000                  TIME OF LAST OBS
     0                                                      # OF SATELLITES
                                                            END OF HEADER
 91  4 12 20 39 45.0000000  0  4G18G19G11G 2
  20757990.9304         -0.72158
  21065601.8204         -0.99057
  23820380.7424         -0.86856
  23903051.1954         -0.78756
 91  4 12 20 40  0.0000000  0  4G18G19G11G 2
  20762083.1724      21497.91648        -0.31073
  21065993.7734       2054.41247        -0.46872
  23815574.906      -25269.672 6
  23895187.2734     -41302.46645        -0.18871
 91  4 12 20 40 15.0000000  0  4G18G19G11G 2
  20766191.523       43087.705 8     16822.87323
  21066388.281        4128.154 7      1615.45422
  23810779.813      -50463.130 6        -0.44331
  23887336.5164     -82578.04645    -32162.76561
 91  4 12 20 40 30.0000000  0  4G18G19G11G 2
  20770316.8204      64773.27948     33720.69763
  21066790.719        6224.885 6      3249.28322
  23806000.844      -75576.138 6    -19568.89621
  23879486.2034    -123822.70046    -64301.24761
 91  4 12 20 40 45.0000000  0  4G18G19G11G 2
  20774463.5704      86560.02648     50697.35063
  21067189.438        8349.983 7      4905.20822
  23801238.578     -100602.893 6    -39070.13121
  23871642.352     -165030.616 6    -96411.15421
 91  4 12 20 41  0.0000000  0  4G18G19G11G 2
  20778631.0394     108456.37548     67759.41763
  21067603.602       10511.838 7      6589.78822
  23796494.227     -125534.773 6    -58497.42321
  23863812.953     -206193.323 6   -128485.78521
 91  4 12 20 41 15.0000000  0  4G18G19G11G 2
  20782818.5004     130459.61648     84904.76663
  21068019.031       12707.885 7      8301.00422
  23791770.0554    -150373.96246    -77852.50361
  23855988.5784    -247313.29246   -160527.11561
 91  4 12 20 41 30.0000000  0  4G18G19G11G 2
  20787026.2344     152575.33348    102137.76963
  21068444.688       14943.754 7     10043.25222
  23787058.5944    -175114.29746    -97130.56261
  23848174.039     -288384.648 6   -192530.60421
 91  4 12 20 41 45.0000000  0  4G18G19G11G 2
  20791256.5084     174799.75748    119455.46863
  21068877.742       17215.686 7     11813.60222
  23782368.078     -199759.277 6   -116334.31121
  23840361.0634    -329411.07646   -224499.06061
 91  4 12 20 42  0.0000000  0  4G18G19G11G 2
  20795506.4064     197138.67348    136862.38363
  21069321.422       19529.339 7     13616.45722
  23777698.984     -224302.942 6   -135459.10321
  23832567.328     -370386.605 6   -256427.84221
 91  4 12 20 42 15.0000000  0  4G18G19G11G 2
  20799777.8754     219588.74048    154355.91263
  21069764.1884      21881.23847     15449.11262
  23773046.6484    -248748.27646   -154507.30061
  23824774.7114    -411314.48046   -288319.51661
 91  4 12 20 42 30.0000000  0  4G18G19G11G 2
  20804071.4614     242154.64548    171939.69563
  21070220.9304      24276.32447     17315.42562
  23768413.500     -273090.121 6   -173474.83721
  23817000.6094    -452189.91546   -320170.32861
 91  4 12 20 42 45.0000000  0  4G18G19G11G 2
  20808388.4224     264837.80348    189614.84863
  21070686.0554      26716.01247     19216.48562
  23763801.8594    -297326.72846   -192360.38161
  23809231.031     -493011.317 6   -351979.01321
 91  4 12 20 43  0.0000000  0  4G18G19G11G 2
  20812726.5004     287639.91848    207382.68963
  21071161.8834      29202.01846     21153.63862
  23759211.5164    -321455.72946   -211162.08061
  23801469.3914    -533776.45746   -383743.87961
 91  4 12 20 43 15.0000000  0  4G18G19G11G 2
  20817088.8444     310557.91348    225240.82863
  21071638.7114      31731.62947     23124.77162
  23754638.203     -345479.761 6   -229881.97121
  23793722.9774    -574488.05146   -415467.02961
 91  4 12 20 43 30.0000000  0  4G18G19G11G 2
  20821473.1954     333594.45448    243191.34363
  21072130.750       34307.149 7     25131.68222
  23750085.9224    -369395.99046   -248517.87061
  23785990.6334    -615143.48446   -447146.39961
 91  4 12 20 43 45.0000000  0  4G18G19G11G 2
  20825878.8914     356748.87348    261233.71863
  21072630.320       36927.540 7     27173.55822
  23745557.742     -393205.132 6   -267070.32421
  23778264.695     -655743.641 6   -478782.69221
 91  4 12 20 44  0.0010000  0  4G18G19G11G 2
  20830309.7164     380022.39948    279368.89863
  21073137.1924      39593.20347     29250.70362
  23741047.4114    -416908.20846   -285540.13961
  23770549.3334    -696291.02746   -510377.89061
 91  4 12 20 44 15.0010000  0  4G18G19G11G 2
  20834758.325      403411.147 8    297593.85823
  21073650.8024      42302.76347     31362.05562
  23736555.1224    -440502.67246   -303925.31061
  23762840.7864    -736781.12246   -541928.43161
 91  4 12 20 44 30.0010000  0  4G18G19G11G 2
  20839232.3414     426916.25948    315909.48763
  21074179.294       45055.805 7     33507.28622
  23732086.200     -463990.207 6   -322227.17521
  23755145.2004    -777216.70446   -573436.49361
 91  4 12 20 44 45.0010000  0  4G18G19G11G 2
  20843727.1064     450541.20248    334318.49463
  21074708.5754      47855.98147     35689.24762
  23727638.067     -487366.805 6   -340442.57221
  23747464.692     -817594.037 6   -604899.18821
 91  4 12 20 45  0.0010000  0  4G18G19G11G 2
  20848246.7314     474281.35348    352817.28263
  21075251.8964      50698.78747     37904.43362
  23723211.3414    -510636.75246   -358574.86961
  23739793.5604    -857917.49446   -636319.87861
 91  4 12 20 45 15.0010000  0  4G18G19G11G 2
  20852784.5284     498138.76448    371407.43563
  21075799.3174      53586.45747     40154.56962
  23718802.0604    -533797.53246   -376622.11661
  23732128.3644    -898184.75846   -667696.77361
 91  4 12 20 45 30.0010000  0  4G18G19G11G 2
  20857348.5604     522117.29048    390091.96363
  21076360.6224      56522.78247     42442.62162
  23714418.7084    -556844.97946   -394581.05361
  23724475.0524    -938391.94446   -699026.86261
 91  4 12 20 45 45.0010000  0  4G18G19G11G 2
  20861933.341      546212.894 8    408867.71623
  21076925.0364      59503.39347     44765.18562
  23710052.255     -579783.074 6   -412454.76421
  23716833.2084    -978543.19546   -730313.39361
 91  4 12 20 46  0.0010000  0  4G18G19G11G 2
  20866540.7084     570425.45148    427734.60763
  21077505.2314      62528.62046     47122.49862
  23705705.3494    -602611.19046   -430242.79261
  23709205.7244   -1018638.12546   -761556.03161
 91  4 12 20 46 15.0010000  0  4G18G19G11G 2
  20871170.5754     594754.58148    446692.33063
  21078085.4584      65597.86647     49514.12862
  23701383.5284    -625329.51546   -447945.27061
  23701587.185    -1058677.161 6   -792755.10721
 91  4 12 20 46 30.0010000  0  4G18G19G11G 2
  20875822.724      619202.334 8    465742.48423
  21078681.3964      68713.32447     51941.76262
  23697083.4664    -647935.31146   -465560.05761
  23693977.5054   -1098657.67246   -823908.58861
 91  4 12 20 46 45.0010000  0  4G18G19G11G 2
  20880497.0754     643764.37948    484881.69963
  21079278.5284      71870.60147     54401.98462
  23692801.6924    -670432.89046   -483090.52461
  23686381.1144   -1138584.09446   -855019.91161
 91  4 12 20 47  0.0010000  0  4G18G19G11G 2
  20885192.1694     668443.22848    504111.93263
  21079892.411       75072.416 7     56896.91622
  23688539.3804    -692819.07446   -500534.17761
  23678795.8494   -1178453.38946   -886086.70561
 91  4 12 20 47 15.0010000  0  4G18G19G11G 2
  20889912.4034     693238.35348    523432.77063
  21080505.3494      78318.19447     59426.09962
  23684302.771     -715094.024 6   -517891.15621
  23671219.825    -1218265.987 6   -917109.34521
 91  4 12 20 47 30.0010000  0  4G18G19G11G 2
  20894652.9194     718148.75648    542843.43663
  21081134.310       81607.082 6     61988.88122
  23680086.192     -737258.254 6   -535161.87521
  23663651.0754   -1258022.50046   -948088.25961
 91  4 12 20 47 45.0010000  0  4G18G19G11G 2
  20899414.317      743176.282 8    562345.36923
  21081764.1224      84940.93947     64586.70162
  23675889.2004    -759309.77646   -552344.76161
  23656096.9424   -1297721.23346   -979022.17861
 91  4 12 20 48  0.0010000  0  4G18G19G11G 2
  20904200.5914     768319.19648    581937.20963
  21082409.2084      88317.85147     67218.06662
  23671714.6064    -781250.02946   -569440.93261
  23648554.3414   -1337363.74246  -1009912.30061
 91  4 12 20 48 15.0010000  0  4G18G19G11G 2
  20909006.3024     793580.93648    601621.64163
  21083059.5284      91741.35147     69885.73162
  23667559.817     -803075.116 6   -586447.39421
  23641020.567    -1376946.507 6  -1040755.84321
 91  4 12 20 48 30.0010000  0  4G18G19G11G 2
  20913836.3334     818958.57548    621396.38663
  21083721.6304      95208.86447     72587.70062
  23663425.5134    -824787.40346   -603365.93061
  23633501.7244   -1416471.99846  -1071554.76361
 91  4 12 20 48 45.0010000  0  4G18G19G11G 2
  20918686.2394     844454.36348    641263.19863
  21084386.021       98722.281 7     75325.43622
  23659318.911     -846384.429 6   -620194.67721
  23625991.849    -1455937.873 6  -1102307.22821
 91  4 12 20 49  0.0010000  0  4G18G19G11G 2
  20923561.3724     870068.49348    661222.21663
  21085065.5834     102282.04547     78099.28562
  23655231.8254    -867865.52046   -636933.07661
  23618489.5754   -1495343.73646  -1133012.91261
 91  4 12 20 49 15.0010000  0  4G18G19G11G 2
  20928457.7944     895796.40648    681269.90463
  21085751.3024     105883.67247     80905.75762
  23651164.1304    -889234.89546   -653584.41461
  23611001.614    -1534693.770 6  -1163675.10721
 91  4 12 20 49 30.0010000  0  4G18G19G11G 2
  20933375.239      921638.409 8    701406.48723
  21086443.8334     109527.56147     83745.15562
  23647115.8724    -910491.93246   -670148.23661
  23603524.8724   -1573987.56046  -1194293.49361
 91  4 12 20 49 45.0010000  0  4G18G19G11G 2
  20938314.8644     947598.78248    721635.30863
  21087145.8414     113217.67847     86620.58162
  23643095.6694    -931632.12546   -686620.98861
  23596059.3254   -1613220.91246  -1224864.78461
 91  4 12 20 50  0.0010000  0  4G18G19G11G 2
  20943278.325      973677.467 8    741956.31523
  21087858.4814     116954.25447     89532.20962
  23639096.7004    -952654.88946   -703002.24461
  23588605.341    -1652393.529 6  -1255388.73021
 91  4 12 20 50 15.0010000  0  4G18G19G11G 2
  20948261.372      999871.862 8    762367.49323
  21088576.8724     120734.81947     92478.10862
  23635118.1064    -973562.43246   -719293.72661
  23581162.364    -1691507.559 6  -1285867.03221
 91  4 12 20 50 30.0010000  0  4G18G19G11G 2
  20953270.388     1026182.436 8    782869.19123
  21089305.2314     124559.75647     95458.58862
  23631161.325     -994354.026 6   -735494.85621
  23573730.989    -1730562.563 6  -1316299.34321
 91  4 12 20 50 45.0010000  0  4G18G19G11G 2
  20958298.622     1052609.736 8    803461.84823
  21090039.9114     128429.59247     98474.05162
  23627223.7004   -1015028.68146   -751604.85961
  23566310.747    -1769557.792 6  -1346685.06721
 91  4 12 20 51  0.0010000  0  4G18G19G11G 2
  20963349.364     1079153.367 8    824145.14823
  21090788.3414     132343.96947    101524.22062
  23623313.911    -1035586.558 6   -767623.86821
  23558899.216    -1808493.572 6  -1377024.47621
 91  4 12 20 51 15.0010000  0  4G18G19G11G 2
  20968422.755     1105813.409 8    844919.16323
  21091538.6774     136303.33947    104609.45162
  23619424.013    -1056027.067 6   -783551.43421
  23551497.1774   -1847369.36546  -1407317.14861
 91  4 12 20 51 30.0010000  0  4G18G19G11G 2
  20973517.247     1132587.096 8    865781.73023
  21092303.7084     140304.90447    107727.55762
  23615555.888    -1076352.496 6   -799389.30921
  23544112.5054   -1886187.64046  -1437565.00661
 91  4 12 20 51 45.0010000  0  4G18G19G11G 2
  20978634.974     1159479.546 8    886736.84123
  21093071.6694     144353.72947    110882.49762
  23611710.489    -1096557.579 6   -815133.41921
  23536740.130    -1924943.200 6  -1467763.98021
 91  4 12 20 52  0.0010000  0  4G18G19G11G 2
  20983775.622     1186491.203 8    907784.83523
  21093852.5444     148450.47747    114074.77462
  23607890.6224   -1116641.25046   -830782.91761
  23529374.567    -1963635.310 6  -1497913.51121
 91  4 12 20 52 15.0010000  0  4G18G19G11G 2
  20988937.669     1213620.623 8    928924.59623
  21094638.8644     152593.35047    117302.99162
  23604091.067    -1136604.918 6   -846338.91721
  23522022.1534   -2002265.42046  -1528014.74561
 91  4 12 20 52 30.0010000  0  4G18G19G11G 2
  20994122.153     1240865.806 8    950154.56823
  21095440.0604     156780.71847    120565.88462
  23600313.349    -1156450.058 6   -861802.55521
  23514684.185    -2040835.290 6  -1558069.02221
 91  4 12 20 52 45.0010000  0  4G18G19G11G 2
  20999329.997     1268227.239 8    971475.11623
  21096241.4814     161013.37747    123864.06362
  23596560.5754   -1176175.45746   -877172.86361
  23507357.7474   -2079343.94346  -1588075.61261
 91  4 12 20 53  0.0010000  0  4G18G19G11G 2
  21004556.606     1295704.731 8    992886.09623
  21097060.9894     165290.87947    127197.19162
  23592828.286    -1195781.130 6   -892449.92021
  23500039.5054   -2117791.60446  -1618034.67361
 91  4 12 20 53 15.0010000  0  4G18G19G11G 2
  21009810.005     1323299.812 8   1014388.71123
  21097877.7394     169614.93547    130566.58762
  23589121.286    -1215265.239 6   -907632.23421
  23492736.0134   -2156176.50646  -1647944.83361
 91  4 12 20 53 30.0010000  0  4G18G19G11G 2
  21015083.677     1351011.329 8   1035982.05123
  21098710.5674     173984.23547    133971.24362
  23585435.731    -1234628.538 6   -922720.40021
  23485442.9424   -2194499.65446  -1677806.86361
 91  4 12 20 53 45.0010000  0  4G18G19G11G 2
  21020378.552     1378840.058 8   1057666.72723
  21099550.2164     178399.78947    137411.94562
  23581771.935    -1253869.837 6   -937713.51521
  23478162.6614   -2232759.94046  -1707619.91661
 91  4 12 20 54  0.0010000  0  4G18G19G11G 2
  21025695.114     1406782.818 8   1079440.24523
  21100398.4274     182858.54947    140886.30962
  23578136.1384   -1272991.94446   -952613.74761
  23470892.6534   -2270960.49346  -1737386.41661
 91  4 12 20 54 15.0010000  0  4G18G19G11G 2
  21031034.786     1434843.596 8   1101305.73823
  21101256.3494     187364.56747    144397.49662
  23574521.036    -1291990.427 6   -967417.65221
  23463635.8334   -2309096.92146  -1767102.95961
 91  4 12 20 54 30.0010000  0  4G18G19G11G 2
  21036398.481     1463021.190 8   1123262.25923
  21102123.9744     191916.36047    147944.35762
  23570931.169    -1310866.507 6   -982126.17421
  23456390.450    -2347170.532 6  -1796770.54521
 91  4 12 20 54 45.0010000  0  4G18G19G11G 2
  21041780.685     1491315.987 8   1145310.09623
  21102997.2004     196514.58347    151527.38762
  23567360.856    -1329619.254 6   -996738.58521
  23449159.5914   -2385180.71646  -1826388.71061
 91  4 12 20 55  0.0010000  0  4G18G19G11G 2
  21047188.208     1519725.021 8   1167446.95423
  21103881.2864     201156.68747    155144.61862
  23563816.3334   -1348250.93646  -1011256.68261
  23441935.810    -2423129.947 6  -1855959.40321
 91  4 12 20 55 15.0010000  0  4G18G19G11G 2
  21052615.8494    1548249.06748   1189673.42163
  21104772.5674     205843.24047    158796.48462
  23560292.1924   -1366760.60646  -1025679.68461
  23434725.2084   -2461017.45746  -1885481.97961
 91  4 12 20 55 30.0010000  0  4G18G19G11G 2
  21058064.450     1576889.764 8   1211990.79623
  21105677.5524     210575.96947    162484.32362
  23556793.231    -1385146.312 6  -1040006.09221
  23427529.5524   -2498841.12746  -1914954.80061
 91  4 12 20 55 45.0010000  0  4G18G19G11G 2
  21063538.4814    1605645.98148   1234398.17763
  21106583.3334     215354.02147    166207.48662
  23553317.6774   -1403408.51246  -1054236.29161
  23420345.153    -2536601.802 6  -1944378.54421
 91  4 12 20 56  0.0010000  0  4G18G19G11G 2
  21069032.896     1634518.716 8   1256896.35923
  21107501.5054     220178.42547    169966.76962
  23549867.606    -1421546.084 6  -1068369.35021
  23413168.4664   -2574298.49146  -1973752.43161
 91  4 12 20 56 15.0010000  0  4G18G19G11G 2
  21074548.974     1663507.573 8   1279485.02523
  21108427.1924     225048.84047    173761.89562
  23546439.606    -1439558.977 6  -1082405.27021
  23406007.8254   -2611931.35046  -2003076.58161
 91  4 12 20 56 30.0010000  0  4G18G19G11G 2
  21080088.153     1692612.972 8   1302164.50223
  21109365.3334     229965.64647    177593.17362
  23543035.4194   -1457446.50146  -1096343.50861
  23398859.0914   -2649499.84646  -2032350.59061
 91  4 12 20 56 45.0010000  0  4G18G19G11G 2
  21085648.958     1721834.684 8   1324934.61023
  21110307.4114     234928.71547    181460.50562
  23539657.083    -1475208.321 6  -1110183.75621
  23391721.9584   -2687003.96546  -2061574.41361
 91  4 12 20 57  0.0010000  0  4G18G19G11G 2
  21091231.974     1751171.223 8   1347794.19923
  21111263.6694     239936.53846    185362.70362
  23536297.2474   -1492845.69746  -1123927.06661
  23384596.0994   -2724444.96846  -2090749.07461
 91  4 12 20 57 15.0010000  0  4G18G19G11G 2
  21096837.6384    1780626.04548   1370745.94863
  21112222.0364     244992.96447    189302.77962
  23532965.0054   -1510354.66846  -1137570.33561
  23377485.4194   -2761819.00546  -2119871.53561
 91  4 12 20 57 30.0010000  0  4G18G19G11G 2
  21102463.130     1810196.728 8   1393787.98223
  21113193.3334     250095.49847    193278.77662
  23529659.411    -1527737.333 6  -1151115.16621
  23370385.5604   -2799128.37646  -2148943.63361
 91  4 12 20 57 45.0010000  0  4G18G19G11G 2
  21108111.7004    1839883.18448   1416920.22763
  21114172.8254     255244.06047    197290.64762
  23526376.075    -1544993.482 6  -1164561.41621
  23363296.5834   -2836372.97146  -2177965.23961
 91  4 12 20 58  0.0010000  0  4G18G19G11G 2
  21113783.661     1869681.242 8   1440139.43723
  21115164.1384     260434.91147    201335.47462
  23523112.4894   -1562126.82346  -1177911.97361
  23356217.614    -2873556.599 6  -2206939.35321
 91  4 12 20 58 15.0010000  0  4G18G19G11G 2
  21119474.8724    1899592.28748   1463446.68663
  21116157.8254     265669.16347    205414.11062
  23519877.153    -1579135.699 6  -1191165.54021
  23349159.372    -2910677.869 6  -2235864.87421
 91  4 12 20 58 30.0010000  0  4G18G19G11G 2
  21125189.669     1929620.604 8   1486845.31723
  21117166.3334     270951.24546    209530.02362
  23516666.036    -1596015.446 6  -1204318.49121
  23342107.2314   -2947732.34346  -2264738.34261
 91  4 12 20 58 45.0010000  0  4G18G19G11G 2
  21130925.638     1959766.245 8   1510335.37223
  21118174.6694     276281.48747    213683.46462
  23513480.513    -1612765.549 6  -1217370.41321
  23335065.7864   -2984719.62146  -2293559.44461
 91  4 12 20 59  0.0010000  0  4G18G19G11G 2
  21136683.8494    1990025.02148   1533913.58163
  21119204.3644     281655.93946    217871.35162
  23510312.7314   -1629389.69246  -1230324.20061
  23328040.3644   -3021643.54846  -2322331.18361
 91  4 12 20 59 15.0010000  0  4G18G19G11G 2
  21142463.8024    2020399.86148   1557582.22763
  21120230.5444     287077.30147    222095.79062
  23507172.5364   -1645884.85046  -1243177.47461
  23321026.3174   -3058501.10946  -2351051.20761
 91  4 12 20 59 30.0010000  0  4G18G19G11G 2
  21148265.7554    2050888.78348   1581339.76763
  21121275.0134     292543.71846    226355.33462
  23504060.5364   -1662252.44346  -1255931.33661
  23314027.263    -3095294.065 6  -2379720.90721
 91  4 12 20 59 45.0010000  0  4G18G19G11G 2
  21154089.3644    2081493.91148   1605187.86463
  21122319.5674     298057.38547    230651.69962
  23500969.2004   -1678490.02246  -1268583.89861
  23307035.450    -3132020.229 6  -2408338.56421
 91  4 12 21  0  0.0010000  0  4G18G19G11G 2
  21159934.497     2112210.538 8   1629122.84123
  21123380.6534     303613.95846    234981.49362
  23497906.9974   -1694601.93446  -1281138.54661
  23300061.872    -3168683.724 6  -2436907.38221
 91  4 12 21  0 15.0010000  0  5G18G19G11G16G 2
  21165801.3644    2143042.21748   1653147.46463
  21124442.4504     309216.78947    239347.34062
  23494861.8174   -1710584.48946  -1293592.38961
  24494501.7244         -0.59555
  23293092.583    -3205281.282 6  -2465424.83021
 91  4 12 21  0 30.0010000  0  5G18G19G11G16G 2
  21171690.4274    2173987.56448   1677260.66663
  21125519.5674     314864.97946    243748.52962
  23491846.060    -1726438.219 6  -1305945.85721
  24490761.8564     -19641.60845
  23286143.0134   -3241813.65646  -2493891.44861
 91  4 12 21  0 45.0010000  0  5G18G19G11G16G 2
  21177601.9744    2205046.58648   1701462.44063
  21126601.6464     320558.40147    248184.96562
  23488854.2004   -1742162.98346  -1318198.82561
  24487050.9194     -39157.45945
  23279205.427    -3278280.678 6  -2522307.17021
 91  4 12 21  1  0.0010000  0  5G18G19G11G16G 2
  21183532.3724    2236220.73848   1725753.92763
  21127695.0604     326298.66847    252657.90862
  23485885.9504   -1757756.79746  -1330349.76761
  24483355.8964     -58546.03745
  23272275.5994   -3314680.49746  -2550670.53461
 91  4 12 21  1 15.0010000  0  5G18G19G11G16G 2
  21189488.5444    2267512.57048   1750137.11163
  21128795.5524     332088.09347    257169.15462
  23482943.802    -1773217.293 6  -1342396.82221
  24479698.974      -77805.361 5
  23265364.161    -3351010.865 6  -2578979.77421
 91  4 12 21  1 30.0010000  0  5G18G19G11G16G 2
  21195465.1774    2298916.91348   1774607.96763
  21129906.7714     337921.78447    261714.89662
  23480026.122    -1788549.008 6  -1354343.53021
  24476054.8334     -96940.10945
  23258463.981    -3387276.609 6  -2607238.66121
 91  4 12 21  1 45.0010000  0  5G18G19G11G16G 2
  21201463.9584    2330434.87148   1799167.35163
  21131024.9894     343801.15547    266296.22762
  23477132.544    -1803750.224 6  -1366188.54421
  24472438.7314    -115948.92145        -0.27271
  23251571.0914   -3423476.27046  -2635446.04061
 91  4 12 21  2  0.0010000  0  5G18G19G11G16G 2
  21207481.3024    2362064.98548   1823814.13163
  21132152.4894     349724.76547    270912.03662
  23474264.8964   -1818822.11846  -1377932.79561
  24468848.1464    -134832.80545    -14714.96961
  23244696.271    -3459611.198 6  -2663602.99121
 91  4 12 21  2 15.0010000  0  5G18G19G11G16G 2
  21213522.1924    2393807.95348   1848548.84763
  21133287.2634     355693.66447    275563.12962
  23471421.091    -1833763.393 6  -1389575.27121
  24465272.3494    -153590.85945    -29331.66261
  23237832.677    -3495680.068 6  -2691708.46621
 91  4 12 21  2 30.0010000  0  5G18G19G11G16G 2
  21219583.3644    2425660.78948   1873369.17563
  21134432.5834     361704.73846    280247.08262
  23468603.4034   -1848576.83446  -1401118.12461
  24461724.177     -172225.602 5    -43852.24321
  23230980.7714   -3531685.86046  -2719764.79861
 91  4 12 21  2 45.0010000  0  5G18G19G11G16G 2
  21225665.7084    2457630.86248   1898280.85263
  21135586.2714     367765.71047    284969.92262
  23465810.935    -1863254.571 6  -1412555.23321
  24458212.5364    -190729.75645    -58271.08261
  23224145.521    -3567620.845 6  -2747765.95421
 91  4 12 21  3  0.0010000  0  5G18G19G11G16G 2
  21231770.7634    2489713.61348   1923280.33263
  21136746.9664     373871.99347    289728.07162
  23463040.630    -1877801.024 6  -1423890.06021
  24454705.9424    -209107.39445    -72591.34861
  23217318.786    -3603489.528 6  -2775715.43521
 91  4 12 21  3 15.0010000  0  5G18G19G11G16G 2
  21237898.0604    2521907.34948   1948366.29463
  21137917.3414     380021.99747    294520.28762
  23460297.622    -1892217.504 6  -1435123.60221
  24451233.817     -227359.912 5    -86814.07421
  23210503.458    -3639293.242 6  -2803614.29421
 91  4 12 21  3 30.0010000  0  5G18G19G11G16G 2
  21244045.7474    2554212.93548   1973539.41163
  21139097.5054     386216.45447    299347.14362
  23457580.896    -1906502.890 6  -1446254.99921
  24447790.3254    -245486.55645   -100938.74261
  23203704.388    -3675031.191 6  -2831461.91621
 91  4 12 21  3 45.0010000  0  5G18G19G11G16G 2
  21250214.6304    2586629.73248   1998799.18963
  21140281.0834     392455.24847    304208.54362
  23454884.989    -1920657.153 6  -1457284.22021
  24444367.388     -263487.469 5   -114965.41821
  23196915.935    -3710703.571 6  -2859258.44621
 91  4 12 21  4  0.0010000  0  5G18G19G11G16G 2
  21256403.4814    2619159.08048   2024146.66663
  21141482.5284     398739.82447    309105.62462
  23452217.981    -1934678.664 6  -1468209.98621
  24440957.3884    -281360.86745   -128892.73961
  23190139.935    -3746308.747 6  -2887002.59921
 91  4 12 21  4 15.0010000  0  5G18G19G11G16G 2
  21262617.9744    2651800.31548   2049581.32863
  21142683.1924     405069.64347    314037.94862
  23449576.349    -1948567.726 6  -1479032.55021
  24437583.7634    -299107.22845   -142721.08561
  23183373.935    -3781847.113 6  -2914694.69521
 91  4 12 21  4 30.0010000  0  5G18G19G11G16G 2
  21268847.6774    2684553.31247   2075103.07263
  21143898.7944     411444.65247    319005.48862
  23446960.341    -1962324.123 6  -1489751.74621
  24434228.8644    -316726.34745   -156450.28561
  23176628.6064   -3817318.59846  -2942334.67561
 91  4 12 21  4 45.0010000  0  5G18G19G11G16G 2
  21275103.0134    2717416.27948   2100710.51463
  21145117.4034     417863.00847    324006.80862
  23444363.888    -1975949.317 6  -1500368.70321
  24430906.192     -334219.770 5   -170081.55021
  23169889.0444   -3852724.89446  -2969923.86761
 91  4 12 21  5  0.0010000  0  5G18G19G11G16G 2
  21281378.5674    2750393.10448   2126406.67563
  21146349.7004     424328.76346    329045.05962
  23441800.716    -1989439.232 6  -1510880.25721
  24427599.9034    -351583.75945   -183611.92661
  23163164.302    -3888061.952 6  -2997459.10421
 91  4 12 21  5 15.0010000  0  5G18G19G11G16G 2
  21287674.4274    2783483.46948   2152191.30363
  21147587.5994     430842.11947    334120.40162
  23439254.419    -2002793.425 6  -1521286.04321
  24424319.6924    -368817.88545   -197041.13161
  23156451.981    -3923329.565 6  -3024940.22921
 91  4 12 21  5 30.0010000  0  5G18G19G11G16G 2
  21293993.4664    2816681.83748   2178060.09663
  21148839.7634     437397.40346    339228.41562
  23436739.810    -2016017.240 6  -1531590.23321
  24421066.7554    -385927.81845   -210373.54061
  23149752.310    -3958533.241 6  -3052371.52321
 91  4 12 21  5 45.0010000  0  5G18G19G11G16G 2
  21300329.4744    2849989.92748   2204014.38663
  21150090.2784     443996.56547    344370.62062
  23434249.380    -2029108.622 6  -1541791.23421
  24417831.3494    -402911.33545   -223607.48361
  23143066.528    -3993670.976 6  -3079751.44021
 91  4 12 21  6  0.0010000  0  5G18G19G11G16G 2
  21306691.8724    2883409.06048   2230055.20363
  21151357.3564     450640.60646    349547.79862
  23431781.528    -2042066.143 6  -1551887.92621
  24414622.5834    -419766.99845   -236741.79761
  23136392.0994   -4028741.47146  -3107078.96761
 91  4 12 21  6 15.0010000  0  5G18G19G11G16G 2
  21313071.2314    2916940.63348   2256183.63263
  21152628.0284     457331.48747    354761.47462
  23429342.3804   -2054887.69946  -1561878.67161
  24411444.606     -436493.302 5   -249775.27521
  23129734.622    -4063742.724 6  -3134352.53621
 91  4 12 21  6 30.0010000  0  5G18G19G11G16G 2
  21319473.3174    2950581.80348   2282397.46663
  21153912.2784     464066.33246    360009.40363
  23426929.083    -2067575.831 6  -1571765.44121
  24408282.403     -453092.572 5   -262709.78621
  23123085.021    -4098677.511 6  -3161574.32021
 91  4 12 21  6 45.0010000  0  5G18G19G11G16G 2
  21325896.0914    2984331.19248   2308695.62663
  21155199.4584     470843.87947    365290.60363
  23424539.442    -2080131.630 6  -1581549.11221
  24405144.591     -469566.102 5   -275546.32121
  23116451.013    -4133546.947 6  -3188745.16821
 91  4 12 21  7  0.0010000  0  5G18G19G11G16G 2
  21332338.4034    3018187.43748   2335077.04463
  21156499.6694     477662.97846    370604.18862
  23422174.669    -2092556.014 6  -1591230.37821
  24402031.1614    -485915.02545   -288285.74061
  23109825.310    -4168352.224 6  -3215866.03421
 91  4 12 21  7 15.0010000  0  5G18G19G11G16G 2
  21338800.8334    3052152.92248   2361543.58963
  21157804.4424     484526.43647    375952.33162
  23419835.411    -2104846.152 6  -1600807.03121
  24398947.341     -502136.535 5   -300925.89121
  23103215.755    -4203090.606 6  -3242934.77121
 91  4 12 21  7 30.0010000  0  5G18G19G11G16G 2
  21345287.8724    3086229.90748   2388097.01963
  21159120.4584     491436.32946    381336.66363
  23417522.5994   -2116999.61746  -1610277.17061
  24395891.1854    -518228.44345   -313465.06061
  23096616.3494   -4237759.74146  -3269949.54861
 91  4 12 21  7 45.0010000  0  5G18G19G11G16G 2
  21351791.7474    3120417.63948   2414736.74363
  21160444.3494     498392.15347    386756.78162
  23415236.630    -2129016.633 6  -1619641.00821
  24392847.9814    -534190.76845   -325903.24461
  23090034.911    -4272360.067 6  -3296910.70421
 91  4 12 21  8  0.0010000  0  5G18G19G11G16G 2
  21358318.2714    3154714.77647   2441461.71863
  21161779.7864     505392.90046    392211.90862
  23412971.5524   -2140898.06646  -1628899.19061
  24389835.481     -550024.269 5   -338241.05621
  23083462.1854   -4306892.56146  -3323819.01661
 91  4 12 21  8 15.0010000  0  5G18G19G11G16G 2
  21364865.8564    3189120.95748   2468271.66063
  21163114.1854     512437.90646    397701.52462
  23410741.411    -2152644.370 6  -1638052.07021
  24386850.4424    -565730.10545   -350479.38761
  23076904.153    -4341357.915 6  -3350675.00121
 91  4 12 21  8 30.0010000  0  5G18G19G11G16G 2
  21371434.9274    3223635.99748   2495166.42863
  21164464.9974     519527.36946    403225.77763
  23408530.606    -2164255.301 6  -1647099.47721
  24383884.231     -581307.718 5   -362617.83921
  23070356.3964   -4375755.85046  -3377478.46261
 91  4 12 21  8 45.0010000  0  5G18G19G11G16G 2
  21378024.3494    3258262.08047   2522147.72863
  21165823.3644     526663.70646    408786.55762
  23406348.044    -2175728.097 6  -1656039.23721
  24380943.4354    -596754.56645   -374654.33461
  23063826.6304   -4410083.67246  -3404227.28861
 91  4 12 21  9  0.0010000  0  5G18G19G11G16G 2
  21384633.4504    3292997.95148   2549214.56963
  21167191.3644     533845.67746    414382.90562
  23404189.185    -2187063.579 6  -1664872.00521
  24378030.646     -612071.550 5   -386589.66321
  23057309.4814   -4444342.35246  -3430922.23761
 91  4 12 21  9 15.0010000  0  5G18G19G11G16G 2
  21391264.0674    3327843.71448   2576367.04763
  21168565.5674     541073.71047    420015.13863
  23402059.9814   -2198261.36246  -1673597.48361
  24375136.7634    -627258.89445   -398423.98761
  23050800.7084   -4478531.57446  -3457563.05961
 91  4 12 21  9 30.0010000  0  5G18G19G11G16G 2
  21397916.5754    3362798.29048   2603604.31063
  21169952.4744     548346.98946    425682.62762
  23399956.278    -2209322.047 6  -1682216.12221
  24372273.1774    -642316.94245   -410157.54061
  23044309.833    -4512652.147 6  -3484150.38921
 91  4 12 21  9 45.0010000  0  5G18G19G11G16G 2
  21404589.5754    3397861.41748   2630926.15863
  21171341.9744     555665.46746    431385.33562
  23397875.6144   -2220245.47146  -1690727.81061
  24369433.5284    -657245.51345   -421790.22661
  23037824.403    -4546704.016 6  -3510684.18421
 91  4 12 21 10  0.0010000  0  5G18G19G11G16G 2
  21411281.9664    3433033.80548   2658333.15063
  21172742.7394     563029.56846    437123.59262
  23395824.0134   -2231030.95446  -1699132.01461
  24366618.091     -672043.974 5   -433321.50821
  23031363.606    -4580686.586 6  -3537163.97121
 91  4 12 21 10 15.0010000  0  5G18G19G11G16G 2
  21417996.2244    3468317.33448   2685826.73963
  21174153.3334     570441.41347    442899.05262
  23393794.638    -2241676.130 6  -1707426.87921
  24363820.4894    -686710.50545   -444749.99061
  23024908.4894   -4614597.68046  -3563588.07561
 91  4 12 21 10 30.0010000  0  5G18G19G11G16G 2
  21424730.5994    3503710.51348   2713405.76963
  21175576.7164     577899.78046    448710.76863
  23391798.528    -2252182.113 6  -1715613.28621
  24361060.739     -701246.122 5   -456076.47821
  23018468.0444   -4648438.46346  -3589957.39661
 91  4 12 21 10 45.0010000  0  5G18G19G11G16G 2
  21431487.1304    3539212.35648   2741069.47463
  21176997.4664     585403.83146    454558.07963
  23389825.247    -2262549.414 6  -1723691.62221
  24358318.2784    -715651.30845   -467301.32861
  23012041.8884   -4682209.72746  -3616272.54461
 91  4 12 21 11  0.0010000  0  5G18G19G11G16G 2
  21438263.724     3574825.007 8   2768819.52023
  21178443.6854     592955.75946    460442.69663
  23387881.1924   -2272775.76446  -1731660.14561
  24355600.9504    -729923.67345   -478422.67761
  23005624.880    -4715909.131 6  -3642531.68921
 91  4 12 21 11 15.0010000  0  5G18G19G11G16G 2
  21445060.771     3610544.251 7   2796652.62223
  21179882.3104     600551.69646    466361.60463
  23385961.552    -2282864.876 6  -1739521.72321
  24352909.3644    -744067.26245   -489443.67861
  22999229.8174   -4749540.54946  -3668737.86161
 91  4 12 21 11 30.0010000  0  5G18G19G11G16G 2
  21451879.7394    3646372.06147   2824570.32763
  21181341.1924     608193.63046    472316.36163
  23384067.544    -2292814.456 6  -1747274.57121
  24350235.489     -758079.945 5   -500362.67621
  22992841.067    -4783101.820 6  -3694889.39021
 91  4 12 21 11 45.0010000  0  5G18G19G11G16G 2
  21458717.9114    3682310.19648   2852573.99963
  21182800.3724     615883.63747    478308.56863
  23382198.7314   -2302622.23646  -1754916.93561
  24347599.2314    -771959.85445   -511178.20161
  22986465.2784   -4816590.79546  -3720984.57461
 91  4 12 21 12  0.0010000  0  5G18G19G11G16G 2
  21465576.763     3718355.665 7   2880661.30323
  21184276.4664     623618.86846    484336.02362
  23380361.2164   -2312290.79746  -1762450.80761
  24344985.896     -785709.287 5   -521892.07821
  22980106.7164   -4850010.25346  -3747025.58561
 91  4 12 21 12 15.0010000  0  5G18G19G11G16G 2
  21472457.130     3754507.948 8   2908831.83723
  21185752.7634     631398.94247    490398.41663
  23378545.7314   -2321820.47846  -1769876.46961
  24342390.669     -799328.901 5   -532504.81621
  22973761.1144   -4883360.57046  -3773012.73161
 91  4 12 21 12 30.0010000  0  6G18G19G11G16G 6G 2
  21479356.2394    3790772.10747   2937089.55163
  21187248.4664     639228.88246    496499.66863
  23376760.4194   -2331205.93546  -1777189.74261
  24339817.177     -812813.543 5   -543012.33121
  24696772.794          -0.03515
  22967430.9814   -4916636.65846  -3798942.02561
 91  4 12 21 12 45.0010000  0  6G18G19G11G16G 6G 2
  21486279.536     3827145.771 7   2965432.59223
  21188739.7714     647106.42646    502638.01363
  23375001.9584   -2340449.21146  -1784392.22361
  24337289.567     -826165.285 5   -553416.30121
  24691631.4974     -27032.70945
  22961112.606    -4949840.527 6  -3824815.05421
 91  4 12 21 13  0.0010000  0  6G18G19G11G16G 6G 2
  21493222.067     3863626.977 8   2993859.42423
  21190253.6384     655030.40346    508812.53762
  23373269.599    -2349551.563 6  -1791484.90321
  24334774.388     -839385.331 5   -563717.69221
  24686494.489      -54051.097 5        -0.41631
  22954805.9894   -4982973.55846  -3850632.88561
 91  4 12 21 13 15.0010000  0  6G18G19G11G16G 6G 2
  21500184.497     3900215.886 8   3022370.18523
  21191766.5834     663000.84947    515023.27463
  23371564.2554   -2358512.67246  -1798467.51361
  24332274.013     -852473.552 5   -573916.31421
  24681356.716      -81055.347 5    -21042.53621
  22948514.106    -5016035.550 6  -3876395.36321
 91  4 12 21 13 30.0010000  0  6G18G19G11G16G 6G 2
  21507167.567     3936912.263 8   3050964.67723
  21193293.8494     671017.89146    521270.31763
  23369884.692    -2367332.281 6  -1805339.86921
  24329810.208     -865429.826 5   -584012.11521
  24676223.2314    -108045.31145    -42073.48961
  22942234.8724   -5049026.26246  -3902102.28461
 91  4 12 21 13 45.0010000  0  6G18G19G11G16G 6G 2
  21514171.677     3973714.679 8   3079641.81623
  21194825.8644     679080.11247    527552.56363
  23368231.200    -2376011.658 6  -1812102.95221
  24327378.247     -878255.336 5   -594006.04821
  24671087.771     -135022.628 4    -63094.58621
  22935971.7864   -5081947.05546  -3927754.73261
 91  4 12 21 14  0.0010000  0  6G18G19G11G16G 6G 2
  21521197.106     4010626.846 8   3108404.46923
  21196371.2714     687191.04747    533872.77263
  23366606.2164   -2384546.99746  -1818753.80461
  24324962.271     -890946.545 5   -603895.33521
  24665947.442     -161983.568 3    -84102.90821
  22929720.0444   -5114794.47946  -3953350.01061
 91  4 12 21 14 15.0010000  0  6G18G19G11G16G 6G 2
  21528239.6774    4047646.43448   3137250.81263
  21197922.9194     695348.54747    540229.26463
  23365013.4034   -2392940.19446  -1825293.89161
  24322568.255     -903505.333 5   -613681.41321
  24660813.6854    -188930.45542   -105100.27161
  22923483.864    -5147570.434 6  -3978889.60721
 91  4 12 21 14 30.0010000  0  6G18G19G11G16G 6G 2
  21535305.013     4084772.560 8   3166180.18423
  21199485.3174     703552.28846    546621.78463
  23363440.6384   -2401191.55046  -1831723.46261
  24320201.3494    -915932.24745   -623364.74061
  24655685.6384    -215863.84642   -126087.09761
  22917261.302    -5180275.158 6  -4004373.69721
 91  4 12 21 14 45.0010000  0  6G18G19G11G16G 6G 2
  21542390.567     4122006.393 7   3195193.47723
  21201052.2714     711803.87847    553051.59563
  23361899.3174   -2409299.23746  -1838041.08161
  24317867.872     -928225.617 5   -632944.02421
  24650564.856     -242782.181 2   -147062.21921
  22911053.5914   -5212907.12247  -4029801.08661
 91  4 12 21 15  0.0010000  0  6G18G19G11G16G 6G 2
  21549495.372     4159350.302 7   3224292.54923
  21202633.8254     720105.39946    559520.31462
  23360384.2164   -2417261.09846  -1844245.06061
  24315555.9114    -940383.03145   -642417.36061
  24645451.958     -269683.539 2   -168024.08221
  22904857.435    -5245464.209 6  -4055170.13321
 91  4 12 21 15 15.0010000  0  6G18G19G11G16G 6G 2
  21556623.489     4196801.535 7   3253475.24823
  21204222.2634     728454.41647    566026.04162
  23358896.1924   -2425079.41246  -1850337.19461
  24313264.7784    -952407.26645   -651786.93161
  24640338.614     -296570.327 3   -188974.62721
  22898675.192    -5277948.644 6  -4080482.56521
 91  4 12 21 15 30.0010000  0  6G18G19G11G16G 6G 2
  21563770.255     4234359.798 7   3282741.35023
  21205820.6924     736850.64046    572568.55362
  23357432.7714   -2432754.22446  -1856317.50361
  24311000.677     -964298.504 5   -661052.85121
  24635216.544     -323442.993 3   -209914.17121
  22892507.122    -5310360.628 6  -4105738.55421
 91  4 12 21 15 45.0010000  0  6G18G19G11G16G 6G 2
  21570938.388     4272028.921 7   3312093.82523
  21207427.1464     745298.28347    579151.13562
  23356005.0364   -2440281.09046  -1862182.53661
  24308763.9584    -976052.14045   -670211.55261
  24630122.302     -350297.417 3   -230839.48221
  22886352.841    -5342695.966 6  -4130934.80521
 91  4 12 21 16  0.0010000  0  6G18G19G11G16G 6G 2
  21578125.747     4309802.797 7   3341527.93523
  21209045.7244     753791.36647    585769.12562
  23354596.0604   -2447666.04546  -1867936.98661
  24306558.231     -987674.384 5   -679267.87321
  24625006.2394    -377139.70144   -251755.36961
  22880211.1304   -5374960.55046  -4156075.92161
 91  4 12 21 16 15.0010000  0  6G18G19G11G16G 6G 2
  21585334.3104    4347683.39847   3371045.19963
  21210669.4194     762332.27947    592424.38262
  23353221.5444   -2454906.37446  -1873578.73361
  24304370.356     -999162.886 5   -688219.97021
  24619902.396     -403967.543 4   -272659.94321
  22874085.927    -5407152.005 6  -4181160.06321
 91  4 12 21 16 30.0010000  0  6G18G19G11G16G 6G 2
  21592565.247     4385670.624 7   3400645.55123
  21212305.4034     770921.02546    599116.91162
  23351870.1224   -2462001.79846  -1879107.58161
  24302205.5754   -1010517.24745   -697067.56361
  24614797.021     -430780.895 4   -293553.29021
  22867975.458    -5439270.153 6  -4206187.07721
 91  4 12 21 16 45.0010000  0  6G18G19G11G16G 6G 2
  21599812.1144    4423763.54647   3430328.26963
  21213946.0284     779556.73547    605846.03862
  23350547.4664   -2468953.30846  -1884524.28161
  24300067.0444   -1021738.46045   -705811.38361
  24609693.5364    -457581.04344   -314436.34061
  22861876.802    -5471315.925 6  -4231157.70021
 91  4 12 21 17  0.0010000  0  6G18G19G11G16G 6G 2
  21607080.700     4461960.372 7   3460091.94223
  21215601.1144     788237.90247    612610.58363
  23349252.356    -2475762.280 6  -1889829.91721
  24297964.3414   -1032828.15445   -714452.74661
  24604597.0524    -484369.47944   -335310.24861
  22855792.856    -5503290.837 6  -4256073.10321
 91  4 12 21 17 15.0010000  0  6G18G19G11G16G 6G 2
  21614369.122     4500262.421 7   3489937.62023
  21217260.3414     796965.85247    619411.58662
  23347985.0754   -2482427.10646  -1895023.23861
  24295872.0834   -1043784.69145   -722990.32461
  24599507.856     -511144.803 5   -356173.95821
  22849722.1304   -5535193.41246  -4280932.14261
 91  4 12 21 17 30.0010000  0  6G18G19G11G16G 6G 2
  21621678.552     4538668.220 7   3519864.12923
  21218930.6534     805739.22647    626247.98462
  23346743.716    -2488948.905 6  -1900105.10721
  24293808.638    -1054609.469 5   -731425.24221
  24594410.911     -537908.439 4   -377028.53121
  22843664.044    -5567024.868 6  -4305735.76221
 91  4 12 21 17 45.0010000  0  6G18G19G11G16G 6G 2
  21629006.310     4577177.087 7   3549870.95823
  21220607.6224     814557.86947    633119.65463
  23345528.3804   -2495327.81346  -1905075.62061
  24291780.6064   -1065302.48345   -739757.47961
  24589324.5524    -564660.78444   -397874.34461
  22837620.989    -5598785.320 6  -4330484.05821
 91  4 12 21 18  0.0010000  0  6G18G19G11G16G 6G 2
  21636354.9814    4615787.16747   3579956.65163
  21222297.4194     823420.07346    640025.27163
  23344341.138    -2501565.353 6  -1909935.99921
  24289769.606    -1075865.865 5   -747988.72321
  24584234.2634    -591403.57244
  22831590.6304   -5630476.46246  -4355178.33561
 91  4 12 21 18 15.0010000  0  6G18G19G11G16G 6G 2
  21643720.6534    4654500.29747   3610122.63863
  21223988.6144     832327.77647    646966.33863
  23343181.5134   -2507659.60446  -1914684.70861
  24287787.435    -1086297.519 5   -756117.30521
  24579142.6304    -618135.10344
  22825570.997    -5662096.345 6  -4379817.09521
 91  4 12 21 18 30.0010000  0  6G18G19G11G16G 6G 2
  21651105.388     4693315.132 7   3640367.88423
  21225692.7864     841279.57847    653941.76763
  23342046.528    -2513611.679 6  -1919322.63821
  24285820.8804   -1096598.48945   -764144.07061
  24574054.2244    -644856.70444
  22819568.419    -5693646.177 6  -4404401.27621
 91  4 12 21 18 45.0010000  0  6G18G19G11G16G 6G 2
  21658513.278     4732231.708 7   3670692.40922
  21227403.7714     850276.21747    660952.13363
  23340943.919    -2519420.903 6  -1923849.26321
  24283889.4034   -1106768.53345   -772068.81061
  24568975.0054    -671567.99544
  22813577.388    -5725125.594 6  -4428930.57822
 91  4 12 21 19  0.0010000  0  6G18G19G11G16G 6G 2
  21665934.716     4771250.059 7   3701096.23723
  21229130.0834     859317.60646    667997.36863
  23339864.7004   -2525086.94446  -1928264.30161
  24281978.3884   -1116807.21845   -779891.15661
  24563892.3884    -698268.94944
  22807600.9504   -5756534.32846  -4453404.79761
 91  4 12 21 19 15.0010000  0  6G18G19G11G16G 6G 2
  21673381.677     4810365.723 7   3731575.89823
  21230851.4974     868399.50147    675074.16763
  23338813.5284   -2530613.91846  -1932570.97061
  24280090.122    -1126718.607 5   -787614.36221
  24558805.161     -724963.940 3
  22801636.091    -5787876.492 6  -4477827.15521
 91  4 12 21 19 30.0010000  0  6G18G19G11G16G 6G 2
  21680845.099     4849581.455 7   3762133.52723
  21232592.4424     877524.64146    682184.66662
  23337787.575    -2535999.112 6  -1936767.17821
  24278234.036    -1136500.214 5   -795236.39821
  24553739.1614    -751650.34943        -0.32471
  22795686.4504   -5819149.35646  -4502195.50361
 91  4 12 21 19 45.0010000  0  6G18G19G11G16G 6G 2
  21688324.153     4888894.343 7   3792766.86223
  21234332.6224     886690.73847    689327.07563
  23336788.950    -2541244.632 6  -1940854.54721
  24276389.8644   -1146154.38645   -802759.17361
  24548654.1064    -778330.52644    -20789.88361
  22789747.161    -5850355.214 6  -4526511.64521
 91  4 12 21 20  0.0010000  0  6G18G19G11G16G 6G 2
  21695824.341     4928303.886 7   3823475.51923
  21236087.7004     895897.50346    696501.17863
  23335819.263    -2546350.498 6  -1944833.10021
  24274579.981    -1155681.032 5   -810182.54021
  24543587.646     -805004.833 5    -41574.89421
  22783819.106    -5881494.231 6  -4550775.70621
 91  4 12 21 20 15.0010000  0  6G18G19G11G16G 6G 2
  21703342.700     4967810.511 7   3854259.81723
  21237844.1774     905145.44947    703707.36263
  23334872.685    -2551316.219 6  -1948702.44421
  24272795.6144   -1165079.86345   -817506.32661
  24538512.372     -831672.853 5    -62354.99121
  22777908.1534   -5912565.98946  -4574987.34761
 91  4 12 21 20 30.0010000  0  6G18G19G11G16G 6G 2
  21710879.560     5007415.682 7   3885120.91423
  21239617.8884     914436.12946    710946.84963
  23333956.763    -2556140.213 6  -1952461.35121
  24271026.0134   -1174349.31145   -824729.29961
  24533435.411     -858333.204 5    -83129.11721
  22772008.700    -5943568.882 6  -4599145.32921
 91  4 12 21 20 45.0010000  0  6G18G19G11G16G 6G 2
  21718435.841     5047122.392 7   3916061.12723
  21241391.4034     923772.89847    718222.25163
  23333061.599    -2560819.045 6  -1956107.14421
  24269283.052    -1183486.245 5   -831849.03421
  24528366.302     -884982.669 5   -103894.77221
  22766122.9114   -5974499.54446  -4623247.02961
 91  4 12 21 21  0.0010000  0  6G18G19G11G16G 6G 2
  21726010.5994    5086927.43847   3947077.95963
  21243174.4974     933153.02846    725531.43762
  23332199.8804   -2565355.27746  -1959641.84561
  24267579.8104   -1192493.07145   -838867.33361
  24523295.7474    -911624.14745   -124654.19361
  22760248.9504   -6005360.59646  -4647294.48462
 91  4 12 21 21 15.0010000  0  6G18G19G11G16G 6G 2
  21733603.6614    5126830.51147   3978171.17363
  21244967.8884     942576.04447    732874.04563
  23331366.442    -2569749.179 6  -1963065.61021
  24265887.6144   -1201370.49045   -845784.84161
  24518223.067     -938258.063 5   -145407.76521
  22754391.044    -6036152.254 7  -4671287.86321
 91  4 12 21 21 30.0010000  0  6G18G19G11G16G 6G 2
  21741216.9034    5166835.08747   4009343.48463
  21246770.8884     952045.70046    740252.99563
  23330557.7244   -2573996.83946  -1966375.43861
  24264227.6304   -1210114.59345   -852598.44761
  24513160.5674    -964880.65745   -166152.48261
  22748545.778    -6066870.959 7  -4695224.41321
 91  4 12 21 21 45.0010000  0  6G18G19G11G16G 6G 2
  21748847.731     5206939.753 7   4040593.78722
  21248580.3104     961560.91046    747667.43563
  23329776.802    -2578099.311 6  -1969572.13021
  24262586.0054   -1218726.56545   -859309.10861
  24508094.685     -991493.277 5   -186889.41721
  22742715.255    -6097517.821 7  -4719104.96721
 91  4 12 21 22  0.0010000  0  6G18G19G11G16G 6G 2
  21756496.981     5247148.102 7   4071924.88923
  21250405.6854     971125.50546    755120.36063
  23329022.0914   -2582052.69246  -1972652.64661
  24260975.911    -1227202.374 5   -865913.65221
  24503032.669    -1018092.218 5   -207615.71121
  22736896.341    -6128088.965 7  -4742926.52521
 91  4 12 21 22 15.0010000  0  6G18G19G11G16G 6G 2
  21764169.2004    5287456.28747   4103333.77862
  21252228.2164     980735.87547    762608.95862
  23328297.263    -2585860.439 6  -1975619.67421
  24259386.6224   -1235545.64745   -872414.94561
  24497969.2474   -1044681.30045   -228334.32561
  22731092.6614   -6158587.97047  -4766691.86162
 91  4 12 21 22 30.0010000  0  6G18G19G11G16G 6G 2
  21771856.747     5327863.441 7   4134819.79322
  21254067.2164     990391.20746    770132.58563
  23327600.692    -2589523.239 6  -1978473.75421
  24257823.1384   -1243757.13345   -878813.52161
  24492908.614    -1071261.397 5   -249045.91821
  22725302.685    -6189015.562 7  -4790401.56821
 91  4 12 21 22 45.0010000  0  6G18G19G11G16G 6G 2
  21779565.653     5368371.938 7   4166384.77223
  21255913.4194    1000093.99047    777693.18862
  23326933.2394   -2593038.41946  -1981212.80661
  24256283.317    -1251834.507 5   -885107.59721
  24487855.4974   -1097829.81545   -269748.43561
  22719522.716    -6219368.983 6  -4814053.47221
 91  4 12 21 23  0.0010000  0  6G18G19G11G16G 6G 2
  21787293.8644    5408982.83747   4198029.54063
  21257773.3254    1009845.44346    785291.72363
  23326294.380    -2596404.786 7  -1983835.91021
  24254773.028    -1259776.399 5   -891296.11221
  24482803.083    -1124385.571 4   -290441.09021
  22713760.685    -6249647.199 6  -4837646.77721
 91  4 12 21 23 15.0010000  0  6G18G19G11G16G 6G 2
  21795040.880     5449692.327 7   4229751.13522
  21259633.2004    1019642.23947    792925.58063
  23325679.099    -2599625.662 6  -1986345.63721
  24253292.2634   -1267586.40045   -897381.86561
  24477752.8494   -1150932.24044   -311126.66161
  22708012.942    -6279853.602 6  -4861184.12522
 91  4 12 21 23 30.0010000  0  6G18G19G11G16G 6G 2
  21802808.552     5490501.648 7   4261550.52623
  21261511.8964    1029485.80046    800595.88963
  23325094.9814   -2602699.24746  -1988740.58461
  24251832.388    -1275262.632 5   -903363.38821
  24472706.146    -1177468.305 4   -331803.96721
  22702280.388    -6309986.556 6  -4884664.23621
 91  4 12 21 23 45.0010000  0  6G18G19G11G16G 6G 2
  21810593.7474    5531409.65947   4293426.80163
  21263388.2784    1039375.24747    808301.94662
  23324539.021    -2605626.418 6  -1991021.45221
  24250382.7784   -1282806.09545   -909241.42061
  24467659.3334   -1203994.81944   -352473.83661
  22696561.606    -6340046.934 6  -4908087.80522
 91  4 12 21 24  0.0010000  0  6G18G19G11G16G 6G 2
  21818396.224     5572420.001 7   4325382.82123
  21265283.8254    1049314.46046    816046.78262
  23324007.364    -2608403.138 6  -1993185.09221
  24248983.849    -1290213.051 5   -915013.09821
  24462612.778    -1230507.953 4   -373133.25421
  22690854.528    -6370030.757 6  -4931451.72222
 91  4 12 21 24 15.0010000  0  6G18G19G11G16G 6G 2
  21826221.0914    5613533.72747   4357419.40562
  21267180.4664    1059304.68347    823831.36862
  23323508.4974   -2611028.26246  -1995230.60361
  24247592.1534   -1297482.62345   -920677.72661
  24457566.958    -1257006.754 4   -393781.54121
  22685163.411    -6399936.987 6  -4954755.17221
 91  4 12 21 24 30.0010000  0  6G18G19G11G16G 6G 2
  21834062.8804    5654745.55047   4389532.41762
  21269093.0214    1069340.70546    831651.64163
  23323037.7784   -2613506.83046  -1997161.90961
  24246237.872    -1304619.879 5   -926239.26621
  24452533.669    -1283496.444 4   -414422.68121
  22679485.786    -6429770.617 6  -4978002.06322
 91  4 12 21 24 45.0010000  0  6G18G19G11G16G 6G 2
  21841925.208     5696058.042 7   4421723.88722
  21271010.5524    1079425.41847    839509.85262
  23322594.1694   -2615835.89046  -1998976.72961
  24244909.9664   -1311621.73145   -931695.28861
  24447490.6534   -1309974.24045   -435054.58561
  22673823.8884   -6459528.89846  -5001190.23862
 91  4 12 21 25  0.0010000  0  6G18G19G11G16G 6G 2
  21849805.1614    5737470.29947   4453993.08662
  21272943.0994    1089558.05146    847405.40563
  23322181.0134   -2618016.17246  -2000675.60261
  24243601.802    -1318488.557 5   -937046.08121
  24442447.638    -1336440.921 4   -455677.82821
  22668174.7944   -6489212.45146  -5024320.18062
 91  4 12 21 25 15.0010000  0  6G18G19G11G16G 6G 2
  21857707.3884    5778983.78947   4486341.16462
  21274875.1614    1099740.54447    855339.81562
  23321793.536    -2620045.554 6  -2002256.89821
  24242318.591    -1325218.751 5   -942290.41221
  24437417.099    -1362894.800 5   -476291.07421
  22662539.3414   -6518819.36846  -5047390.40962
 91  4 12 21 25 30.0010000  0  6G18G19G11G16G 6G 2
  21865624.3724    5820598.49847   4518768.11763
  21276826.6304    1109973.00746    863313.15562
  23321437.1304   -2621923.81746  -2003720.44361
  24241065.317    -1331812.483 5   -947428.41621
  24432387.864    -1389335.673 5   -496894.21621
  22656921.1854   -6548349.41446  -5070400.74062
 91  4 12 21 25 45.0010000  0  6G18G19G11G16G 6G 2
  21873561.7244    5862310.16747   4551270.62162
  21278777.7784    1120251.30347    871322.21062
  23321104.372    -2623655.196 6  -2005069.52521
  24239836.1774   -1338273.72245   -952463.17961
  24427360.2314   -1415767.88645   -517490.58161
  22651317.0364   -6577806.81747  -5093354.46262
 91  4 12 21 26  0.0010000  0  6G18G19G11G16G 6G 2
  21881518.8644    5904120.64247   4583850.11062
  21280745.3644    1130577.60546    879368.67862
  23320804.5054   -2625237.16146  -2006302.18261
  24238633.036    -1344600.095 5   -957392.84521
  24422328.1464   -1442189.28045   -538078.53361
  22645725.2634   -6607189.35747  -5116249.85662
 91  4 12 21 26 15.0010000  0  6G18G19G11G16G 6G 2
  21889492.349     5946027.997 7   4616505.11022
  21282716.9504    1140950.30147    887451.29363
  23320532.5134   -2626671.30846  -2007419.66861
  24237454.0054   -1350793.52545   -962218.90361
  24417304.192    -1468601.640 5   -558659.43921
  22640146.9584   -6636498.48846  -5139088.04962
 91  4 12 21 26 30.0010000  0  6G18G19G11G16G 6G 2
  21897486.2004    5988031.66947   4649235.15463
  21284702.9194    1151368.96146    895569.72162
  23320287.513    -2627958.116 6  -2008422.33021
  24236302.692    -1356854.426 5   -966941.73221
  24412277.083    -1495005.480 4   -579233.70721
  22634582.6304   -6665734.72547  -5161869.44362
 91  4 12 21 26 45.0010000  0  6G18G19G11G16G 6G 2
  21905495.8104    6030131.08947   4682039.79562
  21286692.6224    1161833.19947    903723.66762
  23320075.5214   -2629097.82546  -2009310.37661
  24235173.8414   -1362783.14645   -971561.53561
  24407250.130    -1521401.300 4   -599801.72421
  22629033.3174   -6694898.38047  -5184594.28262
 91  4 12 21 27  0.0010000  0  6G18G19G11G16G 6G 2
  21913527.0914    6072323.27347   4714916.73062
  21288691.2004    1172340.55946    911911.21762
  23319881.560    -2630092.928 6  -2010085.73521
  24234075.7314   -1368582.20945   -976080.29861
  24402233.872    -1547791.785 4   -620365.59321
  22623498.396    -6723991.861 6  -5207264.44522
 91  4 12 21 27 15.0010000  0  6G18G19G11G16G 6G 2
  21921571.4114    6114606.71047   4747864.76262
  21290699.1304    1182889.34347    920131.04062
  23319719.7084   -2630945.05146  -2010749.69161
  24232985.466    -1374253.360 5   -980499.41721
  24397211.927    -1574178.572 4   -640926.59521
  22617974.1064   -6753016.99746  -5229881.34162
 91  4 12 21 27 30.0010000  0  6G18G19G11G16G 6G 2
  21929637.0994    6156983.68647   4780885.68962
  21292716.1224    1193482.28646    928385.27462
  23319580.8494   -2631651.19746  -2011299.89661
  24231937.0834   -1379793.97545   -984816.83361
  24392189.6064   -1600559.03044   -661482.64261
  22612463.935    -6781970.981 7  -5252442.80422
 91  4 12 21 27 45.0010000  0  6G18G19G11G16G 6G 2
  21937718.2394    6199451.02247   4813977.02762
  21294737.794     1204116.500 7    936671.66822
  23319479.6694   -2632214.29046  -2011738.63461
  24230909.2394   -1385206.77645   -989034.59161
  24387170.6464   -1626936.20744   -682036.11461
  22606966.841    -6810856.703 7  -5274951.07322
 91  4 12 21 28  0.0010000  0  6G18G19G11G16G 6G 2
  21945816.6384    6242009.33747   4847139.25462
  21296771.6534    1214792.68946    944990.76863
  23319397.935    -2632633.630 6  -2012065.34921
  24229900.255    -1390491.157 5   -993152.33521
  24382156.302    -1653309.454 4   -702586.56121
  22601483.3334   -6839673.36747  -5297405.52262
 91  4 12 21 28 15.0010000  0  6G18G19G11G16G 6G 2
  21953932.5994    6284657.45647   4880371.45562
  21298808.8804    1225509.95746    953341.87262
  23319348.481    -2632909.937 6  -2012280.60821
  24228917.536    -1395647.787 5   -997170.53421
  24377134.7314   -1679679.80044   -723134.71761
  22596013.052    -6868421.796 7  -5319806.81122
 91  4 12 21 28 30.0010000  0  6G18G19G11G16G 6G 2
  21962067.4354    6327397.84747   4913675.56162
  21300856.575     1236271.128 6    961727.18622
  23319318.9584   -2633040.42346
  24227957.528    -1400674.416 5  -1001087.42821
  24372113.989    -1706044.505 4   -743678.48721
  22590556.4114   -6897099.36947  -5342152.88562
 91  4 12 21 28 45.0010000  0  6G18G19G11G16G 6G 2
  21970215.5444    6370227.32747   4947049.08462
  21302912.458     1247073.294 6    970144.44722
  23319324.8564   -2633027.99046
  24227025.4814   -1405573.64345  -1004905.02661
  24367097.0994   -1732406.60745   -764220.25961
  22585111.6064   -6925709.13547  -5364446.12262
 91  4 12 21 29  0.0010000  0  6G18G19G11G16G 6G 2
  21978381.4354    6413149.39247   4980494.75462
  21304977.2864    1257920.04846    978596.45662
  23319350.950    -2632868.894 6
  24226121.146    -1410342.187 5  -1008620.80821
  24362085.3804   -1758762.58345   -784757.23461
  22579681.0754   -6954247.16247  -5386683.45262
 91  4 12 21 29 15.0010000  0  6G18G19G11G16G 6G 2
  21986566.9504    6456160.90147   5014010.11862
  21307049.3884    1268808.64946    987081.07463
  23319411.5284   -2632565.72446
  24225240.130    -1414982.208 5  -1012236.44221
  24357068.1144   -1785115.32345   -805291.69261
  22574265.0134   -6982716.12047  -5408866.97062
 91  4 12 21 29 30.0010000  0  6G18G19G11G16G 6G 2
  21994770.2004    6499264.75347   5047597.44162
  21309128.9114    1279741.89946    995600.48363
  23319495.614    -2632115.627 6  -2011661.44121
  24224382.599    -1419491.477 5  -1015750.20821
  24352053.224    -1811462.088 5   -825821.51521
  22568859.6464   -7011113.34247  -5430994.58762
 91  4 12 21 29 45.0010000  0  6G18G19G11G16G 6G 2
  22002990.6464    6542458.46247   5081254.77662
  21311218.0914    1290717.95446   1004153.24163
  23319610.021    -2631520.599 6  -2011197.73621
  24223544.4034   -1423871.84745  -1019163.51161
  24347043.185    -1837804.827 5   -846348.18521
  22563469.0994   -7039440.62547  -5453067.70362
 91  4 12 21 30  0.0010000  0  6G18G19G11G16G 6G 2
  22011226.3724    6585741.95947   5114982.08162
  21313316.5284    1301736.86546   1012739.40163
  23319749.888    -2630780.454 6  -2010620.95521
  24222738.5754   -1428123.31345  -1022476.38761
  24342031.1924   -1864143.55645   -866871.72161
  22558091.2084   -7067697.87547  -5475086.25462
 91  4 12 21 30 15.0010000  0  6G18G19G11G16G 6G 2
  22019480.716     6629117.030 7   5148780.73722
  21315418.7864    1312800.74146   1021360.59663
  23319918.653    -2629893.117 6  -2009929.47321
  24221953.349    -1432243.829 5  -1025687.23421
  24337015.505    -1890476.266 5   -887390.58321
  22552726.8644   -7095882.90847  -5497048.52562
 91  4 12 21 30 30.0010000  0  6G18G19G11G16G 6G 2
  22027752.513     6672582.311 7   5182649.68422
  21317536.5444    1323908.27746   1030015.81063
  23320116.310    -2628859.852 6  -2009124.29521
  24221194.4354   -1436234.63845  -1028796.98761
  24332007.888    -1916804.425 5   -907905.87421
  22547376.7244   -7123997.02647  -5518955.53862
 91  4 12 21 30 45.0010000  0  6G18G19G11G16G 6G 2
  22036039.2004    6716135.89047   5216587.44262
  21319655.7554    1335058.22447   1038704.07362
  23320338.802    -2627681.729 6  -2008206.23421
  24220463.591    -1440096.845 5  -1031806.56221
  24326999.5444   -1943129.41645   -928418.69961
  22542043.5914   -7152041.66247  -5540808.41162
 91  4 12 21 31  0.0010000  0  6G18G19G11G16G 6G 2
  22044342.7864    6759779.27347   5250595.17562
  21321788.9744    1346252.06146   1047426.53262
  23320591.919    -2626357.391 6  -2007174.24221
  24219755.278    -1443829.237 5  -1034714.94821
  24321989.700    -1969449.899 5   -948928.00321
  22536717.442    -7180015.338 7  -5562605.99722
 91  4 12 21 31 15.0010000  0  6G18G19G11G16G 6G 2
  22052666.310     6803513.695 7   5284673.84622
  21323924.1774    1357491.61247   1056184.62162
  23320870.9034   -2624884.98146  -2006026.87361
  24219070.0444   -1447430.33945  -1037521.06661
  24316981.5134   -1995764.14245   -969432.45461
  22531407.7864   -7207916.16947  -5584346.81762
 91  4 12 21 31 30.0010000  0  6G18G19G11G16G 6G 2
  22061009.208     6847338.959 7   5318823.29522
  21326073.1534    1368776.36146   1064977.92562
  23321183.052    -2623264.775 6  -2004764.33521
  24218404.099    -1450900.538 5  -1040225.15221
  24311973.0214   -2022072.74845   -989932.50361
  22526110.5444   -7235744.68447  -5606031.27562
 91  4 12 21 31 45.0010000  0  6G18G19G11G16G 6G 2
  22069363.911     6891254.441 7   5353043.04622
  21328226.388     1380106.006 6   1073806.20822
  23321518.442    -2621497.074 6  -2003386.86421
  24217768.528    -1454240.027 5  -1042827.39821
  24306969.536    -2048375.892 5  -1010428.28421
  22520831.489    -7263501.107 7  -5627659.57222
 91  4 12 21 32  0.0010000  0  6G18G19G11G16G 6G 2
  22077738.0994    6935259.90547   5387332.92362
  21330396.6224    1391480.67946   1082669.58362
  23321883.7084   -2619581.68746  -2001894.32761
  24217160.474    -1457448.642 5  -1045327.64721
  24301964.192    -2074673.571 5  -1030919.81521
  22515562.7784   -7291185.18647  -5649231.49062
 91  4 12 21 32 15.0010000  0  6G18G19G11G16G 6G 2
  22086130.5364    6979353.63047   5421691.57762
  21332566.4034    1402898.98346   1091566.95962
  23322273.247    -2617520.048 6  -2000287.81021
  24216576.2084   -1460527.93945  -1047727.15261
  24296962.0674   -2100967.48845  -1051408.39961
  22510307.3564   -7318798.41247  -5670748.20362
 91  4 12 21 32 30.0010000  0  6G18G19G11G16G 6G 2
  22094537.716     7023536.408 7   5456119.60522
  21334747.763     1414362.136 6   1100499.27222
  23322694.403    -2615311.206 6  -1998566.59421
  24216016.6534   -1463476.94645  -1050025.13361
  24291957.8334   -2127256.61445  -1071893.26361
  22505065.771    -7346339.760 7  -5692208.91022
 91  4 12 21 32 45.0010000  0  6G18G19G11G16G 6G 2
  22102961.575     7067810.222 7   5490618.57422
  21336936.403     1425872.117 6   1109468.07822
  23323142.2944   -2612952.89146  -1996728.90461
  24215480.036    -1466293.668 5  -1052220.02021
  24286961.7164   -2153538.94345  -1092372.82461
  22499841.458    -7373807.111 7  -5713611.95422
 91  4 12 21 33  0.0010000  0  6G18G19G11G16G 6G 2
  22111406.169     7112175.624 7   5525188.92022
  21339141.4424    1437429.81146   1118474.07062
  23323618.247    -2610444.115 6  -1994773.95921
  24214961.2164   -1468977.62745  -1054311.47461
  24281961.849    -2179813.570 5  -1112846.40221
  22494626.9354   -7401199.47447  -5734956.57262
 91  4 12 21 33 15.0010000  0  6G18G19G11G16G 6G 2
  22119864.880     7156629.421 7   5559828.13722
  21341342.224     1449032.489 6   1127515.10322
  23324126.7474   -2607787.68647  -1992703.98461
  24214478.7394   -1471531.25645  -1056301.35861
  24276958.802    -2206083.539 5  -1133316.35721
  22489430.114    -7428519.649 7  -5756244.93022
 91  4 12 21 33 30.0010000  0  6G18G19G11G16G 6G 2
  22128341.083     7201174.992 7   5594538.87122
  21343559.6854    1460683.69046   1136593.95562
  23324662.3254   -2604980.19947  -1990516.30261
  24214016.2394   -1473950.83945  -1058186.79761
  24271965.771    -2232345.368 5  -1153779.95421
  22484243.3804   -7455764.34347  -5777474.46862
 91  4 12 21 33 45.0010000  0  6G18G19G11G16G 6G 2
  22136835.161     7245806.378 7   5629316.47122
  21345785.3964    1472377.97746   1145706.37862
  23325221.5214   -2602027.06446  -1988215.12761
  24213588.0444   -1476242.22145  -1059972.35961
  24266969.177    -2258604.620 5  -1174241.55421
  22479071.942    -7482938.801 7  -5798649.28422
 91  4 12 21 34  0.0010000  0  6G18G19G11G16G 6G 2
  22145344.161     7290530.184 7   5664166.08722
  21348024.2554    1484121.55546   1154857.21062
  23325812.4194   -2598921.79146  -1985795.39861
  24213173.747    -1478399.115 5  -1061653.05921
  24261970.8964   -2284854.98745  -1194696.22361
  22473917.575    -7510036.610 7  -5819764.37722
 91  4 12 21 34 15.0010000  0  6G18G19G11G16G 6G 2
  22153871.474     7335344.054 7   5699085.88322
  21350262.247     1495912.741 6   1164045.14122
  23326434.1064   -2595666.17547  -1983258.52161
  24212788.442    -1480423.235 5  -1063230.30821
  24256980.528    -2311098.448 5  -1215145.49421
  22468774.0834   -7537059.82047  -5840821.33662
 91  4 12 21 34 30.0010000  0  6G18G19G11G16G 6G 2
  22162417.458     7380244.537 7   5734073.16222
  21352522.8254    1507748.29146   1173267.63262
  23327077.9034   -2592263.39546  -1980606.98061
  24212425.005    -1482318.125 5  -1064706.87721
  24251981.0604   -2337338.23445  -1235591.92961
  22463644.231    -7564011.419 7  -5861822.49122
 91  4 12 21 34 45.0010000  0  6G18G19G11G16G 6G 2
  22170979.302     7425234.900 7   5769130.48422
  21354778.5834    1519631.64646   1182527.38462
  23327755.4194   -2588709.99146  -1977838.05961
  24212088.0524   -1484080.32245  -1066080.05761
  24246987.3254   -2363571.00945  -1256032.90561
  22458529.1924   -7590888.10447  -5882765.27662
 91  4 12 21 35  0.0010000  0  6G18G19G11G16G 6G 2
  22179557.060     7470318.064 7   5804260.10922
  21357051.9194    1531566.21146   1191827.03162
  23328460.1694   -2585002.49446  -1974949.07361
  24211786.9194   -1485706.20545  -1067347.00061
  24241996.4034   -2389793.31445  -1276465.69361
  22453430.8334   -7617686.32347  -5903646.91562
 91  4 12 21 35 15.0010000  0  6G18G19G11G16G 6G 2
  22188154.7084    7515492.76647   5839461.07562
  21359331.5134    1543550.75246   1201165.62362
  23329197.9744   -2581142.22146  -1971941.02961
  24211501.8724   -1487197.55445  -1068509.12861
  24237007.2394   -2416006.66145  -1296891.51061
  22448345.4424   -7644407.29847  -5924468.36262
 91  4 12 21 35 30.0010000  0  6G18G19G11G16G 6G 2
  22196767.942     7560761.104 7   5874735.00422
  21361625.856     1555587.769 6   1210545.10422
  23329958.4744   -2577126.72446  -1968812.05261
  24211241.833    -1488551.833 5  -1069564.45521
  24232023.739    -2442208.702 5  -1317308.50821
  22443276.833    -7671048.734 7  -5945227.84022
 91  4 12 21 35 45.0010000  0  6G18G19G11G16G 6G 2
  22205401.192     7606121.063 7   5910080.31222
  21363921.6854    1567675.55047   1219964.14462
  23330752.6694   -2572957.88246  -1965563.56161
  24211003.4584   -1489770.80845  -1070514.36461
  24227042.302    -2468401.297 5  -1337718.17121
  22438221.1534   -7697612.53847  -5965926.81962
 91  4 12 21 36  0.0010000  0  6G18G19G11G16G 6G 2
  22214049.247     7651571.027 7   5945495.76822
  21366235.3334    1579812.54446   1229421.52862
  23331575.536    -2568636.962 6  -1962196.59621
  24210803.716    -1490855.954 5  -1071359.97021
  24222055.5284   -2494585.99045  -1358121.62161
  22433180.2944   -7724099.86547  -5986566.20562
 91  4 12 21 36 15.0010000  0  6G18G19G11G16G 6G 2
  22222716.052     7697110.415 7   5980980.89322
  21368549.653     1591998.770 6   1238917.27622
  23332425.7084   -2564164.07646  -1958711.19461
  24210620.8884   -1491807.58345  -1072101.53661
  24217081.481    -2520762.955 5  -1378519.10221
  22428151.7084   -7750511.10147  -6007146.29962
 91  4 12 21 36 30.0010000  0  6G18G19G11G16G 6G 2
  22231397.8024    7742737.31547   6016534.20162
  21370883.2474    1604232.47046   1248450.02062
  23333308.4504   -2559540.77647  -1955108.59961
  24210470.692    -1492627.321 5  -1072740.33421
  24212094.481    -2546933.813 5  -1398911.82621
  22423141.8334   -7776847.76447  -6027668.28962
 91  4 12 21 36 45.0010000  0  6G18G19G11G16G 6G 2
  22240097.114     7788454.951 7   6052158.22522
  21373216.669     1616517.095 6   1258022.44122
  23334214.9114   -2554763.68846  -1951386.16261
  24210339.489    -1493311.984 5  -1073273.89921
  24207112.825    -2573095.451 5
  22418145.9584   -7803106.44547
 91  4 12 21 37  0.0010000  0  6G18G19G11G16G 6G 2
  22248815.067     7834261.254 7   6087851.34522
  21375567.9114    1628850.74146   1267633.06762
  23335150.778    -2549834.832 6  -1947545.47721
  24210230.7714   -1493863.50145  -1073703.71061
  24202140.4974   -2599249.87845
  22413164.0604   -7829289.06447
 91  4 12 21 37 15.0010000  0  6G18G19G11G16G 6G 2
  22257548.091     7880155.485 7   6123612.97822
  21377916.474     1641233.241 6   1277281.75522
  23336118.9664   -2544754.34646  -1943586.63261
  24210148.325    -1494282.204 5  -1074030.02021
  24197159.2084   -2625397.22945
  22408196.0604   -7855395.59347  -6088874.12362
 91  4 12 21 37 30.0010000  0  6G18G19G11G16G 6G 2
  22266298.466     7926137.784 7   6159443.22422
  21380289.3884    1653664.82046   1286968.69062
  23337116.5524   -2539522.04146  -1939509.48961
  24210094.716    -1494567.813 5  -1074252.62821
  24192187.7634   -2651537.35145
  22403242.692    -7881425.968 7  -6109157.45322
 91  4 12 21 37 45.0010000  0  6G18G19G11G16G 6G 2
  22275065.849     7972209.642 7   6195343.26222
  21382659.3104    1666147.17447   1296695.19162
  23338140.9194   -2534136.22847  -1935312.72561
  24210072.028    -1494718.974 5
  24187218.411    -2677668.859 5
  22398301.5364   -7907378.54147  -6129380.14662
 91  4 12 21 38  0.0010000  0  6G18G19G11G16G 6G 2
  22283847.9894    8018368.62947   6231311.18262
  21385047.6064    1678678.28946   1306459.68962
  23339195.966    -2528598.937 7  -1930997.93221
  24210064.622    -1494737.468 5
  24182242.6384   -2703793.72945
  22393378.4354   -7933255.41247  -6149543.85562
 91  4 12 21 38 15.0010000  0  6G18G19G11G16G 6G 2
  22292651.302     8064615.263 7   6267347.41522
  21387438.4744    1691259.06447   1316262.87962
  23340276.3104   -2522909.30347  -1926564.43261
  24210090.661    -1494622.631 5
  24177277.091    -2729911.082 5        -0.39731
  22388467.9584   -7959055.55547  -6169647.78062
 91  4 12 21 38 30.0010000  0  6G18G19G11G16G 6G 2
  22301466.185     8110948.877 7   6303451.41722
  21389843.2864    1703888.88146   1326104.28662
  23341388.661    -2517067.939 6  -1922012.70521
  24210130.138    -1494374.963 5
  24172302.021    -2756021.700 5    -20346.15521
  22383575.1774   -7984779.70547  -6189692.47562
 91  4 12 21 38 45.0010000  0  6G18G19G11G16G 6G 2
  22310299.138     8157372.414 7   6339625.49122
  21392255.1304    1716571.02747   1335986.47762
  23342531.013    -2511071.781 6  -1917340.34821
  24210204.1064   -1493992.01645
  24167339.567    -2782122.563 5    -40684.37121
  22378694.013    -8010424.766 7  -6209675.55622
 91  4 12 21 39  0.0010000  0  6G18G19G11G16G 6G 2
  22319152.825     8203882.690 7   6375867.15222
  21394681.2394    1729302.57846   1345907.15262
  23343697.622    -2504923.564 6  -1912549.51321
  24210299.1224   -1493476.36045  -1073402.45361
  24162377.200    -2808216.483 5    -61017.15321
  22373828.958    -8035993.534 7  -6229599.19822
 91  4 12 21 39 15.0010000  0  6G18G19G11G16G 6G 2
  22328020.1614    8250476.90847   6412174.21462
  21397110.755     1742080.971 7   1355864.33322
  23344898.505    -2498625.861 7  -1907642.19721
  24210425.474    -1492830.353 5  -1072899.11121
  24157412.099    -2834306.141 5    -81346.57521
  22368979.4114   -8061488.44947  -6249465.28262
 91  4 12 21 39 30.0010000  0  6G18G19G11G16G 6G 2
  22336903.2784    8297161.06847   6448551.36662
  21399550.6774    1754912.71146   1365863.08262
  23346127.083    -2492172.371 6  -1902613.48821
  24210577.0284   -1492048.23245  -1072289.72061
  24152449.771    -2860385.320 5   -101667.87221
  22364138.9194   -8086903.39847  -6269269.05262
 91  4 12 21 39 45.0010000  0  6G18G19G11G16G 6G 2
  22345802.1384    8343932.99547   6484996.90262
  21402001.599     1767795.719 7   1375901.78022
  23347382.771    -2485564.973 6  -1897464.85121
  24210752.4664   -1491132.03745  -1071575.86261
  24147484.5674   -2886456.06545   -121982.57761
  22359317.239    -8112240.158 7  -6289011.89322
 91  4 12 21 40  0.0010000  0  6G18G19G11G16G 6G 2
  22354720.5994    8390789.19347   6521508.10562
  21404464.099     1780726.710 6   1385977.86722
  23348669.474    -2478806.939 6  -1892198.84321
  24210951.950    -1490084.656 5  -1070759.75821
  24142521.560    -2912521.588 5   -142293.23321
  22354512.216    -8137502.023 7  -6308696.38322
 91  4 12 21 40 15.0010000  0  6G18G19G11G16G 6G 2
  22363652.4894    8437727.92147   6558083.62062
  21406932.974     1793704.524 6   1396090.43322
  23349984.981    -2471899.626 6  -1886816.50721
  24211173.5054   -1488907.49945  -1069842.54461
  24137564.013    -2938583.297 5   -162600.89821
  22349720.356    -8162690.216 7  -6328323.46822
 91  4 12 21 40 30.0010000  0  6G18G19G11G16G 6G 2
  22372600.2474    8484748.90747   6594723.23662
  21409412.122     1806728.962 6   1406239.33622
  23351328.239    -2464843.173 7  -1881317.95621
  24211420.1144   -1487601.00445  -1068824.56661
  24132608.333    -2964641.507 5   -182905.84521
  22344936.981    -8187804.930 7  -6347893.29622
 91  4 12 21 40 45.0010000  0  6G18G19G11G16G 6G 2
  22381563.8024    8531854.24747   6631428.58262
  21411898.685     1819802.427 6   1416426.43922
  23352695.778    -2457635.309 6  -1875701.42321
  24211691.0834   -1486163.08345  -1067704.16861
  24127648.0214   -2990693.85945   -203206.21961
  22340176.122    -8212843.956 7  -6367404.14822
 91  4 12 21 41  0.0010000  0  6G18G19G11G16G 6G 2
  22390541.8644    8579041.07247   6668197.41662
  21414397.5834    1832922.59446   1426649.93362
  23354097.466    -2450278.442 7  -1869968.79021
  24211990.5994   -1484596.17245  -1066483.22161
  24122693.8254   -3016742.97445   -223504.07261
  22335423.567    -8237809.631 7  -6386857.83622
 91  4 12 21 41 15.0010000  0  6G18G19G11G16G 6G 2
  22399536.7944    8626308.18347   6705028.81262
  21416901.817     1846088.499 7   1436909.06422
  23355529.864    -2442773.544 7  -1864120.79921
  24212316.489    -1482901.269 5  -1065162.57321
  24117735.927    -3042789.783 5   -243800.13221
  22330686.567    -8262702.935 7  -6406255.13122
 91  4 12 21 41 30.0010000  0  6G18G19G11G16G 6G 2
  22408548.8174    8673661.59347   6741927.45162
  21419418.8564    1859306.41546   1447208.72862
  23356984.005    -2435114.332 7  -1858152.57021
  24212664.856    -1481072.370 5  -1063737.50721
  24112779.2084   -3068828.07445   -264089.55761
  22325962.208    -8287517.568 7  -6425591.12922
 91  4 12 21 41 45.0010000  0  6G18G19G11G16G 6G 2
  22417577.2394    8721094.17547   6778887.78262
  21421939.060     1872569.231 7   1457543.37422
  23358470.0754   -2427308.05246  -1852069.74861
  24213042.2314   -1479116.54545  -1062213.54661
  24107824.6774   -3094865.05145   -284377.94661
  22321254.466    -8312260.623 7  -6444871.35222
 91  4 12 21 42  0.0010000  0  6G18G19G11G16G 6G 2
  22426616.2784    8768609.99147   6815912.97562
  21424478.185     1885881.533 6   1467916.58422
  23359982.185    -2419350.201 7  -1845868.80921
  24213438.521    -1477029.441 5  -1060587.28721
  24102873.974    -3120896.459 5   -304662.01121
  22316563.278    -8336927.634 7  -6464092.32122
 91  4 12 21 42 15.0010000  0  6G18G19G11G16G 6G 2
  22435674.9974    8816209.57647   6853003.43762
  21427016.536     1899244.141 7   1478328.98922
  23361526.599    -2411239.966 6  -1839549.13421
  24213860.099    -1474810.458 5  -1058858.26421
  24097923.075    -3146921.367 5   -324941.00021
  22311882.810    -8361517.714 7  -6483253.34822
 91  4 12 21 42 30.0010000  0  6G18G19G11G16G 6G 2
  22444747.817     8863892.841 7   6890159.11122
  21429570.950     1912657.269 6   1488780.75922
  23363099.372    -2402977.217 7  -1833110.61821
  24214298.9194   -1472459.38045  -1057026.33461
  24092968.2004   -3172939.70045   -345214.89661
  22307215.708    -8386030.908 7  -6502354.46422
 91  4 12 21 42 45.0010000  0  6G18G19G11G16G 6G 2
  22453839.1774    8911655.70247   6927376.79762
  21432130.450     1926117.056 7   1499268.88322
  23364699.364    -2394565.793 7  -1826556.24221
  24214772.231    -1469980.175 5  -1055094.53821
  24088017.153    -3198955.407 5   -365486.73321
  22302565.896    -8410470.946 7  -6521398.57322
 91  4 12 21 43  0.0010000  0  6G18G19G11G16G 6G 2
  22462942.1304    8959499.79447   6964657.78762
  21434704.294     1939625.533 6   1509794.95722
  23366330.075    -2386003.709 7  -1819884.46221
  24215271.286    -1467370.790 5  -1053061.31021
  24083067.317    -3224966.604 5   -385755.04121
  22297928.919    -8434835.883 7  -6540384.16022
 91  4 12 21 43 15.0010000  0  6G18G19G11G16G 6G 2
  22472064.3334    9007428.72247   7002004.88262
  21437279.958     1953186.567 7   1520361.98122
  23367986.435    -2377287.101 6  -1813092.28721
  24215792.7864   -1464627.80445  -1050923.97461
  24078120.661    -3250969.477 5   -406016.86321
  22293309.231    -8459121.901 7  -6559308.24922
 91  4 12 21 43 30.0010000  0  6G18G19G11G16G 6G 2
  22481197.6774    9055438.98247   7039415.35462
  21439872.364     1966796.901 6   1530967.42522
  23369676.396    -2368419.546 6  -1806182.48421
  24216346.0364   -1461754.50145  -1048685.09261
  24073176.5754   -3276967.46545   -426274.88561
  22288701.8964   -8483332.30147  -6578173.42562
 91  4 12 21 43 45.0010000  0  6G18G19G11G16G 6G 2
  22490350.7864    9103531.37147   7076889.80762
  21442470.028     1980457.536 7   1541612.06322
  23371390.614    -2359399.913 6  -1799154.18521
  24216916.1694   -1458749.94245  -1046343.93461
  24068225.810    -3302959.487 5   -446528.25921
  22284110.200    -8507466.042 7  -6596978.86022
 91  4 12 21 44  0.0010000  0  6G18G19G11G16G 6G 2
  22499517.1534    9151706.63047   7114428.85862
  21445082.419     1994169.751 6   1552296.89022
  23373137.6224   -2350226.93447  -1792006.38961
  24217512.9744   -1455612.98745  -1043899.61161
  24063278.0754   -3328944.46545   -466776.15161
  22279532.5134   -8531521.90247  -6615723.61362
 91  4 12 21 44 15.0010000  0  6G18G19G11G16G 6G 2
  22508702.724     9199961.158 7   7152029.65622
  21447698.927     2007930.020 7   1563019.16522
  23374912.911    -2340904.152 7  -1784741.87621
  24218135.669    -1452347.099 5  -1041354.81521
  24058338.810    -3354925.941 5   -487021.30321
  22274967.247    -8555503.312 7  -6634410.34922
 91  4 12 21 44 30.0010000  0  6G18G19G11G16G 6G 2
  22517900.4744    9248299.03547   7189695.40962
  21450330.3024    2021742.85346   1573782.39962
  23376713.036    -2331427.309 7  -1777357.30021
  24218774.013    -1448948.205 5  -1038706.38221
  24053395.255    -3380899.602 5   -507260.39321
  22270419.005    -8579405.971 7  -6653035.71922
 91  4 12 21 44 45.0010000  0  6G18G19G11G16G 6G 2
  22527113.950     9296716.618 7   7227423.26622
  21452965.739     2035604.898 6   1584583.98022
  23378547.544    -2321799.801 7  -1769855.32821
  24219452.708    -1445420.005 5  -1035957.21121
  24048451.9194   -3406868.83745   -527496.01361
  22265885.685    -8603233.236 7  -6671602.33822
 91  4 12 21 45  0.0010000  0  6G18G19G11G16G 6G 2
  22536342.3644    9345213.81147   7265213.17162
  21455613.771     2049516.041 6   1595423.82122
  23380407.567    -2312021.683 7  -1762235.99721
  24220146.021    -1441762.546 5  -1033107.29421
  24043507.4504   -3432833.86545   -547728.37561
  22261364.849    -8626985.158 7  -6690110.25022
 91  4 12 21 45 15.0010000  0  6G18G19G11G16G 6G 2
  22545584.4034    9393790.87147   7303065.29662
  21458269.833     2063476.984 7   1606302.46422
  23382293.755    -2302092.279 6  -1754498.78421
  24220870.0054   -1437975.07945  -1030156.07461
  24038571.091    -3458794.074 5   -567956.99821
  22256858.802    -8650661.134 7  -6708558.98922
 91  4 12 21 45 30.0010000  0  6G18G19G11G16G 6G 2
  22554844.9034    9442446.02447   7340978.27062
  21460940.4664    2077486.53246   1617218.98162
  23384215.419    -2292012.931 7  -1746644.73021
  24221614.856    -1434059.092 5  -1027104.72521
  24033633.333    -3484750.754 5   -588182.84821
  22252368.794    -8674262.512 7  -6726949.59222
 91  4 12 21 45 45.0010000  0  6G18G19G11G16G 6G 2
  22564118.138     9491181.851 7   7378954.10622
  21463611.200     2091547.580 7   1628175.63322
  23386162.208    -2281780.870 6  -1738671.68321
  24222382.9194   -1430011.77345  -1023951.03261
  24028692.3644   -3510701.06545   -608403.73261
  22247892.606    -8697786.267 7  -6745279.71922
 91  4 12 21 46  0.0010000  0  6G18G19G11G16G 6G 2
  22573409.786     9540005.227 7   7416998.16922
  21466297.7864    2105667.20146   1639177.92462
  23388139.521    -2271389.116 6  -1730574.18721
  24223183.5134   -1425826.03345  -1020689.46861
  24023761.630    -3536638.053 5   -628614.22621
  22243430.763    -8721225.554 7  -6763544.02122
 91  4 12 21 46 15.0010000  0  6G18G19G11G16G 6G 2
  22582718.6854    9588909.50147   7455105.27162
  21468996.435     2119839.022 7   1650220.88422
  23390144.458    -2260844.039 6  -1722357.23221
  24223997.7394   -1421508.50145  -1017325.23461
  24018826.185    -3562568.085 5   -648819.29821
  22238986.646    -8744586.507 7  -6781747.28522
 91  4 12 21 46 30.0010000  0  6G18G19G11G16G 6G 2
  22592038.700     9637895.597 7   7493276.11822
  21471702.6534    2134064.08846   1661305.34262
  23392182.802    -2250144.576 6  -1714019.97221
  24224843.3804   -1417058.49845  -1013857.78261
  24013892.7474   -3588490.24945   -669018.23561
  22234557.497    -8767868.153 7  -6799888.76022
 91  4 12 21 46 45.0010000  0  6G18G19G11G16G 6G 2
  22601375.950     9686962.944 7   7531510.28322
  21474418.427     2148342.664 7   1672431.49322
  23394248.1464   -2239290.88747  -1705562.54961
  24225719.7944   -1412476.07645  -1010287.11261
  24008966.778    -3614404.648 5   -689211.15021
  22230139.435    -8791070.617 7  -6817968.52822
 91  4 12 21 47  0.0010000  0  6G18G19G11G16G 6G 2
  22610726.911     9736115.920 7   7569811.17322
  21477152.481     2162679.056 6   1683602.69422
  23396342.325    -2228278.586 7  -1696981.50921
  24226616.1384   -1407757.00845  -1006609.97661
  24004029.8564   -3640306.96545   -709394.65061
  22225741.263    -8814189.490 7  -6835983.15322
 91  4 12 21 47 15.0010000  0  6G18G19G11G16G 6G 2
  22620096.7714    9785349.33047   7608174.74662
  21479885.0364    2177068.21047   1694815.00962
  23398466.4504   -2217112.81547  -1688280.90761
  24227542.778    -1402906.128 5  -1002830.13521
  23999107.771    -3666202.175 5   -729572.60321
  22221357.185    -8837229.829 7  -6853936.59422
 91  4 12 21 47 30.0010000  0  6G18G19G11G16G 6G 2
  22629483.2474    9834663.63547   7646601.34261
  21482635.0604    2191511.15646   1706069.24462
  23400621.153    -2205792.596 6  -1679459.93621
  24228490.3024   -1397922.82345   -998947.11961
  23994176.724    -3692089.432 5   -749744.35021
  22216985.888    -8860190.645 7  -6871828.06122
 91  4 12 21 47 45.0010000  0  6G18G19G11G16G 6G 2
  22638882.622     9884055.799 7   7685088.61621
  21485393.5284    2206005.26247   1717363.34262
  23402804.849    -2194320.612 6  -1670520.70821
  24229462.888    -1392809.818 5   -994962.99621
  23989251.5524   -3717971.40245   -769911.98361
  22212633.919    -8883074.570 7  -6889659.61622
 91  4 12 21 48  0.0010000  0  6G18G19G11G16G 6G 2
  22648297.4664    9933530.59347   7723640.27762
  21488164.411     2220555.465 6   1728701.15222
  23405017.4584   -2182691.95547  -1661459.39661
  24230460.5834   -1387562.42445   -990874.19161
  23984329.9114   -3743843.26045   -790071.74961
  22208293.606    -8905876.668 7  -6907427.41322
 91  4 12 21 48 15.0010000  0  6G18G19G11G16G 6G 2
  22657728.646     9983083.973 7   7762253.16521
  21490937.810     2235157.855 7   1740079.62322
  23407261.692    -2170910.477 7  -1652279.00421
  24231485.989    -1382184.371 5   -986683.58021
  23979406.700    -3769708.726 5   -810226.52521
  22203965.997    -8928600.740 7  -6925134.40723
 91  4 12 21 48 30.0010000  0  6G18G19G11G16G 6G 2
  22667171.888    10032715.326 7   7800926.81321
  21493732.138     2249812.166 6   1751498.55222
  23409531.6924   -2158976.91547  -1642980.10361
  24232532.4194   -1376676.28345   -982391.62761
  23974485.0524   -3795568.52045   -830376.88661
  22199659.606    -8951247.365 7  -6942781.05123
 91  4 12 21 48 45.0010000  0  6G18G19G11G16G 6G 2
  22676629.8494   10082427.61247   7839663.52761
  21496528.9504    2264521.81647   1762960.60762
  23411829.497    -2146887.932 6  -1633560.08321
  24233608.544    -1371035.214 5   -977996.06121
  23969568.356    -3821419.341 5   -850520.25221
  22195367.646    -8973813.276 7  -6960364.80322
 91  4 12 21 49  0.0010000  0  6G18G19G11G16G 6G 2
  22686104.8564   10132217.91247   7878461.03961
  21499341.0444    2279284.34646   1774463.87162
  23414159.403    -2134646.067 6  -1624020.95221
  24234702.849    -1365263.496 5   -973498.67521
  23964652.021    -3847263.662 5   -870658.55421
  22191086.0054   -8996300.82047  -6977887.49363
 91  4 12 21 49 15.0010000  0  6G18G19G11G16G 6G 2
  22695595.3644   10182089.24247   7917321.69461
  21502156.450     2294102.968 7   1786010.82722
  23416522.341    -2122248.315 7  -1614360.35021
  24235828.700    -1359358.385 5   -968897.33321
  23959730.6534   -3873098.48145   -890789.46461
  22186821.817    -9018707.056 7  -6995346.82123
 91  4 12 21 49 30.0010000  0  6G18G19G11G16G 6G 2
  22705102.403    10232038.482 7   7956243.03921
  21504990.388     2308974.691 6   1797599.16622
  23418906.7944   -2109697.48546  -1604580.46061
  24236976.4504   -1353322.63145   -964194.21661
  23954818.8024   -3898926.53645   -910915.10361
  22182574.0364   -9041034.61747  -7012744.84963
 91  4 12 21 49 45.0010000  0  6G18G19G11G16G 6G 2
  22714622.6534   10282064.18647   7995223.98061
  21507826.489     2323898.615 7   1809228.18622
  23421325.833    -2096994.765 7  -1594682.21621
  24238152.450    -1347157.725 5   -959390.45121
  23949901.942    -3924749.174 5   -931036.49721
  22178338.372    -9063284.642 7  -7030082.45923
 91  4 12 21 50  0.0010000  0  6G18G19G11G16G 6G 2
  22724152.388    10332168.307 6   8034266.02521
  21510678.7314    2338876.94546   1820899.59862
  23423771.810    -2084137.983 7  -1584663.93221
  24239349.474    -1340861.575 5   -954484.41321
  23944985.755    -3950564.183 5   -951151.98121
  22174119.099    -9085455.283 7  -7047358.20323
 91  4 12 21 50 15.0010000  0  6G18G19G11G16G 6G 2
  22733703.7864   10382351.11046   8073369.38261
  21513538.856     2353910.073 7   1832613.70722
  23426247.521    -2071126.813 7  -1574525.33521
  24240576.396    -1334433.959 5   -949475.94221
  23940079.9424   -3976371.15845   -971261.19861
  22169914.7474   -9107545.76547  -7064571.49663
 91  4 12 21 50 30.0010000  0  6G18G19G11G16G 6G 2
  22743269.552    10432611.167 7   8112532.92522
  21516412.5914    2368997.14746   1844369.85462
  23428753.036    -2057962.110 7  -1564267.11321
  24241822.466    -1327875.776 5   -944365.76121
  23935164.825    -4002170.976 5   -991364.83721
  22165727.411    -9129557.082 7  -7081723.09723
 91  4 12 21 50 45.0010000  0  6G18G19G11G16G 6G 2
  22752848.255    10482947.704 6   8151756.07521
  21519288.661     2384137.627 7   1856167.62122
  23431287.724    -2044644.688 7  -1553889.87921
  24243095.5134   -1321187.83945   -939154.43861
  23930256.9274   -4027964.38945  -1011463.48961
  22161553.278    -9151489.816 7  -7098813.46923
 91  4 12 21 51  0.0010000  0  6G18G19G11G16G 6G 2
  22762442.8024   10533361.02446   8191039.05061
  21522180.200     2399332.055 6   1868007.41422
  23433851.7714   -2031174.02947  -1543393.26161
  24244389.3724   -1314369.79745   -933841.74961
  23925352.5524   -4053750.97845  -1031556.80561
  22157397.661    -9173343.551 7  -7115842.27923
 91  4 12 21 51 15.0010000  0  6G18G19G11G16G 6G 2
  22772048.864    10583850.302 7   8230381.21121
  21525079.583     2414580.031 7   1879888.93722
  23436442.224    -2017550.757 6  -1532777.69821
  24245707.966    -1307422.088 5   -928428.01421
  23920444.5214   -4079531.23045  -1051645.19861
  22153251.044    -9195118.863 7  -7132809.98223
 91  4 12 21 51 30.0010000  0  6G18G19G11G16G 6G 2
  22781670.474    10634415.347 6   8269782.41421
  21527994.606     2429881.713 7   1891812.30822
  23439067.708    -2003774.791 7  -1522043.16921
  24247055.6614   -1300344.72745   -922913.25961
  23915540.9744   -4105305.10045  -1071728.62161
  22149123.325    -9216815.666 7  -7149716.51323
 91  4 12 21 51 45.0010000  0  6G18G19G11G16G 6G 2
  22791307.333    10685056.039 6   8309242.56521
  21530916.450     2445237.249 7   1903777.64122
  23441716.599    -1989846.145 6  -1511189.66221
  24248428.5444   -1293137.83645   -917297.56661
  23910637.380    -4131072.389 5  -1091806.90021
  22145006.396    -9238433.757 7  -7166561.70423
 91  4 12 21 52  0.0010000  0  6G18G19G11G16G 6G 2
  22800959.575    10735773.254 6   8348762.32521
  21533849.325     2460647.796 7   1915785.84522
  23444393.8024   -1975763.77846  -1500216.38661
  24249828.763    -1285800.764 5   -911580.44321
  23905740.974    -4156832.196 5  -1111879.35721
  22140910.263    -9259972.085 7  -7183344.74623
 91  4 12 21 52 15.0010000  0  6G18G19G11G16G 6G 2
  22810624.552    10786566.336 6   8388341.21621
  21536793.896     2476113.034 7   1927836.66622
  23447104.942    -1961528.245 7  -1489123.74621
  24251244.521    -1278333.701 5   -905762.01221
  23900840.4504   -4182584.87745  -1131946.27661
  22136826.114    -9281431.093 7  -7200065.97623
 91  4 12 21 52 30.0010000  0  6G18G19G11G16G 6G 2
  22820304.349    10837434.836 6   8427978.87721
  21539748.513     2491632.715 6   1939929.90622
  23449838.786    -1947139.838 6  -1477911.98021
  24252690.083    -1270737.029 5   -899842.62121
  23895934.1464   -4208330.70545  -1152007.86361
  22132759.7784   -9302810.88947  -7216725.48963
 91  4 12 21 52 45.0010000  0  6G18G19G11G16G 6G 2
  22830001.5524   10888378.66947   8467675.23761
  21542707.1224    2507207.00147   1952065.70162
  23452607.302    -1932598.346 6  -1466580.93621
  24254166.349    -1263010.927 5   -893822.32821
  23891035.310    -4234069.565 5  -1172064.00821
  22128706.060    -9324111.450 7  -7233323.25623
 91  4 12 21 53  0.0010000  0  6G18G19G11G16G 6G 2
  22839710.7784   10939397.64347   8507430.14361
  21545685.903     2522836.192 6   1964244.27522
  23455406.060    -1917903.660 6  -1455130.51721
  24255656.4354   -1255155.05145   -887700.94961
  23886140.552    -4259801.280 5  -1192114.58821
  22124668.739    -9345332.431 7  -7249859.01523
 91  4 12 21 53 15.0010000  0  6G18G19G11G16G 6G 2
  22849430.903    10990486.894 7   8547239.80421
  21548666.474     2538515.994 7   1976462.28722
  23458228.8724   -1903060.45446  -1443564.38461
  24257180.3024   -1247174.30845   -881482.28061
  23881242.575    -4285530.359 5  -1212163.09921
  22120641.356    -9366478.316 7  -7266336.25423
 91  4 12 21 53 30.0010000  0  6G18G19G11G16G 6G 2
  22859168.497    11041653.773 7   8587109.96021
  21551664.349     2554253.965 6   1988725.62322
  23461081.8884   -1888061.17446  -1431876.62661
  24258717.7314   -1239061.31445   -875160.55161
  23876347.286    -4311249.245 5  -1232203.68521
  22116635.2314   -9387541.66447  -7282749.18663
 91  4 12 21 53 45.0010000  0  6G18G19G11G16G 6G 2
  22868919.294    11092893.755 6   8627037.08521
  21554664.692     2570045.850 7   2001030.97022
  23463964.9424   -1872910.29446  -1420070.74561
  24260290.536    -1230820.503 5   -868739.20121
  23871454.3724   -4336962.35545  -1252239.74961
  22112641.200    -9408526.864 7  -7299101.21522
 91  4 12 21 54  0.0010000  0  6G18G19G11G16G 6G 2
  22878681.4664   11144208.08946   8667022.13361
  21557685.536     2585892.982 6   2013379.36922
  23466876.6534   -1857606.36646  -1408145.59561
  24261882.677    -1222450.425 5   -862217.13621
  23866568.7244   -4362668.30545  -1272270.23761
  22108663.3334   -9429432.30447  -7315391.09863
 91  4 12 21 54 15.0010000  0  6G18G19G11G16G 6G 2
  22888460.958    11195593.018 6   8707062.20121
  21560709.911     2601792.222 7   2025768.37222
  23469817.7554   -1842152.95146  -1396103.97061
  24263503.403    -1213954.458 5   -855596.98821
  23861675.0604   -4388370.40545  -1292297.72961
  22104698.2944   -9450261.47647  -7331621.55462
 91  4 12 21 54 30.0010000  0  6G18G19G11G16G 6G 2
  22898254.489    11247053.440 6   8747161.08521
  21563744.372     2617748.586 6   2038201.89022
  23472791.747    -1826544.912 6  -1383941.84821
  24265142.372    -1205327.756 5   -848874.96021
  23856788.005    -4414063.529 5  -1312318.24621
  22100750.505    -9471009.269 7  -7347788.58822
 91  4 12 21 54 45.0010000  0  6G18G19G11G16G 6G 2
  22908061.567    11298585.734 6   8787315.98321
  21566789.130     2633758.885 6   2050677.43222
  23475791.7004   -1810785.56446  -1371661.83061
  24266808.731    -1196573.817 5   -842053.78821
  23851894.9034   -4439750.93745  -1332334.26961
  22096815.708    -9491678.960 7  -7363894.77023
 91  4 12 21 55  0.0010000  0  6G18G19G11G16G 6G 2
  22917882.294    11350194.322 6   8827530.32521
  21569849.458     2649828.000 6   2063198.80122
  23478817.396    -1794870.301 6  -1359260.31221
  24268498.458    -1187688.108 5   -835129.95121
  23847013.8804   -4465427.99845  -1352342.25861
  22092899.552    -9512265.728 7  -7379936.33422
 91  4 12 21 55 15.0010000  0  6G18G19G11G16G 6G 2
  22927715.239    11401874.342 6   8867800.32621
  21572915.278     2665951.269 7
  23481872.435    -1778803.967 6
  24270211.2004   -1178675.48445   -828107.18861
  23842129.4744   -4491099.43145  -1372345.83861
  22088996.606    -9532774.220 7  -7395916.90422
 91  4 12 21 55 30.0010000  0  6G18G19G11G16G 6G 2
  22937563.349    11453624.073 6   8908124.65421
  21575999.3174    2682127.70946
  23484963.630    -1762587.906 6
  24271947.8494   -1169537.46945   -820986.75361
  23837245.9354   -4516766.60745  -1392346.11361
  22085108.3564   -9553205.95447  -7411837.66763
 91  4 12 21 55 45.0010000  0  6G18G19G11G16G 6G 2
  22947424.013    11505442.476 6   8948502.49721
  21579082.802     2698356.116 7   2101012.86922
  23488073.7864   -1746223.10646  -1321353.40561
  24273714.052    -1160274.803 5   -813769.18121
  23832358.6614   -4542430.46345  -1412343.80561
  22081235.3254   -9573561.94147  -7427699.40762
 91  4 12 21 56  0.0010000  0  6G18G19G11G16G 6G 2
  22957299.0054   11557332.47246   8988936.10561
  21582181.950     2714639.781 7   2113701.42422
  23491220.200    -1729706.552 6  -1308483.34021
  24275495.5134   -1150884.71145   -806452.29461
  23827470.966    -4568087.906 5  -1432336.47621
  22077377.5524   -9593838.94847  -7443499.60162
 91  4 12 21 56 15.0010000  0  6G18G19G11G16G 6G 2
  22967187.5834   11609292.73646   9029424.48261
  21585290.708     2730977.648 7   2126432.21022
  23494387.2554   -1713039.39646  -1295495.94461
  24277310.5994   -1141368.37545   -799037.07061
  23822597.403    -4593739.947 5  -1452324.95521
  22073533.3104   -9614037.91747  -7459238.98962
 91  4 12 21 56 30.0010000  0  6G18G19G11G16G 6G 2
  22977089.036    11661324.687 6   9069968.71421
  21588413.958     2747371.826 7   2139206.87722
  23497589.567    -1696219.816 6  -1282389.76421
  24279139.6854   -1131724.12445   -791522.14961
  23817709.700    -4619384.742 5  -1472307.76521
  22069704.8024   -9634157.10947  -7474916.21862
 91  4 12 21 56 45.0010000  0  6G18G19G11G16G 6G 2
  22987003.278    11713420.269 6   9110562.53121
  21591539.778     2763814.288 7   2152019.16422
  23500820.3334   -1679255.91446  -1269171.12961
  24281005.6924   -1121960.15245   -783913.93161
  23812835.8724   -4645030.32745  -1492291.21161
  22065889.6774   -9654204.50647  -7490537.49262
 91  4 12 21 57  0.0010000  0  6G18G19G11G16G 6G 2
  22996927.208    11765586.319 6   9151211.26721
  21594681.849     2780312.057 6   2164874.55222
  23504075.1924   -1662140.77946  -1255834.65761
  24282880.9194   -1112069.52145   -776207.03361
  23807953.1224   -4670669.67345  -1512269.77461
  22062089.9114   -9674173.08947  -7506097.36662
 91  4 12 21 57 15.0010000  0  6G18G19G11G16G 6G 2
  23006867.794    11817822.038 6   9191914.27621
  21597828.419     2796864.909 7   2177772.86122
  23507361.8174   -1644874.92246  -1242380.73861
  24284795.177    -1102052.562 5   -768401.70221
  23803071.0754   -4696303.22145  -1532243.84161
  22058304.2714   -9694063.27247  -7521596.14162
 91  4 12 21 57 30.0010000  0  6G18G19G11G16G 6G 2
  23016821.6924   11870127.99746   9232672.02061
  21600992.364     2813473.812 7   2190714.84322
  23510673.8564   -1627457.43646  -1228808.67061
  24286721.677    -1091908.636 5   -760497.43721
  23798200.7394   -4721929.96745  -1552212.60561
  22054532.9034   -9713874.05847  -7537033.05162
 91  4 12 21 57 45.0010000  0  6G18G19G11G16G 6G 2
  23026788.052    11922501.300 6   9273482.24521
  21604160.560     2830136.279 7   2203698.57022
  23514019.606    -1609891.039 6  -1215120.55721
  24288675.817    -1081640.529 5   -752496.39821
  23793325.8494   -4747552.55845  -1572178.11161
  22050779.5524   -9733607.98247  -7552410.07962
 91  4 12 21 58  0.0010000  0  6G18G19G11G16G 6G 2
  23036769.0754   11974944.16246   9314346.65761
  21607348.153     2846854.371 6   2216725.63722
  23517387.7714   -1592173.76946  -1201314.89161
  24290657.6304   -1071246.48845   -744397.23161
  23788448.8254   -4773168.78045  -1592138.68261
  22047036.6924   -9753263.05047  -7567725.65163
 91  4 12 21 58 15.0010000  0  6G18G19G11G16G 6G 2
  23046762.6924   12027453.30046   9355262.71261
  21610533.833     2863625.503 7   2229794.03922
  23520790.0134   -1574308.38046  -1187393.80661
  24292658.6534   -1060729.17245   -736202.00661
  23783579.372    -4798781.552 6  -1612096.54821
  22043312.7084   -9772841.96147  -7582981.88762
 91  4 12 21 58 30.0010000  0  6G18G19G11G16G 6G 2
  23056767.6464   12080030.70146   9396231.97261
  21613737.231     2880451.887 7   2242905.48422
  23524217.3804   -1556292.68446  -1173355.60961
  24294686.091    -1050086.199 5   -727908.88221
  23778702.458    -4824388.399 5  -1632049.79521
  22039602.1854   -9792342.45147  -7598177.01062
 91  4 12 21 58 45.0010000  0  6G18G19G11G16G 6G 2
  23066786.2164   12132671.02546   9437250.24861
  21616945.606     2897328.381 7   2256055.97922
  23527672.0754   -1538132.00446  -1159204.41861
  24296731.888    -1039323.328 5   -719522.32121
  23773829.9584   -4849994.81346  -1652002.71461
  22035903.7714   -9811769.77047  -7613315.11662
 91  4 12 21 59  0.0010000  0  6G18G19G11G16G 6G 2
  23076813.724    12185377.289 6   9478319.91621
  21620170.208     2914258.667 6   2269248.39422
  23531158.3564   -1519822.99946  -1144937.66861
  24298802.3254   -1028437.23145   -711039.72961
  23768957.567    -4875597.139 5  -1671952.44721
  22032220.3964   -9831120.44647  -7628393.49962
 91  4 12 21 59 15.0010000  0  6G18G19G11G16G 6G 2
  23086857.7474   12238149.74246   9519441.16361
  21623401.630     2931242.970 7   2282482.89922
  23534667.3564   -1501365.59446  -1130555.26861
  24300888.646    -1017427.928 5   -702461.14121
  23764085.864    -4901195.244 5  -1691898.88221
  22028554.4114   -9850394.07747  -7643411.84862
 91  4 12 21 59 30.0010000  0  6G18G19G11G16G 6G 2
  23096911.2474   12290985.43646   9560611.68261
  21626647.864     2948279.025 6   2295757.73322
  23538211.0364   -1482762.31446  -1116059.20661
  24303012.450    -1006297.847 5   -693788.43621
  23759214.872    -4926791.630 5  -1711843.98921
  22024901.8024   -9869593.25347  -7658372.18262
 91  4 12 21 59 45.0010000  0  6G18G19G11G16G 6G 2
  23106980.317    12343886.955 6   9601833.48521
  21629893.638     2965369.710 7   2309075.13322
  23541780.622    -1464010.382 6  -1101447.29521
  24305155.9744    -995044.16445   -685019.42561
  23754342.6064   -4952383.25045  -1731785.38261
  22021261.3104   -9888715.23647  -7673272.36762
 91  4 12 22  0  0.0010000  0  6G18G19G11G16G 6G 2
  23117057.7004   12396858.11546   9643109.57061
  21633155.692     2982519.065 7   2322438.25522
  23545376.4584   -1445105.89946  -1086716.52461
  24307318.888     -983663.362 5   -676151.35721
  23749476.1064   -4977966.42646  -1751720.20261
  22017639.9194   -9907756.02347  -7688109.28362
 91  4 12 22  0 15.0010000  0  6G18G19G11G16G 6G 2
  23127149.9034   12449896.75646   9684438.22061
  21636434.810     2999725.307 6   2335845.70022
  23549003.4194   -1426050.87246  -1071868.46061
  24309513.4354    -972157.46445   -667185.80761
  23744609.958    -5003542.780 5  -1771649.68421
  22014030.6224   -9926717.46047  -7702884.36662
 91  4 12 22  0 30.0010000  0  6G18G19G11G16G 6G 2
  23137255.5604   12503001.16046   9725818.13361
  21639721.919     3016986.834 6   2349296.22622
  23552652.5754   -1406847.04846  -1056904.43361
  24311725.8254    -960528.15645   -658124.10561
  23739743.8884   -5029113.92946  -1791575.14861
  22010439.0134   -9945601.03847  -7717598.78062
 91  4 12 22  0 45.0010000  0  6G18G19G11G16G 6G 2
  23147371.880    12556169.272 6   9767247.66421
  21643014.630     3034302.074 7   2362788.59422
  23556338.7394   -1387496.16946  -1041825.82861
  24313964.8414    -948777.08245   -648967.49261
  23734879.7004   -5054681.61646  -1811497.88661
  22006857.0214   -9964408.56747  -7732253.93662
 91  4 12 22  1  0.0010000  0  6G18G19G11G16G 6G 2
  23157500.6224   12609401.09546   9808726.86361
  21646323.685     3051671.413 6   2376323.12622
  23560047.0834   -1367998.10446  -1026632.52561
  24316220.4274    -936904.38545   -639716.14261
  23730014.9194   -5080245.64646  -1831417.78261
  22003293.6854   -9983139.86547  -7746849.68962
 91  4 12 22  1 15.0010000  0  6G18G19G11G16G 6G 2
  23167644.646    12662697.468 6   9850256.34421
  21649637.880     3069096.241 6   2389900.89622
  23563787.5364   -1348351.76546  -1011323.68661
  24318505.669     -924909.250 5   -630369.35821
  23725147.091    -5105804.834 5  -1851333.91921
  21999743.6614  -10001793.61247  -7761385.01462
 91  4 12 22  1 30.0010000  0  6G18G19G11G16G 6G 2
  23177798.661    12716056.256 6   9891834.46521
  21652961.966     3086574.718 6   2403520.46722
  23567553.4584   -1328558.99246   -995900.75661
  24320811.700     -912793.093 5   -620928.28821
  23720280.6304   -5131360.84845  -1871247.58761
  21996209.1774  -10020371.68847  -7775861.37662
 91  4 12 22  1 45.0010000  0  6G18G19G11G16G 6G 2
  23187965.708    12769477.626 6   9933461.35821
  21656300.474     3104106.979 7   2417181.95222
  23571347.3494   -1308619.77646   -980363.69961
  24323139.5914    -900556.20245   -611393.14161
  23715423.1384   -5156913.48745  -1891158.59961
  21992687.3104  -10038873.92147  -7790278.63963
 91  4 12 22  2  0.0010000  0  6G18G19G11G16G 6G 2
  23198143.708    12822960.968 6   9975136.53721
  21659648.872     3121693.328 6   2430885.58222
  23575167.5754   -1288534.23646   -964712.62161
  24325489.958     -888198.713 5   -601764.01621
  23710563.028    -5182462.772 5  -1911067.00821
  21989182.8024  -10057300.28947  -7804636.77862
 91  4 12 22  2 15.0010000  0  6G18G19G11G16G 6G 2
  23208333.3024   12876509.79746  10016862.74161
  21663002.310     3139337.273 7   2444634.09822
  23579022.6464   -1268298.84246   -948944.78361
  24327866.5214    -875717.44745   -592038.45461
  23705700.263    -5208005.100 5  -1930970.01821
  21985688.7944  -10075647.10247  -7818932.94362
 91  4 12 22  2 30.0010000  0  6G18G19G11G16G 6G 2
  23218537.106    12930124.843 6  10058640.54621
  21666373.997     3157039.597 6   2458428.09922
  23582897.0284   -1247912.92946   -933059.66861
  24330266.708     -863111.421 5   -582215.66121
  23700840.0674   -5233539.73845  -1950867.01961
  21982215.6224  -10093913.59047  -7833166.50863
 91  4 12 22  2 45.0010000  0  6G18G19G11G16G 6G 2
  23228748.2164   12983803.03546  10100467.55861
  21669750.974     3174797.780 6   2472265.62822
  23586806.7314   -1227379.38146   -917059.50561
  24332688.0604    -850383.74145   -572298.10061
  23695978.200    -5259069.272 5  -1970760.05821
  21978753.2164  -10112102.29047  -7847339.46463
 91  4 12 22  3  0.0010000  0  6G18G19G11G16G 6G 2
  23238976.942    13037546.542 6  10142345.44921
  21673142.005     3192614.494 6   2486148.76322
  23590743.8254   -1206695.89946   -900942.49861
  24335137.1694    -837532.14045   -562283.95961
  23691126.7714   -5284591.40746  -1990647.31961
  21975308.3254  -10130211.07347  -7861450.14363
 91  4 12 22  3 15.0010000  0  6G18G19G11G16G 6G 2
  23249218.294    13091353.031 6  10184272.44221
  21676542.341     3210487.805 6   2500075.99922
  23594706.7164   -1185864.56146   -884710.28661
  24337604.4504    -824558.57645   -552174.78061
  23686272.380    -5310108.015 6  -2010530.26721
  21971877.0914  -10148241.88447  -7875500.06063
 91  4 12 22  3 30.0010000  0  6G18G19G11G16G 6G 2
  23259467.966    13145218.900 6  10226245.68121
  21679951.060     3228414.320 6   2514044.69322
  23598697.6774   -1164888.91246   -868365.63161
  24340093.958     -811466.832 5   -541973.52221
  23681418.630    -5335622.466 5  -2030411.55921
  21968458.6384  -10166197.87947  -7889491.68063
 91  4 12 22  3 45.0010000  0  6G18G19G11G16G 6G 2
  23269727.685    13199143.221 6  10268264.49721
  21683375.646     3246393.430 6   2528054.36722
  23602716.4744   -1143769.81346   -851909.17861
  24342610.810     -798257.746 5   -531680.82221
  23676560.4814   -5361135.49845  -2050291.71361
  21965054.5914  -10184079.93647  -7903425.68763
 91  4 12 22  4  0.0010000  0  6G18G19G11G16G 6G 2
  23280002.771    13253126.959 6  10310329.56721
  21686806.474     3264426.687 7   2542106.23522
  23606764.8334   -1122505.72846   -835339.76161
  24345142.599     -784929.844 5   -521295.55021
  23671706.341    -5386645.630 5  -2070169.63521
  21961663.9814  -10201886.74147  -7917301.05663
 91  4 12 22  4 15.0010000  0  6G18G19G11G16G 6G 2
  23290283.8494   13307171.11646  10352441.75461
  21690249.794     3282515.058 6   2556201.05622
  23610835.2084   -1101095.68846   -818656.61661
  24347703.5604    -771482.13145   -510816.90861
  23666849.5214   -5412151.77845  -2090044.43861
  21958293.2314  -10219617.13447  -7931116.87763
 91  4 12 22  4 30.0010000  0  6G18G19G11G16G 6G 2
  23300580.6464   13361274.39446  10394599.99561
  21693700.075     3300657.670 6   2570338.13122
  23614939.0754   -1079541.13346   -801860.86261
  24350288.0994    -757916.33245   -500246.25661
  23662000.856    -5437655.010 6  -2109917.00021
  21954932.5754  -10237272.14447  -7944873.96763
 91  4 12 22  4 45.0010000  0  6G18G19G11G16G 6G 2
  23310890.067    13415433.152 6  10436801.46221
  21697162.4894    3318851.29046   2584514.96562
  23619071.5674   -1057845.41246   -784955.11061
  24352882.638     -744235.581 5   -489585.99921
  23657147.5284   -5463158.62046  -2129789.82261
  21951587.7784  -10254855.14947  -7958574.94863
 91  4 12 22  5  0.0010000  0  6G18G19G11G16G 6G 2
  23321204.833    13469648.062 6  10479046.71421
  21700634.864     3337096.856 6   2598732.27022
  23623224.1774   -1036007.73046   -767938.74761
  24355509.6224    -730439.41345   -478835.86161
  23652292.356    -5488661.663 5  -2149662.21321
  21948253.3564  -10272365.32947  -7972219.17863
 91  4 12 22  5 15.0010000  0  6G18G19G11G16G 6G 2
  23331534.0214   13523916.56746  10521333.67761
  21704118.192     3355392.395 6   2612988.50922
  23627406.5834   -1014030.51046   -750813.64161
  24358158.513     -716530.171 5   -467997.59521
  23647436.669    -5514166.362 5  -2169535.88921
  21944938.8884  -10289804.81947  -7985808.32663
 91  4 12 22  5 30.0010000  0  6G18G19G11G16G 6G 2
  23341869.380    13578241.381 6  10563664.57621
  21707603.950     3373740.863 6   2627285.99622
  23631616.091     -991910.787 6   -733577.50821
  24360831.9034    -702504.80545   -457068.81461
  23642583.6464   -5539669.74246  -2189408.53961
  21941632.6924  -10307170.63647  -7999340.06563
 91  4 12 22  5 45.0010000  0  6G18G19G11G16G 6G 2
  23352218.2944   13632621.13546  10606038.22861
  21711110.302     3392141.011 6   2641623.75422
  23635849.7474    -969650.02646   -716231.46161
  24363517.3564    -688365.10445   -446050.97261
  23637733.122    -5565172.973 6  -2209281.07321
  21938339.8104  -10324464.08647  -8012815.42063
 91  4 12 22  6  0.0010000  0  6G18G19G11G16G 6G 2
  23362576.2474   13687057.42746  10648455.98461
  21714620.052     3410594.872 6   2656003.36322
  23640114.3334    -947246.52646   -698774.19361
  24366229.771     -674109.287 5   -434942.64821
  23632880.536    -5590674.291 6  -2229152.12921
  21935066.6144  -10341683.50147  -8026233.08563
 91  4 12 22  6 15.0010000  0  6G18G19G11G16G 6G 2
  23372948.224    13741549.187 6  10690916.93121
  21718143.1924    3429101.70546   2670424.26262
  23644401.9354    -924701.13646   -681206.34861
  24368967.1924    -659738.37245   -423744.62961
  23628025.5524   -5616174.34046  -2249022.17061
  21931801.2244  -10358829.50447  -8039593.54063
 91  4 12 22  6 30.0010000  0  6G18G19G11G16G 6G 2
  23383326.849    13796096.634 6  10733421.27921
  21721675.185     3447662.343 6   2684887.07822
  23648720.6774    -902013.27046   -663527.49161
  24371724.3804    -645251.93645   -412456.58861
  23623173.5284   -5641672.43246  -2268890.69061
  21928551.6694  -10375901.19547  -8052896.09163
 91  4 12 22  6 45.0010000  0  6G18G19G11G16G 6G 2
  23393718.4424   13850701.70446  10775970.52261
  21725218.614     3466278.731 6   2699393.33422
  23653068.0284    -879181.22746   -645736.29861
  24374504.958     -630647.861 5   -401076.89121
  23618321.974    -5667166.641 6  -2288756.19821
  21925317.3104  -10392896.80947  -8066139.36163
 91  4 12 22  7  0.0010000  0  6G18G19G11G16G 6G 2
  23404121.317    13905363.709 6  10818564.13121
  21728770.536     3484950.612 6   2713942.83222
  23657443.0604    -856205.44946   -627833.10061
  24377302.716     -615926.752 5   -389605.98621
  23613470.575    -5692657.258 6  -2308618.90521
  21922100.9114  -10409816.63147  -8079323.57363
 91  4 12 22  7 15.0010000  0  6G18G19G11G16G 6G 2
  23414533.4664   13960087.47246  10861205.88261
  21732335.052     3503683.509 6   2728539.87722
  23661840.8494    -833080.72046   -609813.84361
  24380129.9274    -601083.45545   -378039.87561
  23608621.560    -5718138.889 6  -2328474.60321
  21918893.8724  -10426655.53047  -8092444.72763
 91  4 12 22  7 30.0010000  0  6G18G19G11G16G 6G 2
  23424956.7784   14014864.77946  10903889.33361
  21735909.458     3522469.258 6   2743178.09822
  23666268.2554    -809815.42046   -591685.03861
  24382973.099     -586126.535 4   -366385.23821
  23603776.106    -5743619.766 6  -2348329.72521
  21915704.5754  -10443421.67947  -8105509.19363
 91  4 12 22  7 45.0010000  0  6G18G19G11G16G 6G 2
  23435391.4034   14069702.93146  10946620.19761
  21739496.005     3541315.467 6   2757863.43422
  23670723.4894    -786402.11446   -573440.90861
  24385842.067     -571048.606 4   -354636.32021
  23598925.9504   -5769092.29146  -2368178.32561
  21912529.2864  -10460107.32447  -8118510.93163
 91  4 12 22  8  0.0010000  0  6G18G19G11G16G 6G 2
  23445842.466    14124600.717 6  10989397.53321
  21743094.099     3560221.303 6   2772595.22722
  23675208.497     -762841.918 6   -555082.32321
  24388734.3254    -555850.74845   -342793.92261
  23594080.4504   -5794557.37446  -2388021.12761
  21909368.3414  -10476713.44947  -8131450.70363
 91  4 12 22  8 15.0010000  0  6G18G19G11G16G 6G 2
  23456297.5444   14179555.61546  11032219.38161
  21746703.489     3579184.622 6   2787371.82122
  23679716.271     -739137.171 6   -536611.11121
  24391653.122     -540535.415 5   -330860.00621
  23589235.599    -5820017.190 6  -2407859.83921
  21906220.9034  -10493242.49947  -8144330.41663
 91  4 12 22  8 30.0010000  0  6G18G19G11G16G 6G 2
  23466765.8964   14234567.00346  11075085.24561
  21750320.185     3598205.073 6   2802192.92622
  23684254.6774    -715288.54646   -518027.77361
  24394586.606     -525103.319 5   -318835.10121
  23584392.856    -5845472.228 6  -2427694.80521
  21903093.7474  -10509694.79447  -8157150.32363
 91  4 12 22  8 45.0010000  0  6G18G19G11G16G 6G 2
  23477243.771    14289633.973 6  11117994.40521
  21753952.825     3617282.470 6   2817058.40822
  23688820.950     -691296.442 6   -499332.63821
  24397548.880     -509554.833 5   -306719.50921
  23579546.466    -5870922.700 6  -2447526.22521
  21899974.7554  -10526070.76647  -8169910.76363
 91  4 12 22  9  0.0010000  0  6G18G19G11G16G 6G 2
  23487735.747    14344757.003 6  11160947.24621
  21757594.349     3636417.289 6   2831968.63322
  23693411.3494    -667160.47446   -480525.40361
  24400525.021     -493889.756 4   -294513.04721
  23574709.778    -5896368.157 6  -2467353.74521
  21896875.1144  -10542369.78647  -8182611.23563
 91  4 12 22  9 15.0010000  0  6G18G19G11G16G 6G 2
  23498233.919    14399936.906 6  11203944.41221
  21761245.888     3655610.623 6   2846924.45622
  23698034.8174    -642879.83646   -461605.42361
  24403529.271     -478107.010 5   -282214.92621
  23569868.435    -5921807.557 6  -2487176.55321
  21893787.7004  -10558590.85547  -8195250.96663
 91  4 12 22  9 30.0010000  0  6G18G19G11G16G 6G 2
  23508746.536    14455168.935 6  11246982.17921
  21764908.489     3674857.995 6   2861922.38222
  23702680.3104    -618459.15446   -442576.33061
  24406556.192     -462211.593 5   -269829.00021
  23565024.255    -5947245.334 6  -2506998.08221
  21890716.9894  -10574738.48847  -8207833.47663
 91  4 12 22  9 45.0010000  0  6G18G19G11G16G 6G 2
  23519267.9894   14510453.79046  11290061.13761
  21768582.802     3694160.664 6   2876963.39922
  23707354.5134    -593897.44746   -423437.33761
  24409604.4664    -446202.95845   -257354.82161
  23560185.1614   -5972680.44146  -2526817.52261
  21887654.2944  -10590811.63547  -8220357.94463
 91  4 12 22 10  0.0010000  0  6G18G19G11G16G 6G 2
  23529795.169    14565788.764 6  11333179.13621
  21772263.794     3713516.437 6   2892045.79322
  23712056.1924    -569197.24446   -404190.43261
  24412676.817     -430083.040 5   -244793.99021
  23555344.7634   -5998115.10346  -2546636.62661
  21884612.0134  -10606812.73847  -8232826.27363
 91  4 12 22 10 15.0010000  0  6G18G19G11G16G 6G 2
  23540337.005    14621177.176 6  11376338.76621
  21775960.458     3732928.870 6   2907172.34022
  23716782.2864    -544355.38646   -384833.14561
  24415762.3024    -413848.76245   -232143.98661
  23550506.6694   -6023545.85646  -2566452.68261
  21881578.7714  -10622738.42847  -8245235.83863
 91  4 12 22 10 30.0010000  0  6G18G19G11G16G 6G 2
  23550887.396    14676619.540 6  11419540.44121
  21779665.935     3752398.747 6   2922343.64722
  23721538.567     -519371.238 6   -365364.99521
  24418869.849     -397499.687 5   -219404.56521
  23545666.841    -6048971.893 6  -2586265.06321
  21878564.3964  -10638587.90747  -8257586.02063
 91  4 12 22 10 45.0010000  0  6G18G19G11G16G 6G 2
  23561443.7784   14732113.14146  11462782.03661
  21783380.849     3771923.715 6   2937557.88922
  23726316.2944    -494247.34846   -345787.93561
  24422009.1384    -381038.47845   -206577.74461
  23540830.005    -6074395.853 6  -2606075.83321
  21875561.8644  -10654363.50847  -8269878.63463
 91  4 12 22 11  0.0010000  0  6G18G19G11G16G 6G 2
  23572016.8724   14787656.60046  11506062.49261
  21787103.4504    3791502.93146   2952814.39062
  23731126.4194    -468984.73846   -326102.79661
  24425157.0914    -364466.29645   -193664.48361
  23535989.106    -6099818.357 6  -2625885.47421
  21872573.9424  -10670066.30447  -8282114.52363
 91  4 12 22 11 15.0010000  0  6G18G19G11G16G 6G 2
  23582597.0364   14843249.07846  11549381.13761
  21790842.528     3811135.557 6   2968112.52122
  23735957.2714    -443584.35146   -306310.29561
  24428327.060     -347783.883 5   -180665.30521
  23531152.0284   -6125240.18446  -2645694.58461
  21869600.7864  -10685697.16347  -8294294.35063
 91  4 12 22 11 30.0010000  0  6G18G19G11G16G 6G 2
  23593183.3174   14898887.68546  11592735.71361
  21794586.4974    3830819.16346   2983450.36962
  23740815.8104    -418048.98246   -286412.60561
  24431527.130     -330994.142 5   -167582.49821
  23526316.5834   -6150663.94646  -2665505.19661
  21866639.3564  -10701258.55747  -8306420.05263
 91  4 12 22 11 45.0010000  0  6G18G19G11G16G 6G 2
  23603781.560    14954572.246 6  11636126.12221
  21798343.106     3850554.183 6   2998828.28022
  23745703.5214    -392378.62646   -266409.75061
  24434744.966     -314096.984 5   -154415.99321
  23521476.310    -6176089.487 6  -2685317.19621
  21863690.8414  -10716750.22947  -8318491.42863
 91  4 12 22 12  0.0010000  0  6G18G19G11G16G 6G 2
  23614385.1384   15010305.82646  11679554.70761
  21802110.614     3870343.944 6   3014248.85322
  23750616.2314    -366570.20046   -246299.29761
  24437976.3254    -297089.52545   -141163.52061
  23516638.2474   -6201513.40646  -2705127.91961
  21860756.1924  -10732169.03847  -8330506.02063
 91  4 12 22 12 15.0010000  0  6G18G19G11G16G 6G 2
  23625000.7554   15066091.00946  11723023.50461
  21805885.528     3890191.327 6   3029714.32322
  23755551.435     -340620.948 6   -226079.12121
  24441236.317     -279969.122 5   -127823.05921
  23511799.817    -6226932.758 6  -2724935.09821
  21857836.0754  -10747512.04147  -8342461.55063
 91  4 12 22 12 30.0010000  0  6G18G19G11G16G 6G 2
  23635630.052    15121927.115 6  11766531.99821
  21809672.513     3910095.563 6   3045224.09222
  23760516.630     -314531.987 6   -205750.07321
  24444517.1774    -262736.49045   -114395.15461
  23506969.903    -6252348.321 6  -2744739.32921
  21854930.8884  -10762780.09147  -8354358.67063
 91  4 12 22 12 45.0010000  0  6G18G19G11G16G 6G 2
  23646261.9034   15177809.84546  11810076.80961
  21813472.474     3930053.281 6   3060775.54122
  23765505.2554    -288306.93846   -185314.98561
  24447811.7714    -245396.07645   -100883.25061
  23502126.771    -6277763.719 6  -2764543.41121
  21852039.3254  -10777976.88547  -8366200.26563
 91  4 12 22 13  0.0010000  0  6G18G19G11G16G 6G 2
  23656907.067    15233741.168 6  11853659.48921
  21817280.981     3950066.674 6   3076370.36822
  23770526.036     -261943.732 6   -164772.24921
  24451138.294     -227945.194 5    -87285.28021
  23497292.0284   -6303176.63546  -2784345.58061
  21849161.2554  -10793100.18847  -8377984.59763
 91  4 12 22 13 15.0010000  0  6G18G19G11G16G 6G 2
  23667557.005    15289722.195 6  11897280.89221
  21821098.724     3970137.266 6   3092009.76322
  23775567.356     -235441.180 6   -144120.93821
  24454474.341     -210382.961 5    -73600.52921
  23492456.091    -6328585.764 6  -2804144.80721
  21846297.4974  -10808148.56047  -8389710.54063
 91  4 12 22 13 30.0010000  0  6G18G19G11G16G 6G 2
  23678222.6694   15345753.44546  11940941.43461
  21824930.833     3990265.748 6   3107694.27522
  23780636.552     -208798.724 6   -123360.59621
  24457843.3104    -192709.05945    -59828.75761
  23487622.872    -6353990.176 6  -2823940.34521
  21843447.6464  -10823121.33147  -8401377.57763
 91  4 12 22 13 45.0010000  0  6G18G19G11G16G 6G 2
  23688891.200    15401835.476 6  11984641.55821
  21828772.185     4010452.971 6   3123424.56122
  23785734.981     -182015.853 6   -102490.85021
  24461230.278     -174922.878 5    -45969.52921
  23482783.325    -6379389.183 6  -2843731.66321
  21840611.7714  -10838017.76547  -8412985.12663
 91  4 12 22 14  0.0010000  0  6G18G19G11G16G 6G 2
  23699573.099    15457967.810 6  12028380.86221
  21832625.489     4030699.024 6   3139200.68722
  23790857.419     -155092.885 6    -81511.94021
  24464634.833     -157024.676 5    -32022.96821
  23477961.0674   -6404782.86546  -2863518.85361
  21837793.5134  -10852838.03747  -8424533.32963
 91  4 12 22 14 15.0010000  0  6G18G19G11G16G 6G 2
  23710265.9114   15514147.94046  12072157.40461
  21836489.372     4051001.648 6   3155020.89322
  23796005.466     -128032.268 6    -60425.75421
  24468057.0214    -139016.99545    -17991.13061
  23473124.638    -6430173.431 6  -2883303.57521
  21834987.3644  -10867584.32547  -8436023.88763
 91  4 12 22 14 30.0010000  0  6G18G19G11G16G 6G 2
  23720965.2314   15570381.89146  12115975.90861
  21840363.349     4071367.147 6   3170890.09022
  23801184.372     -100827.838 6    -39227.50821
  24471501.9424    -120893.66845     -3869.18061
  23468293.364    -6455554.613 6  -2903081.02421
  21832195.7784  -10882250.40347  -8447451.94163
 91  4 12 22 14 45.0010000  0  6G18G19G11G16G 6G 2
  23731676.4424   15626664.72446  12159832.47961
  21844248.403     4091790.996 6   3186804.75722
  23806385.3024     -73484.65046    -17921.15561
  24474974.458     -102659.633 5     10339.05521
  23463465.9194   -6480930.99946  -2922854.71561
  21829420.044   -10896841.180 7  -8458821.32623
 91  4 12 22 15  0.0010000  0  6G18G19G11G16G 6G 2
  23742396.0214   15682997.73946  12203728.15861
  21848148.685     4112275.022 6   3202766.31222
  23811616.6224     -46001.01446      3494.65861
  24478470.0054     -84313.39845     24634.71661
  23458636.817    -6506300.767 6  -2942623.25421
  21826657.2084  -10911354.91347  -8470130.67363
 91  4 12 22 15 15.0010000  0  6G18G19G11G16G 6G 2
  23753127.864    15739383.479 6  12247664.92921
  21852059.255     4132821.876 6   3218776.82622
  23816873.0674     -18374.53746     25021.77261
  24481988.669      -65852.640 5     39019.62821
  23453813.396    -6531661.415 6  -2962384.69421
  21823911.0524  -10925788.92047  -8481377.89263
 91  4 12 22 15 30.0010000  0  6G18G19G11G16G 6G 2
  23763866.5364   15795819.87246  12291641.16961
  21855978.239     4153429.980 6   3234835.06522
  23822158.466        9392.896 6     46658.70221
  24485517.6304     -47279.23745     53492.28561
  23448986.731    -6557014.515 6  -2982140.24721
  21821178.5444  -10940145.00347  -8492564.39463
 91  4 12 22 15 45.0010000  0  6G18G19G11G16G 6G 2
  23774614.013    15852305.721 6  12335655.93521
  21859912.9114    4174098.34846   3250940.26362
  23827467.872       37300.183 6     68404.62321
  24489076.896      -28594.293 5     68051.87921
  23444166.599    -6582360.999 6  -3001890.65821
  21818464.153   -10954424.019 7  -8503690.84723
 91  4 12 22 16  0.0010000  0  6G18G19G11G16G 6G 2
  23785377.411    15908842.565 6  12379710.41821
  21863856.114     4194828.938 6   3267093.94622
  23832804.356       65349.079 6     90260.88521
  24492649.880       -9796.297 5     82699.54721
  23439342.7554   -6607698.85946  -3021634.35361
  21815759.208   -10968624.144 7  -8514755.82423
 91  4 12 22 16 15.0010000  0  6G18G19G11G16G 6G 2
  23796142.9424   15965428.60646  12423803.25661
  21867812.349     4215620.410 6   3283295.07022
  23838170.763       93537.736 6    112226.06221
  24496244.263        9113.034 5     97433.98921
  23434519.989    -6633029.745 6  -3041372.59821
  21813071.7944  -10982747.09647  -8525760.66463
 91  4 12 22 16 30.0010000  0  6G18G19G11G16G 6G 2
  23806916.403    16022060.469 6  12467931.78921
  21871778.161     4236469.779 6   3299541.31522
  23843560.0054     121862.82446    134297.54761
  24499873.247       28130.380 5    112252.59621
  23429701.466    -6658356.675 6  -3061107.75821
  21810396.0674  -10996795.71247  -8536707.58163
 91  4 12 22 16 45.0010000  0  6G18G19G11G16G 6G 2
  23817703.997    16078742.193 6  12512099.18821
  21875760.927     4257381.313 6   3315835.99222
  23848978.911      150328.468 6    156478.54421
  24503508.583       47259.835 5    127158.55021
  23424885.325    -6683675.157 6  -3080836.34721
  21807742.411   -11010765.792 7  -8547593.30623
 91  4 12 22 17  0.0010000  0  6G18G19G11G16G 6G 2
  23828500.0214   16135477.40446  12556308.27361
  21879752.9354    4278358.84146   3332182.08362
  23854422.060      178938.311 6    178771.91921
  24507169.1384      66504.77445    142154.53661
  23420070.099    -6708981.676 6  -3100555.59021
  21805098.1384  -11024653.77147  -8558415.05163
 91  4 12 22 17 15.0010000  0  6G18G19G11G16G 6G 2
  23839308.7004   16192264.49246  12600557.75761
  21883756.8804    4299401.15446   3348578.67162
  23859892.849      207690.929 6    201176.53421
  24510854.8494      85863.46945    157239.08361
  23415257.9034   -6734277.29946  -3120266.37361
  21802469.435   -11038461.121 7  -8569173.96823
 91  4 12 22 17 30.0010000  0  6G18G19G11G16G 6G 2
  23850122.364    16249100.007 6  12644845.00821
  21887772.981     4320505.294 6   3365023.43222
  23865392.927      236582.990 6    223689.79521
  24514557.208      105332.971 5    172410.02721
  23410446.9744   -6759564.90746  -3139970.87861
  21799857.466   -11052190.603 7  -8579872.21823
 91  4 12 22 17 45.0010000  0  6G18G19G11G16G 6G 2
  23860947.841    16305983.449 6  12689169.56321
  21891800.864     4341671.068 6   3381516.23322
  23870912.2084     265614.01546    246311.36861
  24518285.427      124913.018 5    187667.05421
  23405634.6614   -6784844.89646  -3159669.48261
  21797258.7634  -11065842.52147  -8590510.02063
 91  4 12 22 18  0.0010000  0  6G18G19G11G16G 6G 2
  23871782.9894   16362919.79746  12733535.37761
  21895840.622     4362903.887 6   3398061.26122
  23876466.4744     294788.97846    269045.08261
  24522031.888      144608.130 5    203013.80621
  23400822.3804   -6810111.90246  -3179357.95461
  21794676.1854  -11079411.81047  -8601083.43463
 91  4 12 22 18 15.0010000  0  6G18G19G11G16G 6G 2
  23882630.3104   16419906.99546  12777940.79261
  21899895.864     4384202.042 6   3414657.20022
  23882045.169      324105.933 6    291889.43121
  24525798.685      164416.528 5    218448.82521
  23396018.856    -6835367.723 6  -3199037.72121
  21792112.060   -11092900.228 7  -8611593.84023
 91  4 12 22 18 30.0020000  0  6G18G19G11G16G 6G 2
  23893481.0104   16476944.93546  12822385.76461
  21903959.080     4405563.518 6   3431302.48022
  23887649.9794     353563.02946    314843.01161
  24529587.869      184335.734 5    233970.16421
  23391213.5414   -6860617.49346  -3218712.75761
  21789557.307   -11106312.290 7  -8622044.73823
 91  4 12 22 18 45.0020000  0  6G18G19G11G16G 6G 2
  23904344.9634   16534027.39246  12866865.39861
  21908035.939     4426987.120 6   3447996.17422
  23893282.8074     383157.86346    337903.89161
  24533400.0254     204364.18745    249576.64761
  23386408.393    -6885856.285 6  -3238379.25521
  21787022.455   -11119644.687 7  -8632433.56523
 91  4 12 22 19  0.0020000  0  6G18G19G11G16G 6G 2
  23915214.447    16591158.608 6  12911383.05121
  21912124.1504    4448475.10546   3464740.03462
  23898938.932      412892.876 6    361074.01221
  24537238.8224     224503.75845    265269.70761
  23381608.479    -6911084.839 6  -3258037.75821
  21784499.135   -11132897.622 7  -8642760.47223
 91  4 12 22 19 15.0020000  0  6G18G19G11G16G 6G 2
  23926095.7134   16648338.61846  12955938.72161
  21916225.361     4470027.686 6   3481534.22222
  23904624.619      442768.185 6    384353.44621
  24541085.861      244754.934 5    281049.70721
  23376808.549    -6936302.878 6  -3277688.07021
  21781992.189   -11146070.463 7  -8653024.97323
 91  4 12 22 19 30.0020000  0  6G18G19G11G16G 6G 2
  23936987.1584   16705566.28346  13000531.51761
  21920339.682     4491643.862 6   3498377.97322
  23910337.736      472782.405 6    407741.13121
  24544967.268      265116.282 5    296915.59321
  23372014.174    -6961511.396 6  -3297330.96721
  21779501.2444  -11159164.61347  -8663228.14963
 91  4 12 22 19 45.0020000  0  6G18G19G11G16G 6G 2
  23947887.6584   16762841.39346  13045161.28361
  21924465.424     4513324.146 6   3515271.67222
  23916075.916      502935.740 6    431237.20921
  24548861.463      285587.600 5    312867.14021
  23367219.5804   -6986710.18846  -3316966.28561
  21777021.846   -11172179.812 7  -8673369.81123
 91  4 12 22 20  0.0020000  0  6G18G19G11G16G 6G 2
  23958792.275    16820159.851 6  13089824.84021
  21928601.236     4535064.725 6   3532212.35922
  23921839.197      533224.020 6    454838.45021
  24552770.4244     306164.70645    328901.11661
  23362424.799    -7011902.911 6  -3336596.87421
  21774560.4944  -11185119.92547  -8683452.95963
 91  4 12 22 20 15.0020000  0  6G18G19G11G16G 6G 2
  23969709.393    16877524.233 6  13134524.15521
  21932752.5964    4556868.35746   3549202.17862
  23927628.088      563649.940 6    478546.93321
  24556712.4084     326850.34945    345019.70061
  23357632.4474   -7037086.76946  -3356220.54061
  21772113.002   -11197982.193 7  -8693475.45123
 91  4 12 22 20 30.0020000  0  6G18G19G11G16G 6G 2
  23980633.3074   16934934.63446  13179259.34661
  21936912.557     4578735.764 6   3566241.69122
  23933445.994      594213.714 6    502362.84521
  24560674.2994     347644.84445    361223.08461
  23352844.1194   -7062261.25946  -3375836.93861
  21769681.2294  -11210766.03547  -8703436.83163
 91  4 12 22 20 45.0020000  0  6G18G19G11G16G 6G 2
  23991569.7054   16992394.48146  13224033.07161
  21941086.627     4600670.931 6   3583334.01122
  23939285.424      624918.908 6    526288.94521
  24564643.2444     368551.69045    377514.00761
  23348054.869    -7087422.420 6  -3395442.91921
  21767263.385   -11223467.836 7  -8713334.29023
 91  4 12 22 21  0.0020000  0  6G18G19G11G16G 6G 2
  24002513.4634   17049903.52046  13268845.10561
  21945270.6114    4622673.40646   3600478.76762
  23945159.283      655765.023 6    550324.86521
  24568648.3544     389570.27545    393892.02461
  23343265.299    -7112570.530 6  -3415038.74821
  21764863.1504  -11236087.95647  -8723168.09063
 91  4 12 22 21 15.0020000  0  6G18G19G11G16G 6G 2
  24013466.377    17107457.315 6  13313692.04621
  21949471.549     4644739.170 6   3617672.84622
  23951056.939      686747.818 6    574467.27221
  24572667.0964     410696.20745    410353.65361
  23338479.596    -7137709.705 6  -3434627.61621
  21762475.752   -11248630.477 7  -8732941.43923
 91  4 12 22 21 30.0020000  0  6G18G19G11G16G 6G 2
  24024426.408    17165060.274 6  13358577.28721
  21953683.5884    4666873.29846   3634920.18762
  23956976.299      717871.927 6    598719.81921
  24576707.8304     431934.17445    426902.60361
  23333701.088    -7162834.954 6  -3454205.61721
  21760104.119   -11261090.556 7  -8742650.53723
 91  4 12 22 21 45.0020000  0  6G18G19G11G16G 6G 2
  24035396.7524   17222710.51946  13403499.34761
  21957909.4084    4689074.04346   3652219.44262
  23962926.846      749135.272 6    623080.84321
  24580772.604      453281.961 5    443537.12121
  23328924.2834   -7187948.09946  -3473774.20661
  21757747.447   -11273470.117 7  -8752296.89823
 91  4 12 22 22  0.0020000  0  6G18G19G11G16G 6G 2
  24046373.5024   17280407.19245  13448457.61861
  21962146.4634    4711341.01246   3669570.30062
  23968903.064      780537.159 6    647549.81621
  24584858.854      474738.892 5    460256.69021
  23324147.916    -7213049.528 6  -3493333.65421
  21755408.486   -11285769.433 7  -8761880.72823
 91  4 12 22 22 15.0020000  0  6G18G19G11G16G 6G 2
  24057365.369    17338150.375 6  13493452.11221
  21966395.1664    4733674.55446   3686973.02862
  23974901.932      812077.569 6    672126.74621
  24588962.8774     496305.01945    477061.34561
  23319377.1744   -7238138.82846  -3512883.66361
  21753082.307   -11297988.280 7  -8771401.85923
 91  4 12 22 22 30.0020000  0  6G18G19G11G16G 6G 2
  24068361.307    17395940.424 6  13538483.12421
  21970658.471     4756075.591 6   3704428.35722
  23980935.5254     843757.08446    696812.04961
  24593082.4634     517980.84745    493951.48661
  23314602.7214   -7263215.32946  -3532423.67961
  21750774.939   -11310126.054 7  -8780859.81423
 91  4 12 22 22 45.0020000  0  6G18G19G11G16G 6G 2
  24079367.471    17453772.890 5  13583547.17621
  21974935.8074    4778540.00346   3721933.06162
  23986985.8614     875571.21646    721602.25461
  24597235.7834     539761.95745    510923.63861
  23309831.971    -7288282.992 6  -3551956.82621
  21748477.158   -11322186.945 7  -8790257.86123
 91  4 12 22 23  0.0020000  0  6G18G19G11G16G 6G 2
  24090383.057    17511647.841 6  13628644.34321
  21979223.885     4801068.024 6   3739487.33822
  23993066.4004     907520.13846    746497.49061
  24601397.1114     561648.52845    527977.96861
  23305060.9794   -7313341.51046  -3571482.83361
  21746196.729   -11334170.706 7  -8799595.80523
 91  4 12 22 23 15.0020000  0  6G18G19G11G16G 6G 2
  24101399.5024   17569567.01145  13673776.00261
  21983518.588     4823661.647 6   3757092.73422
  23999175.502      939605.555 6    771499.09021
  24605575.4164     583642.03745    545115.69861
  23300292.9164   -7338388.94546  -3591000.22661
  21743930.783   -11346075.611 7  -8808872.30623
 91  4 12 22 23 30.0020000  0  6G18G19G11G16G 6G 2
  24112436.5024   17627528.98846  13718940.93461
  21987830.135     4846319.957 6   3774748.53822
  24005302.564      971826.230 6    796606.08521
  24609783.1194     605741.52344    562335.91661
  23295528.9794   -7363426.39146  -3610509.83061
  21741681.682   -11357902.762 7  -8818088.21523
 91  4 12 22 23 45.0020000  0  6G18G19G11G16G 6G 2
  24123470.4634   17685530.21846  13764136.52861
  21992154.5414    4869039.96446   3792452.41462
  24011460.502     1004178.766 6    821815.83721
  24614011.1664     627943.23245    579635.82661
  23290767.8934   -7388456.51546  -3630013.72961
  21739446.307   -11369655.082 7  -8827245.81723
 91  4 12 22 24  0.0020000  0  6G18G19G11G16G 6G 2
  24134515.838    17743571.816 6  13809363.54821
  21996490.6664    4891822.74246   3810205.20262
  24017641.760     1036664.090 6    847129.05521
  24618255.9794     650248.19145    597016.19461
  23285999.994    -7413478.485 6  -3649511.26021
  21737222.354   -11381331.460 7  -8836344.24323
 91  4 12 22 24 15.0020000  0  6G18G19G11G16G 6G 2
  24145570.0884   17801657.87546  13854625.20961
  22000838.6974    4914672.73346   3828010.36362
  24023851.127     1069286.220 6    872548.88321
  24622520.244      672660.202 4    614479.97921
  23281245.627    -7438487.774 6  -3668998.93521
  21735016.025   -11392927.694 7  -8845380.22223
 91  4 12 22 24 30.0020000  0  6G18G19G11G16G 6G 2
  24156632.9634   17859782.67646  13899917.07661
  22005201.018     4937584.933 6   3845863.99622
  24030081.893     1102039.837 6    898071.15621
  24626799.0184     695173.95043    632023.03361
  23276491.893    -7463489.570 6  -3688480.74721
  21732824.658   -11404448.948 7  -8854357.77423
 91  4 12 22 24 45.0020000  0  6G18G19G11G16G 6G 2
  24167701.932    17917949.510 6  13945241.68221
  22009574.096     4960562.762 6   3863768.77522
  24036339.822     1134927.929 6    923698.21621
  24631107.4794     717792.68544    649647.90361
  23271733.768    -7488480.304 6  -3707953.97821
  21730646.541   -11415892.045 7  -8863274.42023
 91  4 12 22 25  0.0020000  0  6G18G19G11G16G 6G 2
  24178774.291    17976155.645 6  13990596.90921
  22013954.9394    4983604.10846   3881723.03662
  24042624.744     1167948.108 6    949428.21121
  24635432.564      740513.725 4    667352.46821
  23266980.549    -7513462.367 6  -3727420.39821
  21728483.072   -11427259.253 7  -8872131.94323
 91  4 12 22 25 15.0020000  0  6G18G19G11G16G 6G 2
  24189857.119    18034397.392 6  14035979.88221
  22018351.236     5006705.655 6   3899724.21922
  24048931.291     1201096.770 6    975258.30921
  24639774.8854     763333.34045    685133.85061
  23262225.775    -7538438.907 6  -3746882.57521
  21726333.510   -11438553.752 7  -8880932.80323
 91  4 12 22 25 30.0020000  0  6G18G19G11G16G 6G 2
  24200950.791    18092677.154 6  14081392.48621
  22022759.627     5029869.704 6   3917774.09722
  24055264.1194    1234375.93346   1001190.09261
  24644139.0494     786253.70045    702993.78461
  23257479.213    -7563407.650 6  -3766338.61121
  21724198.346   -11449773.455 7  -8889675.38023
 91  4 12 22 25 45.0020000  0  6G18G19G11G16G 6G 2
  24212047.4634   18150997.78646  14126836.93361
  22027179.8934    5053099.57546   3935875.26662
  24061621.8224    1267788.64646   1027225.93661
  24648510.5884     809277.72244    720934.44361
  23252722.486    -7588365.225 6  -3785786.00021
  21722078.611   -11460915.158 7  -8898357.18123
 91  4 12 22 26  0.0020000  0  6G18G19G11G16G 6G 2
  24223150.775    18209353.420 5  14172308.62321
  22031615.010     5076389.654 6   3954023.35522
  24068005.1664    1301329.14146   1053361.35761
  24652920.8934     832399.79345    738951.50161
  23247980.0724   -7613317.23146  -3805229.02261
  21719971.854   -11471984.428 7  -8906982.53723
 91  4 12 22 26 15.0020000  0  6G18G19G11G16G 6G 2
  24234264.260    18267745.190 6  14217808.49921
  22036056.9864    5099741.63346   3972219.66862
  24074411.213     1334998.503 6   1079597.20621
  24657329.385      855621.112 5    757045.96521
  23243229.6354   -7638262.04546  -3824666.45161
  21717879.674   -11482979.986 7  -8915550.45823
 91  4 12 22 26 30.0020000  0  6G18G19G11G16G 6G 2
  24245383.650    18326175.707 6  14263338.58021
  22040513.010     5123158.578 6
  24080846.4714    1368799.59246   1105935.68961
  24661763.2834     878944.19544
  23238487.025    -7663196.562 6  -3844095.86521
  21715801.424   -11493898.610 7  -8924058.42723
 91  4 12 22 26 45.0020000  0  6G18G19G11G16G 6G 2
  24256510.8774   18384645.64145  14308899.33861
  22044981.1114    5146641.44246
  24087300.2444    1402733.07346   1132377.33761
  24666237.1434     902369.61145
  23233738.4944   -7688119.88646  -3863516.52761
  21713740.861   -11504739.728 7  -8932506.00023
 91  4 12 22 27  0.0020000  0  6G18G19G11G16G 6G 2
  24267643.150    18443152.814 6  14354489.14721
  22049463.900     5170188.349 6
  24093784.643     1436796.846 6   1158920.50621
  24670715.7364     925894.98545
  23229005.408    -7713033.850 6  -3882929.93321
  21711689.197   -11515505.252 7  -8940894.67323
 91  4 12 22 27 15.0020000  0  6G18G19G11G16G 6G 2
  24278782.0494   18501694.01245  14400105.47461
  22053955.197     5193796.524 6
  24100292.721     1470987.636 6   1185562.64521
  24675204.8614     949517.62245
  23224258.932    -7737941.274 6  -3902338.20121
  21709654.033   -11526197.923 7  -8949226.57723
 91  4 12 22 27 30.0020000  0  6G18G19G11G16G 6G 2
  24289932.3224   18560272.80845  14445751.05761
  22058463.494     5217470.017 6
  24106821.7684    1505309.06246   1212306.57561
  24679722.1504     973240.99945
  23219525.0804   -7762838.12046  -3921738.27861
  21707634.768   -11536813.995 7  -8957498.78923
 91  4 12 22 27 45.0020000  0  6G18G19G11G16G 6G 2
  24301087.9394   18618888.21745  14491425.17361
  22062976.9474    5241207.81346   4082452.88762
  24113379.025     1539759.978 6   1239151.42121
  24684251.6194     997063.66445
  23214789.6194   -7787725.40946  -3941130.87261
  21705629.807   -11547354.548 7  -8965712.17023
 91  4 12 22 28  0.0020000  0  6G18G19G11G16G 6G 2
  24312243.7834   18677535.94945  14537124.49561
  22067506.518     5265005.955 6   4100996.86122
  24119955.7364    1574336.07846   1266093.80861
  24688803.1824    1020981.73345    803330.99961
  23210052.525    -7812606.998 6  -3960519.03921
  21703637.455   -11557823.566 7  -8973869.80123
 91  4 12 22 28 15.0020000  0  6G18G19G11G16G 6G 2
  24323409.3854   18736214.15545  14582847.54961
  22072045.479     5288863.521 6   4119587.15122
  24126562.4324    1609035.92546   1293132.61261
  24693370.3144    1044993.36845    822041.21661
  23205320.8774   -7837484.03546  -3979903.65461
  21701658.572   -11568222.403 7  -8981972.74723
 91  4 12 22 28 30.0020000  0  6G18G19G11G16G 6G 2
  24334582.541    18794922.955 5  14628594.46621
  22076595.6044    5312780.65846   4138223.84162
  24133187.346     1643859.383 6   1320267.74021
  24697961.1194    1069098.35145    840824.21061
  23200586.338    -7862356.323 6  -3999284.58121
  21699693.463   -11578550.890 7  -8990020.87323
 91  4 12 22 28 45.0020000  0  6G18G19G11G16G 6G 2
  24345763.3614   18853669.25945  14674370.59461
  22081160.7684    5336764.37646   4156912.43162
  24139841.275     1678813.392 6   1347504.60121
  24702570.104     1093303.870 5    859685.54221
  23195857.783    -7887216.706 6  -4018656.22221
  21697741.697   -11588801.928 7  -8998008.65023
 91  4 12 22 29  0.0020000  0  6G18G19G11G16G 6G 2
  24356947.869    18912449.052 5  14720172.81421
  22085736.1114    5360811.44246   4175650.37362
  24146513.033     1713894.293 6   1374840.32121
  24707195.8464    1117606.17945    878622.25361
  23191126.8144   -7912068.55446  -4038021.19961
  21695805.354   -11598979.008 7  -9005938.79323
 91  4 12 22 29 15.0020000  0  6G18G19G11G16G 6G 2
  24368140.900    18971260.954 5  14766000.03921
  22090323.854     5384920.708 6   4194436.78722
  24153212.119     1749100.523 6   1402273.72321
  24711840.010     1142003.572 5    897633.09021
  23186397.0644   -7936912.94546  -4057380.39261
  21693882.229   -11609083.353 7  -9013812.26023
 91  4 12 22 29 30.0020000  0  6G18G19G11G16G 6G 2
  24379338.8614   19030102.91545  14811850.71261
  22094922.3614    5409090.69046   4213270.50962
  24159937.3144    1784430.06146   1429803.19961
  24716493.549     1166494.147 4    916716.52621
  23181670.7754   -7961751.54946  -4076735.04961
  21691970.588   -11619116.709 7  -9021630.40523
 91  4 12 22 29 45.0020000  0  6G18G19G11G16G 6G 2
  24390541.643    19088976.589 6  14857726.08121
  22099535.5184    5433322.98546   4232152.78162
  24166683.0334    1819884.42846   1457429.95761
  24721175.6504    1191079.06245    935873.45361
  23176948.6974   -7986582.50546  -4096083.77561
  21690076.635   -11629077.494 7  -9029392.01723
 91  4 12 22 30  0.0020000  0  6G18G19G11G16G 6G 2
  24401753.1354   19147881.34145  14903625.66361
  22104158.6824    5457617.39846   4251083.45962
  24173452.1114    1855463.12546   1485153.59561
  24725874.2134    1215757.74645    955103.48961
  23172221.4794   -8011406.06546  -4115426.71161
  21688194.619   -11638965.801 7  -9037097.14523
 91  4 12 22 30 15.0020000  0  6G18G19G11G16G 6G 2
  24412967.1664   19206815.88445  14949548.44361
  22108792.6044    5481972.90446   4270061.74362
  24180249.5254    1891164.97546   1512973.19761
  24730592.5574    1240529.37445    974405.92861
  23167497.0254   -8036223.09046  -4134764.55761
  21686327.158   -11648782.973 7  -9044746.84323
 91  4 12 22 30 30.0020000  0  6G18G19G11G16G 6G 2
  24424185.119    19265780.613 5  14995494.76021
  22113436.8464    5506390.40146   4289088.33262
  24187066.150     1926990.305 6   1540888.98621
  24735314.6744    1265394.34344    993781.08361
  23162773.9634   -8061032.89346  -4154096.78961
  21684471.822   -11658528.125 7  -9052340.42123
 91  4 12 22 30 45.0020000  0  6G18G19G11G16G 6G 2
  24435410.010    19324773.390 5  15041462.94921
  22118096.8144    5530867.87646   4308161.65662
  24193905.275     1962936.776 6   1568899.20221
  24740055.6584    1290350.03544   1013226.93261
  23158059.213    -8085837.482 6  -4173424.94521
  21682632.588   -11668203.385 8  -9059879.54023
 91  4 12 22 31  0.0020000  0  6G18G19G11G16G 6G 2
  24446643.9244   19383794.92945  15087453.53761
  22122766.8614    5555406.40346   4327282.55762
  24200768.564     1999005.357 6   1597004.57221
  24744830.822     1315397.572 4   1032744.33221
  23153339.072    -8110635.435 6  -4192747.93921
  21680805.564   -11677808.034 8  -9067363.63923
 91  4 12 22 31 15.0020000  0  6G18G19G11G16G 6G 2
  24457882.885    19442845.451 5  15133466.70821
  22127448.9554    5580006.92646   4346451.76062
  24207659.0184    2035196.48246   1625205.41161
  24749622.479     1340537.193 4   1052333.54021
  23148622.2524   -8135426.18546  -4212065.29861
  21678989.893   -11687341.166 7  -9074792.00723
 91  4 12 22 31 30.0020000  0  6G18G19G11G16G 6G 2
  24469124.541    19501925.883 5  15179503.19721
  22132140.104     5604670.708 6   4365670.26622
  24214568.8144    2071510.90046   1653502.33361
  24754427.5884    1365769.68944   1071995.05961
  23143907.955    -8160208.446 6  -4231376.07521
  21677191.533   -11696801.608 8  -9082163.73423
 91  4 12 22 31 45.0020000  0  6G18G19G11G16G 6G 2
  24480367.900    19561032.925 5  15225560.39221
  22136845.4944    5629394.32346   4384935.38462
  24221497.400     2107945.064 6   1681892.56621
  24759237.682     1391091.505 4   1091726.20321
  23139191.1894   -8184985.39446  -4250682.68661
  21675402.268   -11706192.922 7  -9089481.59523
 91  4 12 22 32  0.0020000  0  6G18G19G11G16G 6G 2
  24491626.674    19620169.596 5  15271640.69221
  22141564.2054    5654181.37846   4404249.93862
  24228454.7364    2144502.33346   1710378.71761
  24764057.0334    1416505.89742   1111529.46361
  23134480.502    -8209753.614 6  -4269982.52121
  21673628.447   -11715511.554 7  -9096742.82623
 91  4 12 22 32 15.0020000  0  6G18G19G11G16G 6G 2
  24502885.135    19679335.780 5  15317744.00021
  22146292.471     5679032.019 6   4423614.05222
  24235435.8614    2181182.46246   1738960.61061
  24768924.9394    1442012.65044   1131404.67961
  23129767.4084   -8234512.74746  -4289275.25661
  21671871.541   -11724757.405 7  -9103947.33923
 91  4 12 22 32 30.0020000  0  6G18G19G11G16G 6G 2
  24514149.9634   19738531.22545  15363870.06561
  22151033.0334    5703946.37246   4443027.80162
  24242442.5414    2217985.11946   1767637.96261
  24773792.986     1467611.185 4   1151351.45221
  23125057.6974   -8259262.74546  -4308560.86661
  21670123.307   -11733930.539 7  -9111095.18423
 91  4 12 22 32 45.0020000  0  6G18G19G11G16G 6G 2
  24525422.6354   19797753.12745  15410016.77961
  22155788.7754    5728922.44146   4462489.63862
  24249466.5334    2254907.96846   1796408.98861
  24778685.9944    1493299.50444   1171368.20861
  23120347.1434   -8284005.68646  -4327840.98661
  21668393.018   -11743033.183 7  -9118188.11023
 91  4 12 22 33  0.0020000  0  6G18G19G11G16G 6G 2
  24536693.916    19857004.680 5  15456186.60021
  22160551.8934    5753963.49946   4482002.11762
  24256516.4634    2291953.90546   1825275.91461
  24783593.338     1519080.292 5   1191456.98521
  23115640.1894   -8308738.35746  -4347113.10361
  21666673.596   -11752062.151 7  -9125223.62423
 91  4 12 22 33 15.0020000  0  6G18G19G11G16G 6G 2
  24547979.7604   19916283.74645  15502377.82861
  22165329.2524    5779067.64246   4501563.76262
  24263585.963     2329120.723 6   1854237.05621
  24788522.580     1544951.505 5   1211616.21821
  23110937.9714   -8333462.44746  -4366378.55061
  21664968.416   -11761019.391 7  -9132203.24123
 91  4 12 22 33 30.0020000  0  5G18G19G11G 6G 2
  24559260.463    19975591.980 5  15548591.81021
  22170118.9474    5804237.01946   4521176.21762
  24270683.346     2366410.210 6   1883293.78021
  23106230.143    -8358175.905 6  -4385635.69921
  21663278.416   -11769902.993 7  -9139125.47923
 91  4 12 22 33 45.0020000  0  5G18G19G11G 6G 2
  24570550.104    20034926.324 5  15594826.15421
  22174920.4554    5829468.82646   4540837.34562
  24277803.2754    2403819.35846   1912443.72461
  23101533.4554   -8382881.43346  -4404886.66961
  21661603.197   -11778715.820 7  -9145992.57023
 91  4 12 22 34  0.0020000  0  5G18G19G11G 6G 2
  24581848.744    20094287.323 5  15641081.24521
  22179732.4244    5854764.01446   4560547.84362
  24284946.9864    2441348.52346   1941687.19261
  23096828.3694   -8407578.33046  -4424130.91161
  21659938.658   -11787457.019 7  -9152803.84423
 91  4 12 22 34 15.0020000  0  5G18G19G11G 6G 2
  24593148.7444   20153675.23145  15687357.28861
  22184558.3614    5880123.25146   4580308.25462
  24292109.1194    2478998.08946   1971024.47661
  23092133.7604   -8432265.78846  -4443367.81661
  21658286.791   -11796126.116 7  -9159558.93623
 91  4 12 22 34 30.0020000  0  5G18G19G11G 6G 2
  24604454.361    20213091.019 5  15733655.07421
  22189396.1744    5905547.82646   4600119.58062
  24299296.0644    2516769.12846   2000456.43061
  23087436.486    -8456942.286 6  -4462596.15421
  21656653.697   -11804721.938 7  -9166256.93123
 91  4 12 22 34 45.0020000  0  5G18G19G11G 6G 2
  24615770.252    20272532.056 5  15779972.54721
  22194248.2834    5931035.18246   4619979.82162
  24306508.6974    2554658.87746   2029980.86861
  23082746.119    -8481610.424 6  -4481818.00421
  21655029.479   -11813247.050 7  -9172899.82423
 91  4 12 22 35  0.0020000  0  5G18G19G11G 6G 2
  24627083.533    20331996.758 5  15826308.44821
  22199108.1584    5956584.20646   4639888.11162
  24313738.1894    2592665.64446   2059596.49361
  23078049.080    -8506271.356 6  -4501034.22821
  21653421.729   -11821702.725 8  -9179488.61823
 91  4 12 22 35 15.0020000  0  5G18G19G11G 6G 2
  24638403.7834   20391485.23545  15872662.89661
  22203985.2914    5982195.31646   4659844.78762
  24320994.744     2630789.680 6   2089303.50421
  23073359.861    -8530924.548 6  -4520244.42621
  21651825.479   -11830088.587 8  -9186023.00923
 91  4 12 22 35 30.0020000  0  5G18G19G11G 6G 2
  24649729.033    20450999.621 5  15919037.52021
  22208872.0254    6007870.98646   4679851.77062
  24328271.1114    2669033.01846   2119103.47761
  23068669.7834   -8555567.53846  -4539446.66061
  21650244.104   -11838402.353 7  -9192501.22323
 91  4 12 22 35 45.0020000  0  5G18G19G11G 6G 2
  24661063.3074   20510540.39545  15965432.68061
  22213768.4554    6033612.29146   4699909.89062
  24335570.432     2707396.340 6   2148996.95021
  23063983.1584   -8580199.34346  -4558640.19161
  21648675.619   -11846643.098 8  -9198922.54023
 91  4 12 22 36  0.0020000  0  5G18G19G11G 6G 2
  24672399.4714   20570103.19545  16011845.04061
  22218675.7914    6059415.02146   4720015.88362
  24342896.2054    2745875.26446   2178980.49761
  23059300.0804   -8604823.91646  -4577828.07561
  21647120.314   -11854815.003 8  -9205290.21023
 91  4 12 22 36 15.0020000  0  5G18G19G11G 6G 2
  24683742.104    20629691.077 5  16058276.92721
  22223599.736     6085282.441 6   4740172.27122
  24350240.0644    2784472.67246   2209056.36361
  23054612.8304   -8629437.92946  -4597007.73961
  21645579.760   -11862914.933 8  -9211601.79623
 91  4 12 22 36 30.0020000  0  5G18G19G11G 6G 2
  24695081.3694   20689303.26045  16104727.72561
  22228533.9244    6111214.24146   4760378.83062
  24357608.9004    2823187.91446   2239224.04661
  23049931.0024   -8654041.76746  -4616179.46561
  21644050.330   -11870943.506 8  -9217857.78623
 91  4 12 22 36 45.0020000  0  5G18G19G11G 6G 2
  24706424.9324   20748938.43645  16151196.46061
  22233480.0184    6137209.43346   4780634.78862
  24364996.4164    2862019.56646   2269482.43861
  23045248.9474   -8678636.51546  -4635344.11961
  21642536.799   -11878901.647 8  -9224058.88623
 91  4 12 22 37  0.0020000  0  5G18G19G11G 6G 2
  24717779.0494   20808596.26145  16197682.83761
  22238441.2294    6163268.20946   4800940.28662
  24372407.6894    2900967.36346   2299831.33661
  23040570.5104   -8703221.99346  -4654501.54861
  21641035.596   -11886789.372 8  -9230205.12023
 91  4 12 22 37 15.0020000  0  5G18G19G11G 6G 2
  24729133.5334   20868276.71845  16244186.84561
  22243411.1044    6189390.90946   4821295.60062
  24379843.5024    2940031.30146   2330270.73261
  23035898.627    -8727797.853 6  -4673651.48121
  21639548.033   -11894606.653 8  -9236296.46923
 91  4 12 22 37 30.0020000  0  5G18G19G11G 6G 2
  24740498.463    20927978.749 5  16290707.67721
  22248393.0884    6215576.78146   4841700.13762
  24387294.7834    2979210.36746   2360799.84661
  23031219.861    -8752364.644 6  -4692794.35521
  21638073.213   -11902354.186 8  -9242333.46023
 91  4 12 22 37 45.0020000  0  5G18G19G11G 6G 2
  24751865.986    20987702.300 5  16337245.26421
  22253389.1974    6241825.82146   4862153.89262
  24394776.7134    3018504.21546   2391418.39961
  23026547.018    -8776922.379 6  -4711930.17421
  21636612.893   -11910032.038 8  -9248316.15823
 91  4 12 22 38  0.0020000  0  5G18G19G11G 6G 2
  24763231.689    21047447.590 5  16383799.81321
  22258396.275     6268138.707 6   4882657.39522
  24402273.0884    3057913.20146   2422126.65461
  23021877.1114   -8801470.33346  -4731058.36061
  21635165.104   -11917639.691 8  -9254244.15323
 91  4 12 22 38 15.0020000  0  5G18G19G11G 6G 2
  24774605.9794   21107214.54445  16430371.22161
  22263417.0494    6294515.83546   4903210.96662
  24409796.5884    3097437.28746   2452924.62061
  23017206.557    -8826008.138 6  -4750178.64021
  21633731.111   -11925176.959 8  -9260117.30623
 91  4 12 22 38 30.0020000  0  5G18G19G11G 6G 2
  24785983.7294   21167003.40645  16476959.70761
  22268451.0644    6320957.64446   4923814.93762
  24417338.1974    3137076.71746   2483812.46061
  23012538.439    -8850535.075 6  -4769290.46421
  21632309.955   -11932643.479 8  -9265935.33023
 91  4 12 22 38 45.0020000  0  5G18G19G11G 6G 2
  24797365.080    21226814.999 5  16523565.91621
  22273491.9634    6347465.36846   4944470.26562
  24424902.2214    3176832.24646   2514790.75961
  23007873.283    -8875050.143 6  -4788393.03021
  21630902.9324  -11940038.03248  -9271697.27863
 91  4 12 22 39  0.0020000  0  5G18G19G11G 6G 2
  24808750.3934   21286646.10445  16570187.34561
  22278548.6584    6374036.44746   4965174.97262
  24432491.6664    3216700.83546   2545857.14761
  23003210.557    -8899555.885 6  -4807488.33021
  21629507.3544  -11947363.45548  -9277405.35863
 91  4 12 22 39 15.0020000  0  5G18G19G11G 6G 2
  24820141.2754   21346497.57645  16616824.59261
  22283616.1114    6400671.84546   4985929.78662
  24440100.1974    3256683.15846   2577012.17461
  22998550.127    -8924051.200 6  -4826575.50621
  21628128.4004  -11954618.87748  -9283058.89563
 91  4 12 22 39 30.0020000  0  5G18G19G11G 6G 2
  24831531.9714   21406365.62645  16663474.79361
  22288698.221     6427367.913 6   5006731.87722
  24447725.924     3296775.264 6   2608252.73521
  22993889.0254   -8948539.65146  -4845657.32361
  21626759.525   -11961807.952 8  -9288660.72523
 91  4 12 22 39 45.0020000  0  5G18G19G11G 6G 2
  24842928.5184   21466254.81245  16710141.44461
  22293788.4864    6454129.54146   5027585.05162
  24455375.8464    3336981.61546   2639582.32361
  22989231.182    -8973016.466 6  -4864730.08721
  21625406.174   -11968926.024 8  -9294207.23023
 91  4 12 22 40  0.0020000  0  5G18G19G11G 6G 2
  24854325.502    21526163.887 4  16756823.59021
  22298897.5644    6480955.76046   5048488.55762
  24463051.6354    3377301.09746   2671000.06861
  22984574.2214   -8997482.31346  -4883794.30561
  21624063.9084  -11975974.07348  -9299699.17863
 91  4 12 22 40 15.0020000  0  5G18G19G11G 6G 2
  24865725.354    21586091.269 4  16803520.00521
  22304012.674     6507845.677 6   5069441.69422
  24470744.549     3417732.263 6   2702504.83021
  22979920.893    -9021938.146 6  -4902850.72321
  21622736.4554  -11982953.37248  -9305137.55963
 91  4 12 22 40 30.0020000  0  5G18G19G11G 6G 2
  24877134.6274   21646034.94445  16850229.12561
  22309140.666     6534797.688 6   5090443.21022
  24478461.096     3458273.146 6   2734095.07621
  22975272.650    -9046385.811 6  -4921900.76421
  21621419.9004  -11989865.43448  -9310523.54163
 91  4 12 22 40 45.0020000  0  5G18G19G11G 6G 2
  24888554.0334   21706001.43545  16896956.02861
  22314280.205     6561818.498 6   5111498.35622
  24486196.2134    3498930.15646   2765775.83861
  22970622.338    -9070818.270 6  -4940938.95821
  21620118.7914  -11996703.53948  -9315851.89563
 91  4 12 22 41  0.0020000  0  5G18G19G11G 6G 2
  24899972.588    21765984.641 5  16943695.93221
  22319433.6114    6588902.44446   5132602.68862
  24493958.8694    3539697.33146   2797542.41161
  22965973.1664   -9095240.95946  -4959969.55461
  21618831.260   -12003473.667 8  -9321127.28123
 91  4 12 22 41 15.0020000  0  5G18G19G11G 6G 2
  24911384.2604   21825982.95745  16990447.65661
  22324598.4324    6616048.10546   5153755.10862
  24501730.283     3580572.712 6   2829393.33421
  22961326.9944   -9119655.72746  -4978993.98561
  21617555.2754  -12010177.32548  -9326350.87263
 91  4 12 22 41 30.0020000  0  5G18G19G11G 6G 2
  24922802.7994   21885993.16445  17037208.60461
  22329777.979     6643252.639 6   5174953.40022
  24509529.0494    3621553.18946   2861326.14261
  22956681.799    -9144065.100 6  -4998014.19221
  21616291.6894  -12016817.33348  -9331524.86163
 91  4 12 22 41 45.0020000  0  5G18G19G11G 6G 2
  24934226.3614   21946020.55945  17083983.00261
  22334968.5644    6670521.49046   5196201.81262
  24517351.268     3662643.911 6   2893344.84021
  22952037.385    -9168463.598 6  -5017025.93421
  21615041.2444  -12023388.48148  -9336645.20763
 91  4 12 22 42  0.0020000  0  5G18G19G11G 6G 2
  24945649.736    22006064.794 5  17130770.51921
  22340167.322     6697854.822 6   5217500.46722
  24525193.5494    3703844.63046   2925449.25161
  22947397.213    -9192851.113 6  -5036029.11221
  21613803.2294  -12029890.76648  -9341711.88163
 91  4 12 22 42 15.0020000  0  5G18G19G11G 6G 2
  24957085.463    22066125.091 5  17177570.48821
  22345384.252     6725252.380 6   5238849.17022
  24533050.650     3745154.729 6   2957638.88821
  22942758.8224   -9217227.73846  -5055023.82061
  21612579.705   -12036324.576 8  -9346725.20023
 91  4 12 22 42 30.0020000  0  5G18G19G11G 6G 2
  24968519.1504   22126203.42345  17224384.57461
  22350607.1824    6752716.35946   5260249.63662
  24540930.5024    3786576.17646   2989915.31861
  22938122.885    -9241591.054 6  -5074008.15021
  21611368.979   -12042687.699 8  -9351683.43423
 91  4 12 22 42 45.0020000  0  5G18G19G11G 6G 2
  24979956.2294   22186298.52945  17271211.66661
  22355847.8464    6780245.67346   5281701.00862
  24548837.150     3828107.327 6   3022277.21621
  22933491.760    -9265942.269 6  -5092983.05321
  21610171.0334  -12048981.39748  -9356587.57963
 91  4 12 22 43  0.0020000  0  5G18G19G11G 6G 2
  24991384.479    22246407.123 4  17318049.31221
  22361098.697     6807837.399 6   5303201.01422
  24556759.236     3869745.112 6   3054722.19021
  22928856.088    -9290284.229 6  -5111950.73021
  21608985.4244  -12055208.64748  -9361439.95563
 91  4 12 22 43 15.0020000  0  5G18G19G11G 6G 2
  25002825.283    22306529.215 4  17364897.43121
  22366361.7364    6835492.11046   5324750.10162
  24564704.7684    3911489.45846   3087250.20961
  22924226.0334   -9314616.49046  -5130910.86661
  21607812.1974  -12061369.14348  -9366240.30263
 91  4 12 22 43 30.0020000  0  4G19G11G 6G 2
  22371634.1044    6863207.46746   5346346.44962
  24572668.588     3953337.823 6   3119859.28421
  22919596.6584   -9338941.26046  -5149865.17161
  21606652.4634  -12067465.38848  -9370990.58563
 91  4 12 22 43 45.0020000  0  4G19G11G 6G 2
  22376921.7134    6890986.60146   5367992.49662
  24580650.877     3995293.052 6   3152551.63221
  22914968.6974   -9363255.18746  -5168811.02361
  21605506.2914  -12073494.22748  -9375688.34263
 91  4 12 22 44  0.0020000  0  4G19G11G 6G 2
  22382221.3934    6918829.10646   5389687.91062
  24588656.2364    4037354.56046   3185326.79461
  22910345.4084   -9387558.44746  -5187748.56661
  21604371.6044  -12079456.01548  -9380333.84963
 91  4 12 22 44 15.0020000  0  4G19G11G 6G 2
  22387532.330     6946732.270 6   5411430.59022
  24596679.7754    4079519.05046   3218182.21761
  22905721.6974   -9411853.91646  -5206680.02361
  21603248.7134  -12085353.74948  -9384929.44663
 91  4 12 22 44 30.0020000  0  4G19G11G 6G 2
  22392851.064     6974699.122 6   5433222.90822
  24604725.0644    4121789.07746   3251119.87861
  22901101.4084   -9436138.65446  -5225603.12961
  21602139.018   -12091184.545 8  -9389472.88223
 91  4 12 22 44 45.0020000  0  4G19G11G 6G 2
  22398186.0574    7002730.06346   5455065.15862
  24612786.705     4164164.615 6   3284139.72621
  22896479.9244   -9460412.19146  -5244517.51161
  21601044.1044  -12096948.30648  -9393964.08563
 91  4 12 22 45  0.0020000  0  4G19G11G 6G 2
  22403529.221     7030825.595 6   5476957.73822
  24620870.0804    4206645.64846   3317241.81361
  22891862.5724   -9484673.85146  -5263422.64161
  21599958.8144  -12102644.60648  -9398402.72063
 91  4 12 22 45 15.0020000  0  4G19G11G 6G 2
  22408890.4244    7058985.81046   5498900.72062
  24628976.7524    4249232.11246   3350426.02761
  22887245.7054   -9508923.65546  -5282318.52561
  21598887.3144  -12108273.38248  -9402788.74263
 91  4 12 22 45 30.0020000  0  4G19G11G 6G 2
  22414263.033     7087210.992 6   5520894.32022
  24637100.2294    4291924.00146   3383692.41661
  22882637.6354   -9533161.06546  -5301204.75261
  21597831.1824  -12113834.51648  -9407122.04963
 91  4 12 22 45 45.0020000  0  4G19G11G 6G 2
  22419646.080     7115496.748 6   5542935.12022
  24645240.7524    4334716.62646   3417037.26061
  22878024.5024   -9557390.47546  -5320084.74561
  21596784.1354  -12119332.37348  -9411406.05763
 91  4 12 22 46  0.0020000  0  4G19G11G 6G 2
  22425036.775     7143845.029 6   5565024.64822
  24653401.8854    4377611.43446   3450461.74561
  22873419.7684   -9581609.87346  -5338956.94561
  21595750.6584  -12124765.15548  -9415639.35563
 91  4 12 22 46 15.0020000  0  4G19G11G 6G 2
  22430444.689     7172256.460 6   5587163.37722
  24661586.9794    4420608.77346   3483966.11861
  22868812.9244   -9605818.55746  -5357820.78661
  21594727.432   -12130132.356 8  -9419821.54923
 91  4 12 22 46 30.0020000  0  4G19G11G 6G 2
  22435865.9324    7200730.56046   5609350.94662
  24669784.221     4463707.863 6   3517549.78121
  22864206.3304   -9630016.71646  -5376676.42561
  21593718.760   -12135434.499 8  -9423953.04423
 91  4 12 22 46 45.0020000  0  4G19G11G 6G 2
  22441294.463     7229268.329 6   5631588.12022
  24678012.5804    4506909.32246   3551213.21061
  22859601.4474   -9654203.51146  -5395523.20761
  21592721.9554  -12140670.85748  -9428033.28363
 91  4 12 22 47  0.0020000  0  4G19G11G 6G 2
  22446737.010     7257866.597 6   5653872.44122
  24686247.393     4550209.603 6   3584953.64021
  22855002.775    -9678381.896 6  -5414363.43721
  21591737.8934  -12145844.67148  -9432064.78863
 91  4 12 22 47 15.0020000  0  4G19G11G 6G 2
  22452191.0884    7286529.10546   5676206.82062
  24694506.354     4593612.023 5   3618773.67321
  22850406.6824   -9702548.26546  -5433194.30761
  21590767.150   -12150952.358 8  -9436044.76123
 91  4 12 22 47 30.0020000  0  4G19G11G 6G 2
  22457654.111     7315251.943 6   5698588.21322
  24702787.0024    4637112.28146   3652669.92961
  22845808.3934   -9726706.39046  -5452018.75061
  21589805.6894  -12155997.82248  -9439976.25863
 91  4 12 22 47 45.0020000  0  4G19G11G 6G 2
  22463136.158     7344042.121 6   5721022.06922
  24711082.2134    4680717.07746   3686647.65161
  22841211.955    -9750849.048 6  -5470831.13921
  21588857.7214  -12160974.19148  -9443853.91363
 91  4 12 22 48  0.0020000  0  4G19G11G 6G 2
  22468627.291     7372895.674 6   5743505.31722
  24719400.9164    4724422.02946   3720703.41461
  22836619.814    -9774980.112 6  -5489634.48521
  21587922.2914  -12165885.44248  -9447680.82463
 91  4 12 22 48 15.0020000  0  4G19G11G 6G 2
  22474128.791     7401814.425 6   5766039.35622
  24727737.471     4768228.460 6   3754838.23521
  22832032.596    -9799097.906 6  -5508427.49721
  21587001.3854  -12170729.95048  -9451455.72563
 91  4 12 22 48 30.0020000  0  4G19G11G 6G 2
  22479644.0884    7430801.17646   5788626.39562
  24736093.697     4812138.935 6   3789054.15621
  22827446.0884   -9823199.46346  -5527207.85861
  21586093.9474  -12175505.17548  -9455176.63963
 91  4 12 22 48 45.0020000  0  4G19G11G 6G 2
  22485172.1744    7459856.55646   5811266.90762
  24744468.5644    4856153.76546   3823351.37561
  22822859.283    -9847283.875 6  -5545974.86521
  21585198.4554  -12180210.43948  -9458843.04763
 91  4 12 22 49  0.0020000  0  4G19G11G 6G 2
  22490716.486     7488979.010 6   5833959.68322
  24752864.807     4900270.937 6   3857728.37121
  22818280.182    -9871352.875 6  -5564729.85221
  21584314.6824  -12184847.51448  -9462456.31363
 91  4 12 22 49 15.0020000  0  4G19G11G 6G 2
  22496273.783     7518171.425 6   5856706.97722
  24761278.447     4944492.872 6   3892186.96621
  22813705.549    -9895403.621 7  -5583470.61421
  21583447.8384  -12189413.85748  -9466014.46863
 91  4 12 22 49 30.0020000  0  4G19G11G 6G 2
  22501838.2444    7547427.59246   5879503.94962
  24769713.572     4988813.153 6   3926722.21621
  22809131.822    -9919441.929 6  -5602201.68621
  21582591.4714  -12193915.66348  -9469522.33163
 91  4 12 22 49 45.0020000  0  4G19G11G 6G 2
  22507418.674     7576749.370 6   5902352.04522
  24778168.2994    5033233.24146   3961335.19361
  22804559.9864   -9943465.99946  -5620921.67361
  21581745.9634  -12198351.15448  -9472978.52063
 91  4 12 22 50  0.0020000  0  4G19G11G 6G 2
  22513010.127     7606135.521 6   5925250.29922
  24786639.002     5077751.404 6   3996024.63521
  22799990.869    -9967477.040 6  -5639631.50421
  21580913.6584  -12202721.48248  -9476383.93063
 91  4 12 22 50 15.0020000  0  4G19G11G 6G 2
  22518613.791     7635587.932 6   5948200.18121
  24795129.900     5122369.328 6   4030791.77721
  22795422.143    -9991472.987 7  -5658329.56321
  21580094.7524  -12207024.92748  -9479737.22963
 91  4 12 22 50 30.0020000  0  4G19G11G 6G 2
  22524233.596     7665102.573 6   5971198.55921
  24803635.486     5167082.556 5   4065633.19421
  22790857.986   -10015457.784 6  -5677018.93722
  21579287.1274  -12211265.60448  -9483041.61963
 91  4 12 22 50 45.0020000  0  4G19G11G 6G 2
  22529861.963     7694681.923 6   5994247.35522
  24812163.1824    5211893.20045   4100550.50261
  22786294.822   -10039428.810 6  -5695697.57221
  21578493.7294  -12215441.19648  -9486295.29563
 91  4 12 22 51  0.0020000  0  4G19G11G 6G 2
  22535503.393     7724325.363 6   6017346.09022
  24820707.518     5256800.324 6   4135543.02121
  22781738.893   -10063386.660 6  -5714365.94921
  21577710.5024  -12219552.27048  -9489498.69663
 91  4 12 22 51 15.0020000  0  4G19G11G 6G 2
  22541156.791     7754034.971 6   6040496.38122
  24829270.354     5301805.396 6   4170611.86121
  22777181.369   -10087329.197 6  -5733022.39221
  21576940.4634  -12223597.16148  -9492650.52263
 91  4 12 22 51 30.0020000  0  4G19G11G 6G 2
  22546823.221     7783809.526 6   6063697.28421
  24837857.1504    5346907.07246   4205755.98161
  22772627.346   -10111257.533 6  -5751667.77621
  21576184.2754  -12227577.10148  -9495751.74263
 91  4 12 22 51 45.0020000  0  4G19G11G 6G 2
  22552500.088     7813645.174 6   6086945.78621
  24846457.3464    5392101.16746   4240972.12661
  22768077.736   -10135175.417 6  -5770305.00621
  21575438.9864  -12231495.99748  -9498805.39463
 91  4 12 22 52  0.0020000  0  4G19G11G 6G 2
  22558189.322     7843543.583 6   6110243.19122
  24855074.0804    5437388.78246   4276261.13261
  22763528.2294  -10159081.14347  -5788932.74561
  21574704.0104  -12235352.50948  -9501810.44163
 91  4 12 22 52 15.0020000  0  4G19G11G 6G 2
  22563889.330     7873507.720 6   6133591.83122
  24863713.916     5482772.654 6   4311625.14821
  22758982.143   -10182971.712 7  -5807548.69821
  21573984.5024  -12239143.63148  -9504764.52863
 91  4 12 22 52 30.0020000  0  4G19G11G 6G 2
  22569606.369     7903536.406 6   6156990.74921
  24872367.0334    5528251.34246   4347063.05261
  22754440.8544  -10206847.91447  -5826153.46161
  21573273.7994  -12242870.61948  -9507668.64463
 91  4 12 22 52 45.0020000  0  4G19G11G 6G 2
  22575331.041     7933629.025 6   6180439.49122
  24881039.2214    5573823.78146   4382573.98461
  22749897.330   -10230710.379 6  -5844747.50321
  21572578.8614  -12246533.99848  -9510523.19563
 91  4 12 22 53  0.0020000  0  4G19G11G 6G 2
  22581068.807     7963787.973 6   6203939.92321
  24889725.697     5619491.822 6   4418159.40921
  22745359.5414  -10254556.66347  -5863328.93561
  21571891.5104  -12250131.72848  -9513326.59363
 91  4 12 22 53 15.0020000  0  4G19G11G 6G 2
  22586823.549     7994008.853 6   6227488.61621
  24898438.8614    5665250.70646   4453815.63461
  22740822.807   -10278391.101 7  -5881901.14121
  21571219.5104  -12253668.41348  -9516082.42163
 91  4 12 22 53 30.0020000  0  4G19G11G 6G 2
  22592582.791     8024294.499 6   6251087.76421
  24907163.7834    5711103.11046   4489544.73361
  22736292.838   -10302210.768 7  -5900461.84721
  21570557.8384  -12257141.16148  -9518788.42763
 91  4 12 22 53 45.0020000  0  4G19G11G 6G 2
  22598359.283     8054643.573 6   6274736.34621
  24915903.291     5757047.302 6   4525345.34321
  22731762.650   -10326016.838 7  -5919011.95021
  21569909.1664  -12260551.35248  -9521445.69163
 91  4 12 22 54  0.0020000  0  4G19G11G 6G 2
  22604147.486     8085057.537 6   6298435.48021
  24924662.9474    5803084.26345   4561218.24561
  22727232.525   -10349807.741 7  -5937550.24721
  21569273.252   -12263897.640 8  -9524053.15923
 91  4 12 22 54 15.0020000  0  4G19G11G 6G 2
  22609946.377     8115532.819 6   6322182.41621
  24933441.775     5849209.864 6   4597160.24821
  22722708.182   -10373587.210 7  -5956079.62722
  21568646.4004  -12267183.82648  -9526613.79363
 91  4 12 22 54 30.0020000  0  4G19G11G 6G 2
  22615755.643     8146072.368 6   6345979.41321
  24942236.4394    5895426.92246   4633173.47061
  22718190.166   -10397351.960 7  -5974597.53121
  21568033.8304  -12270407.02048  -9529125.34363
 91  4 12 22 54 45.0020000  0  4G19G11G 6G 2
  22621581.846     8176676.997 6   6369827.12322
  24951047.119     5941735.845 5   4669258.32321
  22713665.877   -10421101.078 7  -5993103.25521
  21567431.5494  -12273566.52648  -9531587.26063
 91  4 12 22 55  0.0020000  0  4G19G11G 6G 2
  22627417.861     8207344.228 6   6393723.61121
  24959876.9394    5988133.77446   4705412.49261
  22709148.3694  -10444837.06047  -6011598.75961
  21566843.0964  -12276664.78848  -9534001.45963
 91  4 12 22 55 15.0020000  0  4G19G11G 6G 2
  22633263.885     8238078.042 6   6417671.99121
  24968727.744     6034624.301 6   4741638.83021
  22704634.6044  -10468555.64747  -6030080.70561
  21566264.8224  -12279698.26648  -9536365.16763
 91  4 12 22 55 30.0020000  0  4G19G11G 6G 2
  22639123.971     8268875.987 6   6441670.34221
  24977588.9084    6081204.44145   4777934.98361
  22700126.674   -10492259.534 7  -6048551.19821
  21565699.2524  -12282669.57548  -9538680.44563
 91  4 12 22 55 45.0020000  0  4G19G11G 6G 2
  22644998.346     8299736.460 6   6465717.41421
  24986467.6744    6127872.41345   4814299.58661
  22695616.197   -10515949.885 7  -6067011.13621
  21565145.5184  -12285580.28348  -9540948.49863
 91  4 12 22 56  0.0020000  0  4G19G11G 6G 2
  22650882.369     8330660.423 6   6489813.96021
  24995367.596     6174628.833 6   4850733.14421
  22691110.7604  -10539625.65947  -6085459.73161
  21564603.2444  -12288429.54848  -9543168.67463
 91  4 12 22 56 15.0020000  0  4G19G11G 6G 2
  22656779.596     8361648.291 6   6513960.30421
  25004278.9554    6221473.79245   4887235.66561
  22686608.2914  -10563286.44247  -6103896.62861
  21564073.5644  -12291217.02948  -9545340.70963
 91  4 12 22 56 30.0020000  0  4G19G11G 6G 2
  22662687.9794    8392698.49146   6538155.20461
  25013211.7214    6268405.29445   4923805.62461
  22682108.0104  -10586933.52347  -6122322.85562
  21563553.9944  -12293944.26648  -9547465.79763
 91  4 12 22 56 45.0020000  0  4G19G11G 6G 2
  22668609.760     8423813.449 6   6562400.57521
  25022157.455     6315425.381 5   4960444.62521
  22677612.205   -10610564.303 7  -6140736.37622
  21563047.6434  -12296608.90948  -9549542.11063
 91  4 12 22 57  0.0020000  0  4G19G11G 6G 2
  22674542.533     8454997.333 6   6586699.65621
  25031122.752     6362537.754 5   4997155.50721
  22673118.2754  -10634174.71347  -6159134.03361
  21562552.2524  -12299206.90748  -9551566.48963
 91  4 12 22 57 15.0020000  0  4G19G11G 6G 2
  22680492.486     8486245.281 6   6611048.64921
  25040106.3074    6409737.39045   5033934.42761
  22668631.1274  -10657769.43047  -6177519.46561
  21562070.9004  -12301743.26848  -9553542.84063
 91  4 12 22 57 30.0020000  0  4G19G11G 6G 2
  22686448.4324    8517558.68846   6635448.64362
  25049107.963     6457025.237 5   5070782.03521
  22664142.9714  -10681346.95847  -6195891.50061
  21561598.8614  -12304216.69748  -9555470.15263
 91  4 12 22 57 45.0020000  0  4G19G11G 6G 2
  22692419.838     8548936.533 6   6659898.85322
  25058116.783     6504399.848 5   5107697.28121
  22659658.611   -10704908.119 7  -6214250.77821
  21561140.1664  -12306628.27048  -9557349.26963
 91  4 12 22 58  0.0020000  0  4G19G11G 6G 2
  22698404.236     8580374.646 6   6684396.03622
  25067151.6194    6551856.51745   5144676.45161
  22655178.2604  -10728457.20147  -6232600.64362
  21560692.1824  -12308982.44648  -9559183.65963
 91  4 12 22 58 15.0020000  0  4G19G11G 6G 2
  22704397.2524    8611878.28746   6708944.27062
  25076200.252     6599400.195 6   5181723.41121
  22650700.2914  -10751988.72947  -6250936.83361
  21560256.2214  -12311274.16548  -9560969.37763
 91  4 12 22 58 30.0020000  0  4G19G11G 6G 2
  22710404.2444    8643445.33946   6733541.91661
  25085263.924     6647028.481 6   5218836.31821
  22646223.268   -10775504.659 7  -6269260.87222
  21559831.1584  -12313505.58348  -9562708.11263
 91  4 12 22 58 45.0020000  0  4G19G11G 6G 2
  22716425.0574    8675076.17646   6758189.26461
  25094344.455     6694741.344 5   5256015.09521
  22641752.4004  -10799004.56247  -6287572.42762
  21559417.7754  -12315676.31048  -9564399.55363
 91  4 12 22 59  0.0020000  0  4G19G11G 6G 2
  22722457.8934    8706770.92246   6782886.41462
  25103438.619     6742538.674 6   5293259.73521
  22637282.8614  -10822487.92847  -6305871.09162
  21559017.4394  -12317786.07448  -9566043.49263
 91  4 12 22 59 15.0020000  0  4G19G11G 6G 2
  22728497.3544    8738524.77246   6807629.61062
  25112547.5884    6790415.19145   5330566.03261
  22632815.8144  -10845959.61947  -6324160.65262
  21558627.4714  -12319840.07648  -9567643.98163
 91  4 12 22 59 30.0020000  0  4G19G11G 6G 2
  22734552.861     8770342.322 6   6832422.45322
  25121672.705     6838374.960 5   5367937.24521
  22628354.314   -10869415.066 7  -6342437.57122
  21558247.4084  -12321833.92348  -9569197.59763
 91  4 12 22 59 45.0020000  0  4G19G11G 6G 2
  22740619.7444    8802222.45946   6857264.05562
  25130818.018     6886416.674 5   5405372.29221
  22623893.4794  -10892855.07747  -6360702.45862
  21557878.8694  -12323768.59848  -9570705.10263
 91  4 12 23  0  0.0020000  0  4G19G11G 6G 2
  22746698.596     8834165.969 6   6882155.05322
  25139968.4864    6934540.80445   5442871.55661
  22619436.2914  -10916278.72047  -6378954.58362
  21557521.9714  -12325643.51748  -9572166.05163
 91  4 12 23  0 15.0020000  0  4G19G11G 6G 2
  22752787.7444    8866171.92446   6907094.70361
  25149145.6894    6982745.97445   5480433.97461
  22614983.2364  -10939686.86847  -6397194.62962
  21557175.7754  -12327459.71748  -9573581.23163
 91  4 12 23  0 30.0020000  0  4G19G11G 6G 2
  22758890.0334    8898235.31446   6932079.09962
  25158334.604     7031026.861 5   5518055.41321
  22610529.221   -10963084.411 7  -6415426.42522
  21556840.9164  -12329222.32948  -9574954.66563
 91  4 12 23  0 45.0020000  0  4G19G11G 6G 2
  22765001.8934    8930364.65046   6957114.88862
  25167540.0184    7079391.66446   5555742.23761
  22606077.0024  -10986462.54047  -6433643.09562
  21556515.4474  -12330922.95448  -9576279.79463
 91  4 12 23  1  0.0020000  0  4G19G11G 6G 2
  22771128.6194    8962555.81046   6982198.84262
  25176761.174     7127835.654 5   5593490.73621
  22601636.1044  -11009825.48447  -6451847.93162
  21556204.3074  -12332565.89948  -9577559.98663
 91  4 12 23  1 15.0020000  0  4G19G11G 6G 2
  22777266.7444    8994811.70446   7007333.25161
  25185991.955     7176361.591 5   5631303.11121
  22597192.7214  -11033169.95647  -6470038.36262
  21555903.0254  -12334147.95248  -9578792.72163
 91  4 12 23  1 30.0020000  0  4G19G11G 6G 2
  22783416.314     9027131.305 6   7032517.29721
  25195243.189     7224968.054 5   5669178.21721
  22592753.869   -11056496.945 7  -6488215.18422
  21555615.0574  -12335670.64548  -9579979.20563
 91  4 12 23  1 45.0020000  0  3G19G 6G 2
  22789578.7604    9059512.66646   7057749.46261
  22588319.4324  -11079808.34647  -6506379.85662
  21555334.5104  -12337135.89848  -9581120.93163
 91  4 12 23  2  0.0020000  0  3G19G 6G 2
  22795754.2604    9091953.48446   7083027.96361
  22583883.830   -11103106.238 7  -6524534.00022
  21555065.7444  -12338545.88848  -9582219.59663
 91  4 12 23  2 15.0020000  0  3G19G 6G 2
  22801940.2054    9124457.53846   7108355.73661
  22579452.322   -11126386.680 7  -6542674.55422
  21554808.8464  -12339897.05548  -9583272.42163
 91  4 12 23  2 30.0020000  0  3G19G 6G 2
  22808133.5964    9157022.82646   7133731.22261
  22575026.2294  -11149651.61147  -6560803.01162
  21554563.7754  -12341191.47148  -9584281.02863
 91  4 12 23  2 45.0020000  0  3G19G 6G 2
  22814343.7754    9189648.71146   7159153.92861
  22570601.7054  -11172901.59447  -6578919.81562
  21554326.9474  -12342430.27748  -9585246.30563
 91  4 12 23  3  0.0020000  0  3G19G 6G 2
  22820566.2994    9222336.27546   7184624.69761
  22566181.807   -11196135.458 7  -6597024.07722
  21554102.0414  -12343612.33648  -9586167.36063
 91  4 12 23  3 15.0020000  0  3G19G 6G 2
  22826796.4244    9255083.90646   7210142.26361
  22561762.8694  -11219354.62147  -6615116.87662
  21553888.5184  -12344739.22248  -9587045.42363
 91  4 12 23  3 30.0020000  0  3G19G 6G 2
  22833042.775     9287895.532 6   7235709.70621
  22557346.2214  -11242554.84847  -6633194.90962
  21553683.5574  -12345807.01148  -9587877.43663
 91  4 12 23  3 45.0020000  0  3G19G 6G 2
  22839297.0254    9320770.41746   7261326.43461
  22552936.0104  -11265736.78747  -6651258.70162
  21553491.7444  -12346816.52548  -9588664.03763
 91  4 12 23  4  0.0020000  0  3G19G 6G 2
  22845566.0804    9353708.31846   7286992.26661
  22548526.650   -11288900.674 7  -6669308.42622
  21553310.510   -12347768.368 8  -9589405.70923
 91  4 12 23  4 15.0020000  0  3G19G 6G 2
  22851845.8854    9386706.09846   7312704.75361
  22544123.3774  -11312049.32647  -6687346.27462
  21553139.4324  -12348665.55548  -9590104.78763
 91  4 12 23  4 30.0020000  0  3G19G 6G 2
  22858135.1354    9419764.79646   7338464.71661
  22539720.4394  -11335181.61847  -6705371.37962
  21552980.8304  -12349507.03448  -9590760.45763
 91  4 12 23  4 45.0020000  0  3G19G 6G 2
  22864436.8224    9452885.07446   7364272.65361
  22535320.9794  -11358296.65147  -6723383.03662
  21552830.268   -12350292.149 8  -9591372.21023
 91  4 12 23  5  0.0020000  0  3G19G 6G 2
  22870751.2214    9486065.56346   7390127.51761
  22530925.6894  -11381395.88547  -6741382.37162
  21552690.979   -12351022.739 8  -9591941.47523
 91  4 12 23  5 15.0020000  0  3G19G 6G 2
  22877077.869     9519312.575 6   7416034.20022
  22526534.189   -11404472.917 7  -6759364.43122
  21552566.533   -12351692.826 8  -9592463.59923
 91  4 12 23  5 30.0020000  0  3G19G 6G 2
  22883414.5254    9552621.10246   7441988.82661
  22522146.377   -11427532.258 7  -6777332.70122
  21552448.447   -12352307.166 8  -9592942.28423
 91  4 12 23  5 45.0020000  0  3G19G 6G 2
  22889763.5964    9585991.77746   7467991.88662
  22517762.2604  -11450573.24747  -6795286.65462
  21552340.6114  -12352864.92448  -9593376.87363
 91  4 12 23  6  0.0020000  0  3G19G 6G 2
  22896127.7754    9619425.41946   7494043.98462
  22513382.807   -11473594.854 7  -6813225.51122
  21552245.736   -12353365.636 8  -9593767.01323
 91  4 12 23  6 15.0020000  0  3G19G 6G 2
  22902505.7214    9652926.09546   7520148.34462
  22509005.221   -11496592.947 7  -6831146.05022
  21552164.8144  -12353805.32948  -9594109.60963
 91  4 12 23  6 30.0020000  0  3G19G 6G 2
  22908890.307     9686488.951 6   7546301.14821
  22504633.408   -11519572.236 7  -6849051.93722
  21552091.846   -12354188.910 8  -9594408.47723
 91  4 12 23  6 45.0020000  0  3G19G 6G 2
  22915288.7524    9720115.59446   7572503.66162
  22500262.5024  -11542530.81347  -6866941.67462
  21552026.666   -12354514.756 8  -9594662.35923
 91  4 12 23  7  0.0020000  0  3G19G 6G 2
  22921700.3464    9753805.38446   7598755.37961
  22495897.8384  -11565469.17947  -6884815.65962
  21551978.471   -12354783.631 8  -9594871.84523
 91  4 12 23  7 15.0020000  0  3G19G 6G 2
  22928126.3144    9787558.11846   7625056.14262
  22491535.4634  -11588387.39747  -6902673.94862
  21551935.299   -12354995.907 8  -9595037.23423
 91  4 12 23  7 30.0020000  0  3G19G 6G 2
  22934562.408     9821372.949 6   7651405.28222
  22487177.5184  -11611286.34547  -6920517.21962
  21551906.979   -12355152.714 8
 91  4 12 23  7 45.0020000  0  3G19G 6G 2
  22941006.4324    9855251.68346   7677804.22262
  22482826.4004  -11634163.88147  -6938343.81162
  21551884.377   -12355252.130 8
 91  4 12 23  8  0.0020000  0  3G19G 6G 2
  22947461.643     9889188.965 6   7704248.78921
  22478476.2834  -11657025.41547  -6956157.93562
  21551876.752   -12355299.866 8
 91  4 12 23  8 15.0020000  0  3G19G 6G 2
  22953933.6194    9923189.58246   7730742.70861
  22474128.5574  -11679865.79847  -6973955.56662
  21551880.150   -12355290.890 8
 91  4 12 23  8 30.0020000  0  3G19G 6G 2
  22960418.377     9957253.628 6   7757286.04821
  22469786.8304  -11702684.87747  -6991736.60562
  21551894.283   -12355225.232 8
 91  4 12 23  8 45.0020000  0  3G19G 6G 2
  22966911.236     9991381.710 6   7783879.28122
  22465446.7754  -11725481.83547  -7009500.41462
  21551915.025   -12355102.486 8
 91  4 12 23  9  0.0020000  0  3G19G 6G 2
  22973417.9244   10025574.03446   7810522.58662
  22461112.5254  -11748256.21847  -7027246.62562
  21551948.971   -12354922.333 8
 91  4 12 23  9 15.0020000  0  3G19G 6G 2
  22979938.182    10059833.910 6   7837218.51022
  22456787.3934  -11771004.64547  -7044972.60762
  21551994.018   -12354681.806 8
 91  4 12 23  9 30.0020000  0  3G19G 6G 2
  22986467.9084   10094159.15346   7863965.38261
  22452461.4394  -11793729.16447  -7062679.96062
  21552055.877   -12354383.001 8  -9594559.45523
 91  4 12 23  9 45.0020000  0  3G19G 6G 2
  22993014.393    10128552.783 6   7890765.54422
  22448139.5254  -11816426.39547  -7080366.05962
  21552121.455   -12354022.928 8  -9594278.86423
 91  4 12 23 10  0.0020000  0  3G19G 6G 2
  22999570.6504   10163014.20746   7917618.52762
  22443831.5024  -11839096.82047  -7098031.26862
  21552201.557   -12353602.187 8  -9593950.99623
 91  4 12 23 10 15.0020000  0  3G19G 6G 2
  23006141.861    10197542.575 6   7944523.67221
  22439520.4394  -11861741.11547  -7115676.10962
  21552290.744   -12353121.900 8  -9593576.72523
 91  4 12 23 10 30.0020000  0  3G19G 6G 2
  23012725.2444   10232138.84846   7971481.74461
  22435213.8544  -11884358.31347  -7133299.84162
  21552393.158   -12352581.208 8  -9593155.38723
 91  4 12 23 10 45.0020000  0  3G19G 6G 2
  23019324.744    10266802.644 6   7998492.41321
  22430917.0644  -11906948.44047  -7150902.47962
  21552506.885   -12351980.657 8  -9592687.40323
 91  4 12 23 11  0.0020000  0  3G19G 6G 2
  23025927.8694   10301534.14846   8025555.85861
  22426622.5804  -11929511.21947  -7168483.80462
  21552637.330   -12351319.944 8  -9592172.54823
 91  4 12 23 11 15.0020000  0  3G19G 6G 2
  23032552.893    10336331.334 6   8052670.47521
  22422332.8854  -11952048.45947  -7186045.22962
  21552771.064   -12350601.131 8  -9591612.41223
 91  4 12 23 11 30.0020000  0  3G19G 6G 2
  23039188.5574   10371193.98146   8079836.10361
  22418049.5804  -11974560.10347  -7203586.71162
  21552918.275   -12349824.498 8  -9591007.22923
 91  4 12 23 11 45.0020000  0  3G19G 6G 2
  23045832.002    10406121.906 6   8107052.60822
  22413773.7364  -11997046.35747  -7221108.41262
  21553079.502   -12348990.503 8  -9590357.34223
 91  4 12 23 12  0.0020000  0  3G19G 6G 2
  23052497.291    10441115.649 6   8134320.36821
  22409496.854   -12019506.472 7  -7238609.74422
  21553246.338   -12348098.894 8  -9589662.56323
 91  4 12 23 12 15.0020000  0  3G19G 6G 2
  23059161.096    10476180.536 6   8161643.60421
  22405227.6194  -12041934.93047  -7256086.40862
  21553428.064   -12347144.168 8  -9588918.60423
 91  4 12 23 12 30.0020000  0  3G19G 6G 2
  23065845.119    10511308.876 6   8189016.25921
  22400965.7444  -12064339.34447  -7273544.32862
  21553621.955   -12346134.152 8  -9588131.56323
 91  4 12 23 12 45.0020000  0  3G19G 6G 2
  23072543.3304   10546505.67946   8216442.26861
  22396708.510   -12086714.445 7  -7290979.41622
  21553825.807   -12345063.988 8  -9587297.65323
 91  4 12 23 13  0.0020000  0  3G19G 6G 2
  23079267.283    10581767.605 6   8243919.02021
  22392453.7754  -12109063.23847  -7308394.00562
  21554040.338   -12343936.750 8  -9586419.26623
 91  4 12 23 13 15.0020000  0  3G19G 6G 2
  23085983.424    10617094.872 6   8271446.69521
  22388206.0024  -12131385.29747  -7325787.75962
  21554264.721   -12342752.500 8  -9585496.45323
 91  4 12 23 13 30.0020000  0  3G19G 6G 2
  23092713.0574   10652485.35446   8299023.61561
  22383965.135   -12153682.489 7  -7343162.14022
  21554501.080   -12341513.470 8  -9584530.96123
 91  4 12 23 13 45.0020000  0  3G19G 6G 2
  23099458.9474   10687942.23346   8326652.28561
  22379728.486   -12175951.613 7  -7360514.65422
  21554747.721   -12340216.476 8  -9583520.29723
 91  4 12 23 14  0.0020000  0  3G19G 6G 2
  23106218.0254   10723468.16346   8354334.76161
  22375494.4394  -12198189.81647  -7377843.06662
  21555005.307   -12338858.919 8  -9582462.44523
 91  4 12 23 14 15.0020000  0  3G19G 6G 2
  23113000.643    10759063.935 6   8382071.63921
  22371268.189   -12220396.078 7  -7395146.59722
  21555278.221   -12337440.028 8  -9581356.79423
 91  4 12 23 14 30.0020000  0  4G13G19G 6G 2
  24792519.1504         -0.62054
  23119784.439    10794725.463 6   8409859.77521
  22367047.447   -12242574.426 7  -7412428.37822
  21555557.877   -12335964.177 8  -9580206.76323
 91  4 12 23 14 45.0020000  0  4G13G19G 6G 2
  24781943.7604     -55558.51944
  23126578.369    10830453.470 6   8437699.71221
  22362832.885   -12264723.746 7  -7429687.53622
  21555848.314   -12334430.513 8  -9579011.68323
 91  4 12 23 15  0.0020000  0  4G13G19G 6G 2
  24771377.0334    -111090.04844
  23133390.338    10866248.866 6   8465592.15121
  22358623.424   -12286842.844 7  -7446923.15322
  21556152.783   -12332838.073 8  -9577770.80023
 91  4 12 23 15 15.0020000  0  4G13G19G 6G 2
  24760818.0024    -166596.34345
  23140218.0254   10902109.92346   8493535.76661
  22354421.604   -12308933.314 7  -7464136.45922
  21556465.494   -12331188.723 8  -9576485.57623
 91  4 12 23 15 30.0020000  0  4G13G19G 6G 2
  24750260.5644    -222073.53444
  23147056.197    10938040.532 6   8521533.56221
  22350222.775   -12330991.476 7  -7481324.59222
  21556790.408   -12329479.121 8  -9575153.40023
 91  4 12 23 15 45.0020000  0  4G13G19G 6G 2
  24739706.619     -277524.251 4
  23153904.197    10974037.571 6   8549583.13121
  22346030.5334  -12353020.13747  -7498489.74362
  21557127.783   -12327712.260 8  -9573776.60423
 91  4 12 23 16  0.0020000  0  5G13G19G15G 6G 2
  24729158.1274    -332948.93344
  23160770.1744   11010100.10546   8577683.73261
  24975614.8144         -0.28155
  22341845.057   -12375019.872 7  -7515632.34122
  21557473.510   -12325889.040 8  -9572355.89323
 91  4 12 23 16 15.0020000  0  5G13G19G15G 6G 2
  24718617.8694    -388347.86144        -0.30471
  23167643.986    11046227.440 6   8605834.81421
  24971791.9394     -20073.21745
  22337663.744   -12396991.103 7  -7532752.73622
  21557830.393   -12324010.036 8  -9570891.71823
 91  4 12 23 16 30.0020000  0  5G13G19G15G 6G 2
  24708077.1894    -443719.01044    -43146.37361
  23174530.580    11082421.323 6   8634037.77221
  24967988.2994     -40060.30245
  22333487.2364  -12418931.84547  -7549849.38062
  21558200.471   -12322073.646 8  -9569382.81523
 91  4 12 23 16 45.0020000  0  5G13G19G15G 6G 2
  24697541.9474    -499065.82444    -86273.49861
  23181429.314    11118678.052 6   8662289.69121
  24964202.6584     -59965.17045
  22329316.916   -12440845.844 7  -7566925.17622
  21558578.611   -12320083.944 8  -9567832.38023
 91  4 12 23 17  0.0020000  0  5G13G19G15G 6G 2
  24687021.1664    -554384.13744   -129378.36561
  23188346.768    11155000.988 6   8690593.19721
  24960430.1504     -79784.36645
  22325153.471   -12462729.282 7  -7583977.16022
  21558969.385   -12318037.601 8  -9566237.80623
 91  4 12 23 17 15.0020000  0  5G13G19G15G 6G 2
  24676496.689     -609672.306 5   -172459.79921
  23195266.1824   11191391.52846   8718949.38961
  24956673.838      -99515.770 5        -0.37731
  22320995.9634  -12484580.75147  -7601004.24062
  21559369.869   -12315933.032 8  -9564597.86023
 91  4 12 23 17 30.0020000  0  5G13G19G15G 6G 2
  24665981.4394    -664935.19344   -215521.54861
  23202207.4554   11227844.45846   8747354.19461
  24952942.510     -119164.625 5    -15311.07521
  22316841.986   -12506405.181 7  -7618010.24122
  21559780.275   -12313775.723 8  -9562916.82623
 91  4 12 23 17 45.0020000  0  5G13G19G15G 6G 2
  24655473.979     -720169.207 4   -258560.74121
  23209155.150    11264362.993 6   8775810.11421
  24949213.018     -138727.042 5    -30554.39221
  22312698.025   -12528199.194 7  -7634992.54523
  21560203.604   -12311562.284 8  -9561192.04723
 91  4 12 23 18  0.0020000  0  5G13G19G15G 6G 2
  24644969.5884    -775372.69045   -301576.16561
  23216111.330    11300948.184 6   8804317.98121
  24945504.2914    -158201.71745    -45729.36061
  22308551.979   -12549961.305 7  -7651949.98722
  21560633.768   -12309291.743 8  -9559422.77723
 91  4 12 23 18 15.0020000  0  5G13G19G15G 6G 2
  24634467.744     -830546.217 4   -344568.29421
  23223091.1194   11337599.38146   8832877.28461
  24941813.3464    -177588.83245    -60836.08161
  22304417.369   -12571692.253 7  -7668883.15022
  21561075.518   -12306964.903 8  -9557609.63223
 91  4 12 23 18 30.0020000  0  5G13G19G15G 6G 2
  24623976.3224    -885687.58744   -387535.31361
  23230081.9944   11374318.06446   8861489.15761
  24938148.658     -196886.539 5    -75873.13721
  22300289.7294  -12593390.12047  -7685790.54262
  21561530.838   -12304580.367 8  -9555751.53323
 91  4 12 23 18 45.0020000  0  5G13G19G15G 6G 2
  24613485.3224    -940799.09844   -430479.04061
  23237076.807    11411101.700 6   8890151.65421
  24934485.9084    -216097.02945    -90842.22861
  22296166.549   -12615057.481 7  -7702674.15522
  21561993.338   -12302140.899 8  -9553850.62523
 91  4 12 23 19  0.0020000  0  5G13G19G15G 6G 2
  24603004.8144    -995882.57045   -473400.99561
  23244087.814    11447947.882 6   8918862.88321
  24930845.7994    -235222.34245   -105744.97161
  22292048.486   -12636696.197 7  -7719535.44122
  21562466.346   -12299648.800 8  -9551908.70723
 91  4 12 23 19 15.0020000  0  5G13G19G15G 6G 2
  24592528.822    -1050934.790 5   -516298.57121
  23251111.6044   11484859.49446   8947625.10361
  24927228.7834    -254259.29745   -120578.83461
  22287936.9554  -12658303.25847  -7736372.07962
  21562952.057   -12297101.061 8  -9549923.44123
 91  4 12 23 19 30.0020000  0  5G13G19G15G 6G 2
  24582056.916    -1105956.852 5   -559172.61921
  23258148.9554   11521835.39546   8976437.40961
  24923618.2524    -273209.07545   -135344.78561
  22283831.854   -12679879.818 7  -7753184.93622
  21563446.564   -12294499.179 8  -9547895.97823
 91  4 12 23 19 45.0020000  0  5G13G19G15G 6G 2
  24571596.025    -1160948.574 5   -602023.07121
  23265199.932    11558875.089 6   9005299.43021
  24920026.111     -292071.535 5   -150042.67221
  22279731.4864  -12701425.98147  -7769974.11062
  21563953.721   -12291843.446 8  -9545826.55623
 91  4 12 23 20  0.0020000  0  5G13G19G15G 6G 2
  24561132.2834   -1215909.36345   -644849.38761
  23272258.182    11595978.350 6   9034210.98321
  24916456.0884    -310846.39445   -164672.32261
  22275636.4324  -12722941.58747  -7786739.48162
  21564468.260   -12289134.122 8  -9543715.37223
 91  4 12 23 20 15.0020000  0  5G13G19G15G 6G 2
  24550680.1354   -1270837.34045   -687650.13861
  23279328.5184   11633147.01346   9063173.48461
  24912903.979     -329531.502 5   -179232.05021
  22271549.3774  -12744424.77547  -7803479.58962
  21564994.088   -12286369.522 8  -9541561.12123
 91  4 12 23 20 30.0020000  0  5G13G19G15G 6G 2
  24540233.7524   -1325735.05445   -730427.35461
  23286416.3464   11670378.21946   9092184.73461
  24909361.9244    -348129.63845   -193723.99661
  22267464.6824  -12765878.23447  -7820196.53262
  21565532.354   -12283552.700 8  -9539366.18223
 91  4 12 23 20 45.0020000  0  5G13G19G15G 6G 2
  24529793.3464   -1380598.96245   -773178.23361
  23293516.252    11707675.047 6   9121247.12521
  24905845.518     -366637.217 5   -208145.36521
  22263389.3074  -12787298.65047  -7836887.73162
  21566077.697   -12280680.649 8  -9537128.20124
 91  4 12 23 21  0.0020000  0  5G13G19G15G 6G 2
  24519360.2134   -1435425.45745   -815899.92361
  23300626.7294   11745040.64846   9150363.07761
  24902340.1894    -385050.84645   -222493.55861
  22259320.689   -12808682.633 7  -7853550.54922
  21566634.299   -12277750.200 8  -9534844.72323
 91  4 12 23 21 15.0020000  0  5G13G19G15G 6G 2
  24508933.9164   -1490220.29945   -858596.95561
  23307743.4474   11782468.90945   9179527.86861
  24898846.111     -403376.144 5   -236772.92321
  22255258.0024  -12830036.04747  -7870189.54662
  21567202.588   -12274767.499 8  -9532520.53223
 91  4 12 23 21 30.0020000  0  5G13G19G15G 6G 2
  24498512.7294   -1544983.51645   -901269.34661
  23314876.9474   11819959.33846   9208741.09661
  24895380.1974    -421613.06845   -250983.40361
  22251198.4944  -12851359.11647  -7886804.88662
  21567778.369   -12271732.977 8  -9530155.95024
 91  4 12 23 21 45.0020000  0  5G13G19G15G 6G 2
  24488099.143    -1599710.464 5   -943913.44921
  23322027.3384   11857516.27346   9238006.15261
  24891929.1434    -439757.00745   -265121.44861
  22247147.189   -12872647.258 7  -7903393.02722
  21568367.174   -12268642.507 8  -9527747.77823
 91  4 12 23 22  0.0020000  0  5G13G19G15G 6G 2
  24477686.9474   -1654403.67045   -986531.28761
  23329191.5574   11895136.70446   9267320.68361
  24888493.275     -457810.663 5   -279189.13521
  22243101.6824  -12893903.28947  -7919956.14262
  21568963.768   -12265499.089 8  -9525298.34723
 91  4 12 23 22 15.0020000  0  5G13G19G15G 6G 2
  24467288.885    -1709063.936 5  -1029123.45621
  23336358.2524   11932819.31746   9296683.67561
  24885071.830     -475774.941 5   -293187.15721
  22239064.4004  -12915128.36047  -7936495.11862
  21569573.111   -12262304.198 8  -9522808.80923
 91  4 12 23 22 30.0020000  0  5G13G19G15G 6G 2
  24456890.275    -1763691.412 5  -1071690.05321
  23343539.182    11970563.696 6   9326094.78021
  24881672.0024    -493650.09245   -307115.74861
  22235031.7134  -12936322.58147  -7953010.06362
  21570190.564   -12259058.263 8  -9520279.48823
 91  4 12 23 22 45.0020000  0  5G13G19G15G 6G 2
  24446502.307    -1818284.427 5  -1114229.78621
  23350731.0644   12008371.14946   9355555.04761
  24878286.135     -511434.352 5   -320973.49921
  22231005.2604  -12957484.42547  -7969499.77962
  21570817.744   -12255760.024 8  -9517709.41824
 91  4 12 23 23  0.0020000  0  5G13G19G15G 6G 2
  24436121.471    -1872845.297 5  -1156744.50521
  23357938.5104   12046238.85246   9385062.25861
  24874917.643     -529130.310 5   -334762.45721
  22226983.8304  -12978616.36047  -7985966.18262
  21571457.791   -12252412.241 8  -9515100.73923
 91  4 12 23 23 15.0020000  0  5G13G19G15G 6G 2
  24425746.838    -1927370.174 5  -1199231.15821
  23365155.6044   12084170.47546   9414619.27461
  24871570.0184    -546733.99146   -348479.51061
  22222965.6274  -12999714.96447  -8002406.61762
  21572103.471   -12249011.613 8  -9512450.88224
 91  4 12 23 23 30.0020000  0  5G13G19G15G 6G 2
  24415375.205    -1981853.835 5  -1241685.71121
  23372388.4474   12122170.36346   9444229.47761
  24868242.6434    -564240.78345   -362121.05661
  22218961.9474  -13020775.47047  -8018817.36762
  21572761.432   -12245553.691 8  -9509756.38024
 91  4 12 23 23 45.0020000  0  5G13G19G15G 6G 2
  24405015.533    -2036300.990 5  -1284111.78621
  23379635.947    12160233.496 6   9473888.97721
  24864920.1434    -581655.11945   -375690.54661
  22214958.939   -13041802.408 7  -8035201.95622
  21573429.057   -12242043.448 8  -9507021.11124
 91  4 12 23 24  0.0020000  0  5G13G19G15G 6G 2
  24394653.713    -2090709.906 5  -1326508.10321
  23386887.9324   12198361.09146   9503598.69861
  24861626.9394    -598975.35445   -389186.74061
  22210963.8854  -13062794.30947  -8051559.23662
  21574107.650   -12238479.619 8  -9504244.08524
 91  4 12 23 24 15.0020000  0  5G13G19G15G 6G 2
  24384315.994    -2145080.155 5  -1368874.22921
  23394157.4474   12236553.41946   9533358.86661
  24858351.2604    -616200.84945   -402609.08661
  22206975.2994  -13083750.76747  -8067888.90362
  21574796.174   -12234861.888 8  -9501425.06324
 91  4 12 23 24 30.0020000  0  5G13G19G15G 6G 2
  24373972.3614   -2199412.42645  -1411210.79661
  23401436.666    12274809.347 6   9563168.59721
  24855086.6974    -633332.50445   -415958.29861
  22202994.3464  -13104672.68547  -8084191.66762
  21575495.596   -12231191.607 8  -9498565.08724
 91  4 12 23 24 45.0020000  0  5G13G19G15G 6G 2
  24363643.377    -2253706.345 5  -1453517.46821
  23408725.1664   12313128.84546   9593027.85461
  24851849.1194    -650369.99045   -429234.17161
  22199021.400   -13125559.957 7  -8100467.41222
  21576203.166   -12227469.085 8  -9495664.40824
 91  4 12 23 25  0.0020000  0  5G13G19G15G 6G 2
  24353322.025    -2307960.456 5  -1495793.11521
  23416030.963    12351513.009 6   9622937.50721
  24848624.869     -667312.086 5   -442435.70621
  22195052.2054  -13146411.19547  -8116715.09062
  21576920.627   -12223693.148 8  -9492722.10024
 91  4 12 23 25 15.0020000  0  5G13G19G15G 6G 2
  24343004.9244   -2362174.99845  -1538037.94361
  23423351.7604   12389960.85046   9652896.77661
  24845419.5024    -684159.27245   -455563.26161
  22191091.5254  -13167227.05247  -8132935.20762
  21577650.119   -12219864.617 8  -9489738.81324
 91  4 12 23 25 30.0020000  0  5G13G19G15G 6G 2
  24332694.4394   -2416353.74145  -1580254.85061
  23430678.1664   12428468.40145   9682902.57561
  24842229.064     -700915.268 5   -468619.78121
  22187135.674   -13188011.249 7  -8149130.63923
  21578386.721   -12215987.704 8  -9486717.82824
 91  4 12 23 25 45.0020000  0  5G13G19G15G 6G 2
  24322389.9324   -2470491.81045  -1622440.10261
  23438017.6584   12467040.28945   9712958.50061
  24839060.979     -717575.119 5   -481601.37821
  22183188.854   -13208759.023 7  -8165297.69322
  21579135.838   -12212057.889 8  -9483655.61724
 91  4 12 23 26  0.0020000  0  5G13G19G15G 6G 2
  24312096.814    -2524589.000 5  -1664593.46221
  23445366.018    12505676.179 6   9743064.29521
  24835906.025     -734138.586 5   -494507.88221
  22179247.127   -13229470.383 7  -8181436.37323
  21579893.314   -12208075.339 8  -9480552.31324
 91  4 12 23 26 15.0020000  0  5G13G19G15G 6G 2
  24301810.8934   -2578645.65545  -1706715.28761
  23452735.447    12544375.197 6   9773219.28421
  24832772.150     -750606.080 5   -507339.58421
  22175312.260   -13250145.895 7  -8197547.10823
  21580659.619   -12204041.050 8  -9477408.69824
 91  4 12 23 26 30.0020000  0  5G13G19G15G 6G 2
  24291531.260    -2632657.699 5  -1748802.28921
  23460113.9714   12583140.89146   9803426.22661
  24829658.752     -766973.747 5   -520093.50021
  22171386.854   -13270781.702 7  -8213626.90623
  21581438.033   -12199951.378 8  -9474221.92024
 91  4 12 23 26 45.0020000  0  5G13G19G15G 6G 2
  24281261.5884   -2686627.63745  -1790856.51661
  23467500.6274   12621970.72146   9833683.15361
  24826562.0574    -783244.09345   -532771.58361
  22167465.010   -13291380.397 7  -8229677.79423
  21582226.330   -12195809.083 8  -9470994.14424
 91  4 12 23 27  0.0020000  0  5G13G19G15G 6G 2
  24271001.6114   -2740556.42545  -1832878.65461
  23474897.8144   12660863.09646   9863988.80061
  24823483.7134    -799418.15345   -545374.65161
  22163553.752   -13311943.202 7  -8245700.71223
  21583025.502   -12191615.696 8  -9467726.55324
 91  4 12 23 27 15.0020000  0  5G13G19G15G 6G 2
  24260743.447    -2794443.505 5  -1874868.31521
  23482313.189    12699818.230 6   9894343.37121
  24820424.346     -815495.576 5   -557902.39521
  22159646.025   -13332469.716 7  -8261695.34423
  21583832.604   -12187371.153 8  -9464419.10224
 91  4 12 23 27 30.0020000  0  5G13G19G15G 6G 2
  24250497.783    -2848282.666 5  -1916820.63521
  23489737.2994   12738841.83046   9924751.27461
  24817382.869     -831470.110 5   -570349.97021
  22155749.947   -13352953.803 7  -8277656.92723
  21584652.354   -12183069.673 8  -9461067.28524
 91  4 12 23 27 45.0020000  0  5G13G19G15G 6G 2
  24240258.908    -2902078.490 5  -1958739.16421
  23497177.7524   12777928.84046   9955208.59361
  24814368.377     -847346.734 5   -582721.26721
  22151856.635   -13373400.347 7  -8293589.24423
  21585479.150   -12178716.422 8  -9457675.12424
 91  4 12 23 28  0.0020000  0  5G13G19G15G 6G 2
  24230028.377    -2955837.025 5  -2000628.67421
  23504628.0724   12817072.67446   9985710.19061
  24811363.088     -863131.395 5   -595020.87821
  22147974.330   -13393815.586 7  -8309497.18123
  21586316.494   -12174317.846 8  -9454247.64624
 91  4 12 23 28 15.0020000  0  5G13G19G15G 6G 2
  24219807.1664   -3009548.36745  -2042481.37161
  23512088.7214   12856283.14046  10016263.71261
  24808377.2364    -878814.05545   -607241.03461
  22144095.080   -13414189.614 7  -8325372.99323
  21587163.135   -12169864.491 8  -9450777.48724
 91  4 12 23 28 30.0020000  0  5G13G19G15G 6G 2
  24209591.502    -3063215.378 5  -2084299.56521
  23519563.361    12895556.615 5  10046866.31621
  24805408.8074    -894397.79645   -619384.11161
  22140225.096   -13434525.652 7  -8341219.20723
  21588021.650   -12165359.899 8  -9447267.39724
 91  4 12 23 28 45.0020000  0  5G13G19G15G 6G 2
  24199391.182    -3116838.202 5  -2126083.30821
  23527047.7054   12934893.02246  10077517.96761
  24802462.439     -909882.674 5   -631450.13921
  22136363.143   -13454823.815 7  -8357035.91323
  21588888.229   -12160804.458 8  -9443717.69324
 91  4 12 23 29  0.0020000  0  5G13G19G15G 6G 2
  24189195.182    -3170416.083 5  -2167832.01921
  23534545.3934   12974292.37546  10108218.68361
  24799533.4474    -925268.26045   -643438.82761
  22132506.900   -13475083.654 7  -8372822.75123
  21589765.666   -12156197.993 8  -9440128.22324
 91  4 12 23 29 15.0020000  0  5G13G19G15G 6G 2
  24179006.033    -3223949.472 5  -2209546.08421
  23542054.4714   13013753.77046  10138967.72761
  24796629.494     -940555.124 5   -655350.57421
  22128659.580   -13495305.716 7  -8388580.15723
  21590651.174   -12151541.228 8  -9436499.55824
 91  4 12 23 29 30.0020000  0  5G13G19G15G 6G 2
  24168831.5104   -3277435.10245  -2251222.92261
  23549577.471    13053280.098 5  10169767.35921
  24793741.197     -955740.140 5   -667182.95121
  22124820.057   -13515487.008 7  -8404305.79623
  21591546.174   -12146831.496 8  -9432829.62223
 91  4 12 23 29 45.0020000  0  5G13G19G15G 6G 2
  24158662.9794   -3330873.60745  -2292863.03561
  23557110.471    13092870.220 6  10200616.71721
  24790862.6824    -970823.84845   -678936.38261
  22120986.572   -13535628.208 7  -8420000.18823
  21592453.947   -12142069.735 8  -9429119.14424
 91  4 12 23 30  0.0020000  0  5G13G19G15G 6G 2
  24148500.111    -3384267.406 5  -2334468.30321
  23564658.1744   13132521.32245  10231513.59261
  24788014.4474    -985808.72545   -690612.81861
  22117159.525   -13555731.985 7  -8435665.42423
  21593369.354   -12137258.942 8  -9425370.46224
 91  4 12 23 30 15.0020000  0  5G13G19G15G 6G 2
  24138350.6974   -3437613.57245  -2376036.50161
  23572210.510    13172236.147 5  10262460.09921
  24785178.979    -1000691.820 5   -702209.92721
  22113342.2444  -13575795.46347  -8451299.25863
  21594295.049   -12132396.677 8  -9421581.67124
 91  4 12 23 30 30.0020000  0  5G13G19G15G 6G 2
  24128209.033    -3490910.490 5  -2417566.31021
  23579782.4714   13212015.71746  10293457.07261
  24782370.8144   -1015471.62745   -713726.58661
  22109532.5334  -13595817.07847  -8466900.48563
  21595230.713   -12127481.430 8  -9417751.59023
 91  4 12 23 30 45.0020000  0  5G13G19G15G 6G 2
  24118074.6354   -3544159.48845  -2459058.76361
  23587367.189    13251858.233 6  10324503.07821
  24779576.9864   -1030149.62245   -725163.88761
  22105730.072   -13615798.372 7  -8482470.27723
  21596174.611   -12122515.166 8  -9413881.76524
 91  4 12 23 31  0.0020000  0  5G13G19G15G 6G 2
  24107952.721    -3597359.511 5  -2500513.08421
  23594962.260    13291764.478 6  10355598.74821
  24776803.3304   -1044724.91445   -736521.14761
  22101934.8384  -13635738.56447  -8498008.05463
  21597129.4004  -12117497.33748  -9409971.75764
 91  4 12 23 31 15.0020000  0  5G13G19G15G 6G 2
  24097835.877    -3650506.955 5  -2541926.40221
  23602566.8774   13331737.58646  10386746.53161
  24774050.979    -1059194.109 5   -747795.76821
  22098150.1664  -13655634.18747  -8513511.09963
  21598094.018   -12112424.831 8  -9406019.13924
 91  4 12 23 31 30.0020000  0  5G13G19G15G 6G 2
  24087733.2524   -3703603.79845  -2583300.31861
  23610183.5414   13371774.98446  10417944.41361
  24771316.0254   -1073559.21045   -758989.24461
  22094371.4004  -13675487.31747  -8528981.03163
  21599068.564   -12107300.136 8  -9402025.85923
 91  4 12 23 31 45.0020000  0  5G13G19G15G 6G 2
  24077635.955    -3756646.667 5  -2624632.16721
  23617816.127    13411879.669 6  10449194.71521
  24768601.3224   -1087816.90245   -770099.02861
  22090603.3694  -13695294.78547  -8544415.38363
  21600054.689   -12102120.201 8  -9397989.53323
 91  4 12 23 32  0.0020000  0  5G13G19G15G 6G 2
  24067553.6274   -3809638.71545  -2665924.41761
  23625457.221    13452048.148 5  10480494.73121
  24765906.3934   -1101970.46945   -781127.70061
  22086842.3384  -13715059.90147  -8559816.74663
  21601049.9714  -12096888.78648  -9393913.09863
 91  4 12 23 32 15.0020000  0  5G13G19G15G 6G 2
  24057478.354    -3862576.956 5  -2707174.76721
  23633114.252    13492282.764 5  10511846.26821
  24763234.8614   -1116017.05345   -792072.99961
  22083089.4714  -13734779.96547  -8575183.00163
  21602057.541   -12091603.422 8  -9389794.62423
 91  4 12 23 32 30.0020000  0  5G13G19G15G 6G 2
  24047414.3224   -3915460.91045  -2748382.79561
  23640784.564    13532583.641 5  10543249.44221
  24760583.291    -1129956.118 5   -802934.52621
  22079345.1114  -13754454.57647  -8590513.82863
  21603071.822   -12086263.882 8  -9385633.93223
 91  4 12 23 32 45.0020000  0  5G13G19G15G 6G 2
  24037365.041    -3968288.075 5  -2789546.57821
  23648468.861    13572952.898 5  10574705.90621
  24757953.0494   -1143785.19246   -813710.33061
  22075608.4864  -13774081.51747  -8605807.51963
  21604098.932   -12080868.318 8  -9381429.58023
 91  4 12 23 33  0.0020000  0  5G13G19G15G 6G 2
  24027320.189    -4021057.973 5  -2830665.71421
  23656159.8144   13613390.62245  10606215.70561
  24755341.5574   -1157503.92746   -824400.16361
  22071883.5104  -13793660.26747  -8621063.65563
  21605136.2754  -12075416.53548  -9377181.42863
 91  4 12 23 33 15.0020000  0  5G13G19G15G 6G 2
  24017291.924    -4073773.217 6  -2871742.28321
  23663871.604    13653893.937 5  10637776.62821
  24752748.408    -1171115.273 5   -835006.30821
  22068166.4554  -13813193.56247  -8636284.37563
  21606184.8224  -12069911.47448  -9372891.76263
 91  4 12 23 33 30.0020000  0  5G13G19G15G 6G 2
  24007271.799    -4126431.379 5  -2912774.38521
  23671589.971    13694464.680 6  10669390.08821
  24750184.252    -1184616.602 5   -845526.73521
  22064459.854   -13832679.212 7  -8651467.97523
  21607242.9474  -12064351.31048  -9368559.15963
 91  4 12 23 33 45.0020000  0  5G13G19G15G 6G 2
  23997260.393    -4179031.271 5  -2953761.07121
  23679323.541    13735103.702 5  10701056.75421
  24747636.2214   -1198006.83746   -855960.58561
  22060760.5414  -13852116.16447  -8666613.62063
  21608311.424   -12058735.265 8  -9364183.00624
 91  4 12 23 34  0.0020000  0  5G13G19G15G 6G 2
  23987261.369    -4231574.409 5  -2994703.51121
  23687068.4634   13775808.83945  10732774.94561
  24745104.799    -1211287.841 6   -866309.34421
  22057070.3774  -13871506.08447  -8681722.61663
  21609390.486   -12053065.566 8  -9359765.04423
 91  4 12 23 34 15.0020000  0  5G13G19G15G 6G 2
  23977273.0104   -4284059.86745  -3035601.03561
  23694829.744    13816580.477 5  10764544.93321
  24742598.9164   -1224458.81846   -876572.34861
  22053389.6114  -13890848.43747  -8696794.55063
  21610479.932   -12047341.595 8  -9355304.79224
 91  4 12 23 34 30.0020000  0  5G13G19G15G 6G 2
  23967295.7754   -4336490.12745  -3076455.54061
  23702596.807    13857415.969 5  10796364.69221
  24740114.2214   -1237522.43946   -886751.69361
  22049717.5184  -13910145.68347  -8711831.33763
  21611577.338   -12041566.192 8  -9350804.46523
 91  4 12 23 34 45.0020000  0  5G13G19G15G 6G 2
  23957329.8304   -4388865.28545  -3117267.09561
  23710383.908    13898314.719 5  10828233.73221
  24737649.0964   -1250478.52646   -896847.26061
  22046054.2524  -13929397.87047  -8726833.00963
  21612687.1504  -12035739.77148  -9346264.38563
 91  4 12 23 35  0.0020000  0  5G13G19G15G 6G 2
  23947371.158    -4441185.191 5  -3158035.60321
  23718177.025    13939276.494 5  10860151.91221
  24735204.330    -1263327.192 5   -906859.12121
  22042397.8934  -13948605.18347  -8741799.72063
  21613804.7994  -12029862.84648  -9341684.95564
 91  4 12 23 35 15.0020000  0  5G13G19G15G 6G 2
  23937425.588    -4493447.389 5  -3198759.15021
  23725983.0804   13980303.38445  10892120.81461
  24732777.6584   -1276065.84245   -916785.23661
  22038754.2754  -13967765.00147  -8756729.41663
  21614934.072   -12023933.296 8  -9337064.51223
 91  4 12 23 35 30.0020000  0  5G13G19G15G 6G 2
  23927492.346    -4545649.857 5  -3239436.14921
  23733806.2054   14021396.95645  10924141.67061
  24730377.150    -1288692.840 5   -926624.36121
  22035118.0184  -13986875.67247  -8771620.81763
  21616071.314   -12017949.668 8  -9332401.92824
 91  4 12 23 35 45.0020000  0  5G13G19G15G 6G 2
  23917569.580    -4597796.434 5  -3280069.60821
  23741640.5724   14062552.88845  10956211.13161
  24727993.7214   -1301212.04945   -936379.48961
  22031489.6114  -14005941.23047  -8786477.06663
  21617221.111   -12011916.160 8  -9327700.48324
 91  4 12 23 36  0.0020000  0  5G13G19G15G 6G 2
  23907655.775    -4649883.283 5  -3320656.51321
  23749480.721    14103774.722 5  10988331.93721
  24725631.150    -1313619.401 5   -946047.47721
  22027868.7914  -14024957.84547  -8801295.17863
  21618379.877   -12005829.143 8  -9322957.33624
 91  4 12 23 36 15.0020000  0  5G13G19G15G 6G 2
  23897756.6974   -4701911.24045  -3361197.52861
  23757337.049    14145060.947 5  11020502.92221
  24723290.471    -1325916.192 5   -955629.28521
  22024262.1744  -14043926.61247  -8816076.00163
  21619547.518   -11999690.273 8  -9318173.78424
 91  4 12 23 36 30.0020000  0  5G13G19G15G 6G 2
  23887866.979    -4753880.456 5  -3401692.79221
  23765203.736    14186411.029 5  11052723.64921
  24720976.6434   -1338102.74446   -965125.18461
  22020659.8304  -14062847.83747  -8830819.77963
  21620725.205   -11993499.850 8  -9313350.06223
 91  4 12 23 36 45.0020000  0  5G13G19G15G 6G 2
  23877989.6744   -4805789.50145  -3442141.18161
  23773087.244    14227825.892 5  11084994.85521
  24718674.5414   -1350177.78445   -974534.24061
  22017068.4324  -14081720.35547  -8845525.59863
  21621913.322   -11987257.167 8  -9308485.62024
 91  4 12 23 37  0.0020000  0  5G13G19G15G 6G 2
  23868121.682    -4857637.882 5  -3482542.25221
  23780983.643    14269305.633 5  11117316.62421
  24716398.588    -1362140.927 5   -983856.06221
  22013485.5644  -14100543.73647  -8860193.13763
  21623110.689   -11980962.215 8  -9303580.44424
 91  4 12 23 37 15.0020000  0  5G13G19G15G 6G 2
  23858265.5024   -4909426.59245  -3522896.84561
  23788885.377    14310848.631 5  11149687.69421
  24714142.4944   -1373993.52845   -993091.75861
  22009911.8144  -14119319.37047  -8874823.46763
  21624318.299   -11974616.703 8  -9298635.87623
 91  4 12 23 37 30.0020000  0  5G13G19G15G 6G 2
  23848425.486    -4961154.014 6  -3563203.72621
  23796800.424    14352456.427 5  11182109.24421
  24711909.283    -1385733.682 5  -1002239.84421
  22006348.1974  -14138045.47347  -8889415.20463
  21625535.213   -11968219.119 8  -9293650.73224
 91  4 12 23 37 45.0020000  0  5G13G19G15G 6G 2
  23838592.7444   -5012823.38545  -3603465.36261
  23804733.4794   14394125.36245  11214578.45461
  24709697.830    -1397364.397 6  -1011302.64221
  22002794.8304  -14156725.31647  -8903970.89663
  21626761.885   -11961772.909 8  -9288627.69724
 91  4 12 23 38  0.0020000  0  5G13G19G15G 6G 2
  23828767.5724   -5064431.38245  -3643679.12861
  23812674.7294   14435858.13245  11247097.38261
  24707503.1824   -1408882.73945  -1020277.88061
  21999249.1194  -14175355.78947  -8918488.10863
  21627998.525   -11955275.383 8  -9283564.67623
 91  4 12 23 38 15.0020000  0  5G13G19G15G 6G 2
  23818962.721    -5115977.018 6  -3683844.33421
  23820630.4714   14477655.30645  11279666.51561
  24705334.119    -1420287.860 5  -1029164.88721
  21995712.0804  -14193936.07447  -8932966.22263
  21629244.510   -11948725.925 8  -9278461.18423
 91  4 12 23 38 30.0020000  0  5G13G19G15G 6G 2
  23809164.1744   -5167459.58646  -3723960.38961
  23828593.799    14519517.367 5  11312286.20921
  24703184.2914   -1431579.09645  -1037963.16361
  21992189.0104  -14212465.47247  -8947404.67763
  21630501.869   -11942124.160 8  -9273316.93123
 91  4 12 23 38 45.0020000  0  5G13G19G15G 6G 2
  23799381.5884   -5218877.05246  -3764025.72761
  23836573.8854   14561445.54345  11344957.38661
  24701056.385    -1442754.851 5  -1046671.44221
  21988670.8224  -14230942.44347  -8961802.28763
  21631768.502   -11935468.928 8  -9268131.02124
 91  4 12 23 39  0.0020000  0  5G13G19G15G 6G 2
  23789609.822    -5270233.318 6  -3804043.39121
  23844563.1664   14603435.59145  11377676.78361
  24698954.471    -1453818.929 5  -1055292.70921
  21985165.7134  -14249370.88547  -8976162.07463
  21633044.2054  -11928764.38848  -9262906.69464
 91  4 12 23 39 15.0020000  0  5G13G19G15G 6G 2
  23779848.400    -5321526.887 6  -3844012.17121
  23852566.9324   14645488.67645  11410445.30661
  24696869.697    -1464770.032 5  -1063825.94821
  21981667.5964  -14267749.48547  -8990483.02663
  21634328.510   -11922009.513 8  -9257643.14324
 91  4 12 23 39 30.0020000  0  5G13G19G15G 6G 2
  23770100.1114   -5372751.03546  -3883926.86261
  23860582.713    14687610.952 5  11443267.73521
  24694807.611    -1475601.521 5  -1072265.97921
  21978179.6974  -14286071.62847  -9004759.98863
  21635626.533   -11915197.987 8  -9252335.44723
 91  4 12 23 39 45.0020000  0  5G13G19G15G 6G 2
  23760362.111    -5423913.112 5  -3923793.20121
  23868608.252    14729794.652 5  11476138.03721
  24692766.275    -1486320.753 5  -1080618.54021
  21974703.2444  -14304344.86247  -9018998.83263
  21636931.197   -11908337.601 8  -9246989.68024
 91  4 12 23 40  0.0020000  0  5G13G19G15G 6G 2
  23750639.502    -5475011.582 6  -3963609.95121
  23876648.932    14772041.097 5  11509057.23021
  24690747.143    -1496926.627 5  -1088882.75221
  21971237.932   -14322567.417 7  -9033198.18123
  21638246.361   -11901427.225 8  -9241604.96224
 91  4 12 23 40 15.0020000  0  5G13G19G15G 6G 2
  23740929.2994   -5526040.49046  -4003372.52261
  23884702.3694   14814355.63745  11542029.49961
  24688753.4324   -1507413.12145  -1097053.95661
  21967778.0414  -14340733.79247  -9047353.75863
  21639572.049   -11894461.399 8  -9236177.02824
 91  4 12 23 40 30.0020000  0  5G13G19G15G 6G 2
  23731231.643    -5577001.795 6  -4043082.39021
  23892769.049    14856735.730 5  11575052.83721
  24686779.471    -1517782.266 5  -1105133.74021
  21964332.072   -14358846.117 7  -9061467.21623
  21640908.8774  -11887442.43748  -9230707.69964
 91  4 12 23 40 45.0020000  0  5G13G19G15G 6G 2
  23721545.807    -5627898.318 6  -4082741.80521
  23900843.533    14899178.321 5  11608124.87821
  24684828.5964   -1528036.84445  -1113124.23161
  21960894.221   -14376907.230 7  -9075540.76223
  21642253.330   -11880373.633 8  -9225199.52824
 91  4 12 23 41  0.0020000  0  5G13G19G15G 6G 2
  23711873.6744   -5678727.13146  -4122348.45261
  23908933.385    14941686.024 5  11641247.64921
  24682901.3774   -1538174.04145  -1121023.25761
  21957468.439   -14394914.193 7  -9089572.12423
  21643608.072   -11873252.422 8  -9219650.51524
 91  4 12 23 41 15.0020000  0  5G13G19G15G 6G 2
  23702213.307    -5729490.723 6  -4161904.26421
  23917030.768    14984255.669 5  11674418.69321
  24680991.3774   -1548196.64945  -1128832.98261
  21954051.260   -14412869.623 7  -9103563.32023
  21644971.885   -11866081.633 8  -9214062.87724
 91  4 12 23 41 30.0020000  0  5G13G19G15G 6G 2
  23692564.752    -5780188.089 6  -4201408.48921
  23925146.5334   15026887.79945  11707638.42861
  24679107.3934   -1558103.62945  -1136552.62161
  21950644.143   -14430772.802 7  -9117513.80723
  21646345.7524  -11858860.70148  -9208436.16464
 91  4 12 23 41 45.0020000  0  5G13G19G15G 6G 2
  23682931.807    -5830815.523 6  -4240858.20221
  23933270.2994   15069585.71545  11740909.42061
  24677245.1894   -1567891.66945  -1144179.57361
  21947249.229   -14448620.349 7  -9131420.94123
  21647729.9004  -11851586.74148  -9202768.13364
 91  4 12 23 42  0.0020000  0  5G13G19G15G 6G 2
  23673310.627    -5881375.085 6  -4280255.03821
  23941407.916    15112346.980 5  11774229.76721
  24675404.502    -1577563.007 5  -1151715.59721
  21943862.736   -14466414.293 7  -9145286.30423
  21649123.041   -11844262.046 8  -9197060.56724
 91  4 12 23 42 15.0020000  0  5G13G19G15G 6G 2
  23663700.4714   -5931864.09746  -4319596.90661
  23949554.916    15155173.831 5  11807601.22121
  24673585.369    -1587115.038 5  -1159158.67021
  21940486.994   -14484151.912 7  -9159107.77823
  21650527.1504  -11836884.32748  -9191311.68564
 91  4 12 23 42 30.0020000  0  5G13G19G15G 6G 2
  23654104.9474   -5982284.32646  -4358885.19261
  23957720.104    15198063.955 5  11841021.99121
  24671792.6194   -1596549.61345  -1166510.20661
  21937121.572   -14501835.462 7  -9172887.12223
  21651940.783   -11829455.951 8  -9185523.32524
 91  4 12 23 42 45.0020000  0  5G13G19G15G 6G 2
  23644523.9864   -6032633.51246  -4398118.09561
  23965895.322    15241019.134 5  11874493.45021
  24670020.924    -1605864.304 5  -1173768.29921
  21933768.033   -14519462.603 7  -9186622.50723
  21653364.4794  -11821975.03548  -9179694.03164
 91  4 12 23 43  0.0020000  0  5G13G19G15G 6G 2
  23634956.6584   -6082916.95946  -4437299.81161
  23974081.697    15284033.644 5  11908011.13121
  24668270.416    -1615064.948 6  -1180937.55121
  21930422.635   -14537038.828 7  -9200318.22223
  21654796.314   -11814447.232 8  -9173828.19724
 91  4 12 23 43 15.0020000  0  5G13G19G15G 6G 2
  23625402.0964   -6133133.09046  -4476429.05661
  23982277.229    15327108.858 5  11941576.12921
  24666538.3224   -1624149.98945  -1188016.74461
  21927089.221   -14554562.594 7  -9213973.06323
  21656239.416   -11806871.342 8  -9167924.89424
 91  4 12 23 43 30.0020000  0  5G13G19G15G 6G 2
  23615858.080    -6183283.173 6  -4515506.84321
  23990483.8934   15370242.82545  11975186.89061
  24664831.510    -1633120.784 5  -1195006.89121
  21923763.775   -14572035.394 7  -9227588.18223
  21657690.0494  -11799249.30048  -9161985.63164
 91  4 12 23 43 45.0020000  0  5G13G19G15G 6G 2
  23606326.4394   -6233363.49746  -4554530.26761
  23998703.580    15413438.936 5  12008846.09421
  24663145.783    -1641973.627 5  -1201905.11821
  21920448.900   -14589453.620 7  -9241160.77923
  21659149.6354  -11791577.56548  -9156007.64664
 91  4 12 23 44  0.0020000  0  5G13G19G15G 6G 2
  23596810.6354   -6283374.54446  -4593499.70661
  24006934.268    15456696.181 5  12042552.91321
  24661482.627    -1650709.587 5  -1208712.27021
  21917145.0184  -14606817.81247  -9254691.27563
  21660619.158   -11783857.175 8  -9149991.74724
 91  4 12 23 44 15.0020000  0  5G13G19G15G 6G 2
  23587307.4244   -6333313.18246  -4632412.72761
  24015177.408    15500017.378 5  12076309.57321
  24659845.3544   -1659325.23145  -1215425.68761
  21913849.1504  -14624124.97847  -9268177.33864
  21662098.3544  -11776085.24548  -9143935.68664
 91  4 12 23 44 30.0020000  0  5G13G19G15G 6G 2
  23577819.1354   -6383181.46746  -4671270.94261
  24023431.5184   15543400.16245  12110114.22961
  24658226.7364   -1667822.59645  -1222046.92761
  21910566.7914  -14641377.03647  -9281620.45964
  21663587.2994  -11768264.22248  -9137841.37464
 91  4 12 23 44 45.0020000  0  5G13G19G15G 6G 2
  23568342.736    -6432976.688 6  -4710072.20321
  24031704.510    15586846.622 5  12143968.50121
  24656634.0024   -1676199.33346  -1228574.19261
  21907296.0494  -14658571.78147  -9295018.92564
  21665085.424   -11760392.110 8  -9131707.24624
 91  4 12 23 45  0.0020000  0  5G13G19G15G 6G 2
  23558879.994    -6482699.319 6  -4748816.92021
  24039980.4554   15630355.81245  12177871.64061
  24655062.947    -1684455.807 5  -1235007.74421
  21904033.5574  -14675709.56547  -9308372.99764
  21666592.1114  -11752469.66948  -9125533.90764
 91  4 12 23 45 15.0020000  0  5G13G19G15G 6G 2
  23549429.557    -6532349.321 6  -4787505.03521
  24048273.518    15673927.333 5  12211823.36321
  24653511.057    -1692592.275 5  -1241347.78921
  21900784.2914  -14692790.57747  -9321682.84764
  21668108.7754  -11744497.39348  -9119321.73564
 91  4 12 23 45 30.0020000  0  5G13G19G15G 6G 2
  23539993.2834   -6581929.51346  -4826138.75961
  24056576.0254   15717557.84245  12245821.04461
  24651985.7754   -1700612.00345  -1247596.84261
  21897545.6274  -14709817.92347  -9334950.86664
  21669633.799   -11736478.663 8  -9113073.36524
 91  4 12 23 45 45.0020000  0  5G13G19G15G 6G 2
  23530576.018    -6631435.489 6  -4864714.64721
  24064891.6744   15761251.25445  12279867.73561
  24650487.3544   -1708510.58646  -1253751.50161
  21894313.8854  -14726787.20147  -9348173.64864
  21671169.5494  -11728409.42648  -9106785.63864
 91  4 12 23 46  0.0020000  0  5G13G19G15G 6G 2
  23521167.236    -6680869.713 6  -4903234.63321
  24073214.2444   15805004.98945  12313961.42361
  24649005.596    -1716290.240 6  -1259813.50521
  21891095.7444  -14743700.83047  -9361353.06364
  21672713.8934  -11720292.16448  -9100460.49364
 91  4 12 23 46 15.0020000  0  5G13G19G15G 6G 2
  23511773.877    -6730231.907 6  -4941698.48221
  24081556.2134   15848818.69245  12348101.84661
  24647544.1194   -1723951.08545  -1265782.93061
  21887887.330   -14760558.581 7  -9374488.94624
  21674268.9944  -11712127.19648  -9094098.17564
 91  4 12 23 46 30.0020000  0  5G13G19G15G 6G 2
  23502393.291    -6779520.497 6  -4980104.97721
  24089903.354    15892693.533 5  12382289.91621
  24646106.682    -1731491.497 5  -1271658.49321
  21884689.8384  -14777359.18547  -9387580.29863
  21675829.7364  -11703913.51648  -9087697.89664
 91  4 12 23 46 45.0020000  0  5G13G19G15G 6G 2
  23493032.986    -6828733.323 6  -5018452.43821
  24098266.0804   15936631.23645  12416526.96161
  24644701.2604   -1738909.62545  -1277438.76061
  21881506.0574  -14794100.53447  -9400625.47163
  21677403.4004  -11695649.22248  -9081258.18264
 91  4 12 23 47  0.0030000  0  5G13G19G15G 6G 2
  23483674.624    -6877877.002 6  -5056746.02421
  24106638.366    15980630.887 5  12450812.27121
  24643309.577    -1746209.679 5  -1283127.04121
  21878328.0624  -14810787.10547  -9413627.96263
  21678985.272   -11687337.835 8  -9074781.76824
 91  4 12 23 47 15.0030000  0  5G13G19G15G 6G 2
  23474340.601    -6926939.509 6  -5094976.34821
  24115023.8044   16024691.51245  12485145.10561
  24641946.3904   -1753385.56545  -1288718.59061
  21875166.7334  -14827411.79947  -9426582.24063
  21680576.1874  -11678975.54548  -9068265.69164
 91  4 12 23 47 30.0030000  0  5G13G19G15G 6G 2
  23465021.007    -6975923.923 6  -5133145.82321
  24123418.2024   16068815.95045  12519527.66961
  24640603.140    -1760437.155 6  -1294213.26321
  21872015.1554  -14843975.23647  -9439488.78463
  21682179.0854  -11670561.70848  -9061709.44864
 91  4 12 23 47 45.0030000  0  5G13G19G15G 6G 2
  23455714.2184   -7024834.62146  -5171257.85861
  24131828.507    16112999.201 5  12553956.04921
  24639284.413    -1767369.149 6  -1299614.74021
  21868873.6084  -14860482.12547  -9452351.26663
  21683788.3194  -11662101.23648  -9055116.86564
 91  4 12 23 48  0.0030000  0  5G13G19G15G 6G 2
  23446419.9444   -7073670.21746  -5209311.37161
  24140249.2724   16157242.32345  12588431.09461
  24637985.1474   -1774180.37345  -1304922.12561
  21865742.1164  -14876931.09947  -9465168.61963
  21685405.9834  -11653593.04948  -9048487.10264
 91  4 12 23 48 15.0030000  0  5G13G19G15G 6G 2
  23437140.671    -7122430.124 6  -5247305.89921
  24148673.960    16201545.697 5  12622953.06521
  24636713.5154   -1780870.17245  -1310134.85561
  21862623.233   -14893321.391 7  -9477940.25423
  21687035.1164  -11645036.71948  -9041819.82864
 91  4 12 23 48 30.0030000  0  5G13G19G15G 6G 2
  23427872.897    -7171115.609 6  -5285242.45521
  24157117.6554   16245907.46245  12657520.54561
  24635464.280    -1787439.894 5  -1315254.03921
  21859515.827   -14909654.626 7  -9490667.42323
  21688673.0774  -11636434.21848  -9035116.57664
 91  4 12 23 48 45.0030000  0  5G13G19G15G 6G 2
  23418625.9374   -7219723.52246  -5323118.52961
  24165573.8044   16290330.33645  12692135.65161
  24634241.663    -1793886.860 6  -1320277.58121
  21856419.179   -14925927.614 7  -9503347.65324
  21690319.1014  -11627782.59148  -9028375.04364
 91  4 12 23 49  0.0030000  0  5G13G19G15G 6G 2
  23409389.444    -7268255.398 6  -5360935.37421
  24174039.585    16334812.316 5  12726796.80321
  24633036.640    -1800212.583 5  -1325206.61921
  21853333.390   -14942142.090 7  -9515982.28523
  21691974.7104  -11619083.93348  -9021596.86164
 91  4 12 23 49 15.0030000  0  5G13G19G15G 6G 2
  23400172.3744   -7316709.46146  -5398691.60661
  24182514.616    16379354.786 5  12761505.10021
  24631849.819    -1806415.368 5  -1330039.89021
  21850259.257   -14958296.437 7  -9528570.06524
  21693639.4294  -11610336.94348  -9014781.01564
 91  4 12 23 49 30.0030000  0  5G13G19G15G 6G 2
  23390963.827    -7365083.028 6  -5436385.08421
  24191002.6794   16423960.02445  12796262.29761
  24630694.718    -1812492.813 5  -1334775.48421
  21847197.624   -14974388.085 7  -9541108.99123
  21695313.3904  -11601539.40748  -9007925.78964
 91  4 12 23 49 45.0030000  0  5G13G19G15G 6G 2
  23381774.7964   -7413379.70846  -5474018.66461
  24199501.4294   16468623.97345  12831065.25961
  24629563.163    -1818448.714 5  -1339416.37521
  21844147.5544  -14990420.65547  -9553601.87163
  21696995.8354  -11592695.41548  -9001034.36464
 91  4 12 23 50  0.0030000  0  5G13G19G15G 6G 2
  23372600.991    -7461599.179 6  -5511592.08121
  24208011.9764   16513346.27145  12865913.67161
  24628450.4684   -1824282.79945  -1343962.37061
  21841106.718   -15006394.129 7  -9566048.70823
  21698687.8824  -11583805.09248  -8994106.83364
 91  4 12 23 50 15.0030000  0  5G13G19G15G 6G 2
  23363437.038    -7509741.141 6  -5549105.11421
  24216533.007    16558126.667 5  12900807.35921
  24627365.726    -1829995.062 5  -1348413.40521
  21838077.288   -15022308.273 7  -9578449.32023
  21700388.0464  -11574868.38248  -8987143.15364
 91  4 12 23 50 30.0030000  0  5G13G19G15G 6G 2
  23354292.030    -7557803.345 6  -5586555.99121
  24225065.6164   16602967.19245  12935747.88961
  24626302.0854   -1835583.37745  -1352767.84361
  21835062.3274  -15038160.81847  -9590801.92563
  21702097.9914  -11565883.35248  -8980141.82664
 91  4 12 23 50 45.0030000  0  5G13G19G15G 6G 2
  23345161.0934   -7605786.65346  -5623945.37761
  24233612.429    16647866.346 5  12970734.11421
  24625262.3124   -1841048.64045  -1357026.42461
  21832056.077   -15053952.815 7  -9603107.35423
  21703816.6404  -11556851.54948  -8973104.05864
 91  4 12 23 51  0.0030000  0  5G13G19G15G 6G 2
  23336042.866    -7653692.153 6  -5661274.14421
  24242165.101    16692822.929 5  13005765.07821
  24624245.069    -1846392.009 5  -1361190.01721
  21829062.2264  -15069685.29447  -9615366.40563
  21705544.5384  -11547774.09848  -8966030.71164
 91  4 12 23 51 15.0030000  0  5G13G19G15G 6G 2
  23326942.6404   -7701517.59646  -5698540.53661
  24250734.374    16737838.673 5  13040842.15521
  24623255.858    -1851611.503 6  -1365257.07221
  21826081.569   -15085356.113 7  -9627577.40523
  21707280.7334  -11538649.18448  -8958920.38364
 91  4 12 23 51 30.0030000  0  5G13G19G15G 6G 2
  23317857.858    -7749262.159 6  -5735743.89521
  24259308.421    16782913.906 5  13075965.57221
  24622280.624    -1856706.259 5  -1369226.93521
  21823110.374   -15100964.500 7  -9639739.76323
  21709025.9054  -11529476.65248  -8951772.94964
 91  4 12 23 51 45.0030000  0  5G13G19G15G 6G 2
  23308784.491    -7796927.343 6  -5772885.40821
  24267895.7654   16828046.78245  13111133.91661
  24621337.5544   -1861677.88245  -1373100.86261
  21820151.765   -15116512.088 7  -9651854.74023
  21710780.4054  -11520258.20348  -8944589.73664
 91  4 12 23 52  0.0030000  0  5G13G19G15G 6G 2
  23299731.3044   -7844514.82446  -5809966.38661
  24276498.249    16873234.769 5  13146345.20221
  24620411.772    -1866528.792 5  -1376880.70921
  21817204.1874  -15132000.98247  -9663923.98163
  21712542.8354  -11510996.38548  -8937372.72664
 91  4 12 23 52 15.0030000  0  5G13G19G15G 6G 2
  23290690.1244   -7892023.31246  -5846985.80361
  24285109.491    16918478.901 5  13181600.23521
  24619513.476    -1871257.533 5  -1380565.37221
  21814268.7184  -15147429.80247  -9675946.41263
  21714312.5154  -11501690.05948  -8930121.03764
 91  4 12 23 52 30.0030000  0  5G13G19G15G 6G 2
  23281664.218    -7939454.414 6  -5883944.91421
  24293723.2884   16963777.22845  13216897.51661
  24618638.179    -1875865.852 5  -1384156.20821
  21811343.9374  -15162800.31447  -9687923.40663
  21716091.7884  -11492341.23048  -8922836.22464
 91  4 12 23 52 45.0030000  0  5G13G19G15G 6G 2
  23272654.0304   -7986805.37346  -5920841.58061
  24302360.3434   17009131.89145  13252238.65961
  24617785.8584   -1880351.12745  -1387651.15861
  21808431.2884  -15178109.82047  -9699852.86463
  21717879.1794  -11482947.55648  -8915516.47264
 91  4 12 23 53  0.0030000  0  5G13G19G15G 6G 2
  23263657.5774   -8034073.10946  -5957673.39961
  24311002.1014   17054545.58645  13287625.83361
  24616950.101    -1884710.842 5  -1391048.26821
  21805527.718   -15193355.431 7  -9711732.54123
  21719676.1874  -11473506.34748  -8908159.67964
 91  4 12 23 53 15.0030000  0  5G13G19G15G 6G 2
  23254678.7264   -8081259.23146  -5994441.61661
  24319650.116    17100016.278 5  13323057.40521
  24616150.3194   -1888946.63545  -1394348.81661
  21802639.866   -15208538.783 7  -9723563.69623
  21721482.1404  -11464019.61648  -8900767.41564
 91  4 12 23 53 30.0030000  0  5G13G19G15G 6G 2
  23245715.4524   -8128363.29146  -6031145.89161
  24328319.9134   17145544.14445  13358533.53561
  24615361.2104   -1893057.84045  -1397552.29161
  21799763.663   -15223659.305 7  -9735345.89723
  21723294.6164  -11454487.19848  -8893339.55164
 91  4 12 23 53 45.0030000  0  5G13G19G15G 6G 2
  23236767.382    -8175384.941 6  -6067785.94921
  24336990.4054   17191128.90945  13394053.98261
  24614606.4444   -1897044.51045  -1400658.73761
  21796896.366   -15238717.095 7  -9747079.21523
  21725117.960   -11444909.275 8  -8885876.22324
 91  4 12 23 54  0.0030000  0  5G13G19G15G 6G 2
  23227836.0224   -8222322.57546  -6104360.53761
  24345673.8194   17236771.96445  13429619.87061
  24613873.4444   -1900904.81545  -1403666.72261
  21794043.1944  -15253710.33147  -9758762.23063
  21726949.6244  -11435284.58848  -8878376.45964
 91  4 12 23 54 15.0030000  0  5G13G19G15G 6G 2
  23218917.8584   -8269173.22546  -6140867.37061
  24354376.741    17282475.900 5  13465233.20121
  24613156.9054   -1904636.01545  -1406574.07261
  21791203.687   -15268635.896 7  -9770392.51523
  21728791.7334  -11425610.30648  -8870838.04964
 91  4 12 23 54 30.0030000  0  5G13G19G15G 6G 2
  23210021.1944   -8315937.96446  -6177307.23861
  24363082.671    17328238.994 5  13500892.61621
  24612475.085    -1908239.600 5  -1409381.98621
  21788376.4294  -15283495.31847  -9781971.25663
  21730638.9604  -11415888.04848  -8863262.25364
 91  4 12 23 54 45.0030000  0  5G13G19G15G 6G 2
  23201134.6554   -8362619.19046  -6213682.03761
  24371800.765    17374058.285 5  13536595.83021
  24611814.9134   -1911718.17245  -1412092.49761
  21785561.3274  -15298290.93347  -9793500.27663
  21732498.304   -11406120.727 8  -8855651.34224
 91  4 12 23 55  0.0030000  0  5G13G19G15G 6G 2
  23192270.101    -8409216.586 6  -6249991.52021
  24380534.030    17419933.630 5  13572342.71421
  24611170.819    -1915071.734 5  -1414705.58121
  21782756.4684  -15313022.79447  -9804979.62363
  21734366.0224  -11396308.53748  -8848005.47664
 91  4 12 23 55 15.0030000  0  5G13G19G15G 6G 2
  23183418.9294   -8455727.35046  -6286233.49561
  24389271.702    17465867.505 5  13608135.20821
  24610560.577    -1918297.231 5  -1417218.89721
  21779966.1164  -15327688.05747  -9816407.07163
  21736240.7884  -11386448.81348  -8840322.56264
 91  4 12 23 55 30.0030000  0  5G13G19G15G 6G 2
  23174583.3584   -8502154.10646  -6322410.00861
  24398021.405    17511856.824 5  13643970.90621
  24609972.8664   -1921397.47345  -1419634.60661
  21777188.0154  -15342289.39047  -9827784.70363
  21738127.3044  -11376544.72848  -8832605.08964
 91  4 12 23 55 45.0030000  0  5G13G19G15G 6G 2
  23165765.5854   -8548497.36746  -6358521.45961
  24406784.921    17557900.569 5  13679849.01821
  24609403.679    -1924373.256 5  -1421953.34221
  21774419.8744  -15356827.42247  -9839113.00563
  21740020.1164  -11366597.09948  -8824853.67864
 91  4 12 23 56  0.0030000  0  5G13G19G15G 6G 2
  23156961.546    -8594757.917 6  -6394568.47521
  24415557.694    17603997.461 5  13715768.53721
  24608862.007    -1927225.693 5  -1424175.96221
  21771666.7724  -15371302.89147  -9850392.56663
  21741920.2804  -11356607.10848  -8817069.26464
 91  4 12 23 56 15.0030000  0  5G13G19G15G 6G 2
  23148176.0694   -8640932.56946  -6430548.54261
  24424339.4134   17650150.23845  13751731.61961
  24608342.3904   -1929951.95445  -1426300.25461
  21768925.3434  -15385712.94147  -9861621.14863
  21743829.1164  -11346572.18248  -8809249.83564
 91  4 12 23 56 30.0030000  0  5G13G19G15G 6G 2
  23139402.312    -8687020.820 6  -6466461.29821
  24433132.9374   17696358.98745  13787738.30161
  24607847.0544   -1932551.51645  -1428325.82961
  21766194.5224  -15400057.21547  -9872798.46963
  21745749.022   -11336492.115 8  -8801395.22824
 91  4 12 23 56 45.0030000  0  5G13G19G15G 6G 2
  23130649.358    -8733022.351 6  -6502306.46921
  24441936.343    17742623.718 5  13823788.61521
  24607378.226    -1935024.281 5  -1430252.58521
  21763478.249   -15414335.294 7  -9883924.22323
  21747675.8744  -11326366.91948  -8793505.46064
 91  4 12 23 57  0.0030000  0  5G13G19G15G 6G 2
  23121913.421    -8778937.470 6  -6538084.32421
  24450752.0464   17788943.78045  13859882.02261
  24606933.694    -1937370.453 5  -1432080.70021
  21760772.8664  -15428547.44147  -9894998.59263
  21749610.5464  -11316197.25848  -8785581.04164
 91  4 12 23 57 15.0030000  0  5G13G19G15G 6G 2
  23113192.2724   -8824764.10946  -6573793.22361
  24459581.1944   17835320.64645  13896019.72261
  24606509.202    -1939588.193 5  -1433808.73121
  21758081.4374  -15442691.75147  -9906020.10363
  21751555.077   -11305981.636 8  -8777620.80924
 91  4 12 23 57 30.0030000  0  5G13G19G15G 6G 2
  23104488.163    -8870503.678 6  -6609434.28421
  24468410.460    17881752.332 5  13932200.12721
  24606117.0154   -1941679.35045  -1435438.14261
  21755401.0934  -15456769.93647  -9916990.08363
  21753508.3434  -11295721.77948  -8769626.10764
 91  4 12 23 57 45.0030000  0  5G13G19G15G 6G 2
  23095800.952    -8916153.991 6  -6645005.78921
  24477262.960    17928240.564 5  13968424.59821
  24605735.9834   -1943641.93945  -1436967.36161
  21752736.3904  -15470779.78047  -9927906.81363
  21755467.8354  -11285415.87548  -8761595.52064
 91  4 12 23 58  0.0030000  0  5G13G19G15G 6G 2
  23087132.991    -8961714.831 6  -6680507.58021
  24486117.3194   17974785.21945  14004693.03561
  24605388.866    -1945475.748 5  -1438396.23321
  21750083.3584  -15484721.14847  -9938770.18963
  21757436.788   -11275064.290 8  -8753529.34024
 91  4 12 23 58 15.0030000  0  5G13G19G15G 6G 2
  23078477.835    -9007185.934 6  -6715939.43421
  24494985.7104   18021385.97245  14041005.17261
  24605064.7414   -1947180.55445  -1439724.58961
  21747444.8274  -15498593.81447  -9949580.03163
  21759417.0934  -11264666.97848  -8745427.53464
 91  4 12 23 58 30.0030000  0  5G13G19G15G 6G 2
  23069842.397    -9052568.582 6  -6751302.37021
  24503860.3194   18068041.41845  14077359.94761
  24604763.9294   -1948757.71646  -1440953.49261
  21744816.6014  -15512398.92447  -9960337.22563
  21761405.226   -11254225.381 8  -8737291.21124
 91  4 12 23 58 45.0030000  0  5G13G19G15G 6G 2
  23061218.6324   -9097859.56846  -6786593.88261
  24512752.632    18114754.171 5  14113759.34821
  24604491.2884   -1950204.36446  -1442080.69961
  21742204.6404  -15526133.52847  -9971039.48063
  21763400.2574  -11243736.72348  -8729118.21964
 91  4 12 23 59  0.0030000  0  5G13G19G15G 6G 2
  23052623.304    -9143059.084 6  -6821814.11021
  24521652.788    18161523.712 5  14150203.02421
  24604237.7414   -1951520.65746  -1443106.32461
  21739602.7964  -15539797.70947  -9981686.86763
  21765404.655   -11233201.350 8  -8720908.82624
 91  4 12 23 59 15.0030000  0  5G13G19G15G 6G 2
  23044038.5224   -9188167.64646  -6856963.49561
  24530565.4604   18208349.11245  14186690.22361
  24604011.507    -1952707.677 5  -1444031.22221
  21737015.671   -15553392.373 7  -9992280.08323
  21767418.5384  -11222620.61048  -8712664.08264
 91  4 12 23 59 30.0030000  0  5G13G19G15G 6G 2
  23035472.2264   -9233185.43846  -6892042.14261
  24539485.507    18255229.584 5  14223220.31621
  24603814.647    -1953766.072 6  -1444855.86821
  21734441.7414  -15566917.67847 -10002819.24863
  21769437.6944  -11211995.04748  -8704384.40964
 91  4 12 23 59 45.0030000  0  5G13G19G15G 6G 2
  23026922.8824   -9278110.69846  -6927048.67961
  24548416.312    18302166.407 5  14259794.31221
  24603634.718    -1954693.613 6  -1445578.56921
  21731882.679   -15580371.775 7 -10013302.93423
  21771469.4684  -11201323.10148  -8696068.60264
 91  4 13  0  0  0.0030000  0  5G13G19G15G 6G 2
  23018388.7494   -9322944.73146  -6961984.13461
  24557359.468    18349157.961 5  14296410.96621
  24603482.2334   -1955491.78046  -1446200.45961
  21729333.2724  -15593756.14547 -10023732.28063
  21773508.6084  -11190606.35048  -8687717.87764
 91  4 13  0  0 15.0030000  0  5G13G19G15G 6G 2
  23009875.593    -9367686.339 6  -6996847.56221
  24566312.9134   18396204.91345  14333070.79661
  24603357.655    -1956159.963 6  -1446721.05821
  21726802.1554  -15607069.77847 -10034106.50963
  21775557.616   -11179844.075 8  -8679331.67724
 91  4 13  0  0 30.0030000  0  5G13G19G15G 6G 2
  23001378.8974   -9412336.93046  -7031640.07461
  24575278.710    18443305.510 5  14369772.42921
  24603250.0854   -1956699.64345  -1447141.53661
  21724283.0544  -15620313.94247 -10044426.60563
  21777613.405   -11169038.111 8  -8670911.43624
 91  4 13  0  0 45.0030000  0  5G13G19G15G 6G 2
  22992901.2024   -9456893.00046  -7066358.93861
  24584251.4214   18490462.66045  14406518.11961
  24603177.7104   -1957107.26046  -1447459.10161
  21721774.5544  -15633485.49347 -10054690.12064
  21779678.0074  -11158185.47048  -8662454.82364
 91  4 13  0  1  0.0030000  0  5G13G19G15G 6G 2
  22984440.1014   -9501358.66046  -7101007.34561
  24593232.2654   18537671.73845  14443304.28161
  24603121.897    -1957387.517 6  -1447677.42621
  21719280.5464  -15646588.59147 -10064900.29864
  21781752.030   -11147290.677 8  -8653965.36524
 91  4 13  0  1 15.0030000  0  5G13G19G15G 6G 2
  22975992.0774   -9545732.55546  -7135584.26261
  24602229.233    18584933.719 5  14480131.65921
  24603094.6944   -1957539.10046
  21716800.7654  -15659621.84747 -10075056.05164
  21783833.7804  -11136352.78148  -8645442.32064
 91  4 13  0  1 30.0030000  0  5G13G19G15G 6G 2
  22967567.3354   -9590012.67746  -7170088.09161
  24611228.194    18632249.904 5  14517001.26721
  24603092.8664   -1957560.40146
  21714334.5154  -15672583.55547 -10085156.04764
  21785924.163   -11125370.080 8  -8636884.36024
 91  4 13  0  1 45.0030000  0  5G13G19G15G 6G 2
  22959161.0154   -9634201.04946  -7204520.44161
  24620239.5854   18679618.19045  14553911.46961
  24603109.5384   -1957453.29746
  21711880.5934  -15685475.40247 -10095201.61764
  21788022.077   -11114344.808 8  -8628293.22824
 91  4 13  0  2  0.0030000  0  5G13G19G15G 6G 2
  22950767.710    -9678294.857 6  -7238879.10821
  24629267.241    18727040.953 5  14590864.13621
  24603154.7334   -1957215.18946
  21709441.3044  -15698294.82847 -10105190.75264
  21790128.343   -11103274.482 8  -8619666.98924
 91  4 13  0  2 15.0030000  0  5G13G19G15G 6G 2
  22942393.249    -9722294.805 6  -7273164.64021
  24638306.4764   18774517.17945  14627858.44161
  24603221.351    -1956846.921 5
  21707014.0304  -15711042.39347 -10115123.89264
  21792243.1554  -11092160.15548  -8611006.46864
 91  4 13  0  2 30.0030000  0  5G13G19G15G 6G 2
  22934039.1084   -9766204.84146  -7307380.10461
  24647343.1474   18822042.28045  14664890.86061
  24603319.890    -1956352.841 5  -1446870.83921
  21704602.9444  -15723722.35247 -10125004.34564
  21794364.6634  -11081006.44648  -8602315.26264
 91  4 13  0  2 45.0030000  0  5G13G19G15G 6G 2
  22925700.304    -9810024.156 6  -7341524.88621
  24656401.2494   18869616.61345  14701961.62461
  24603437.991    -1955732.109 6  -1446387.10621
  21702201.858   -15736333.848 7 -10134831.46524
  21796496.3354  -11069812.87048  -8593592.98864
 91  4 13  0  3  0.0030000  0  5G13G19G15G 6G 2
  22917381.257    -9853748.037 6  -7375595.29921
  24665464.468    18917244.298 4  14739073.96521
  24603579.7024   -1954980.09645  -1445801.06261
  21699815.390   -15748872.402 7 -10144601.73524
  21798633.5624  -11058575.00148  -8584836.19864
 91  4 13  0  3 15.0030000  0  5G13G19G15G 6G 2
  22909077.5384   -9897374.62646  -7409589.90161
  24674537.054    18964927.096 5  14776229.23721
  24603744.733    -1954095.272 5  -1445111.52521
  21697444.6164  -15761335.96947 -10154313.58764
  21800782.7654  -11047291.06548  -8576043.51964
 91  4 13  0  3 30.0030000  0  5G13G19G15G 6G 2
  22900793.640    -9940907.438 6  -7443511.42421
  24683621.7414   19012660.78645  14813424.17061
  24603942.226    -1953081.433 5  -1444321.47021
  21695087.265   -15773728.290 7 -10163969.91324
  21802936.7804  -11035965.14448  -8567218.11764
 91  4 13  0  3 45.0030000  0  5G13G19G15G 6G 2
  22892528.108    -9984342.597 6  -7477356.86221
  24692716.0544   19060449.04444  14850661.63061
  24604160.780    -1951934.792 6  -1443427.93821
  21692744.6164  -15786045.37047 -10173567.61364
  21805099.8274  -11024593.60348  -8558357.17064
 91  4 13  0  4  0.0030000  0  5G13G19G15G 6G 2
  22884279.2104  -10027682.18946  -7511127.81161
  24701817.1794   19108289.16345  14887939.50461
  24604404.968    -1950657.874 6  -1442432.88921
  21690413.2264  -15798289.63247 -10183108.56864
  21807273.4764  -11013179.12048  -8549462.76364
 91  4 13  0  4 15.0030000  0  5G13G19G15G 6G 2
  22876053.132   -10070926.922 6  -7544824.86421
  24710935.726    19156179.954 5  14925256.86421
  24604671.030    -1949251.455 6  -1441336.91621
  21688096.976   -15810461.873 7 -10192593.40824
  21809454.655   -11001722.889 8  -8540535.81824
 91  4 13  0  4 30.0030000  0  5G13G19G15G 6G 2
  22867841.8274  -10114076.53146  -7578447.79061
  24720060.741    19204121.537 4  14962613.79921
  24604961.210    -1947715.373 6  -1440139.91521
  21685794.2724  -15822561.49147 -10202021.65364
  21811641.4444  -10990224.48748  -8531576.01764
 91  4 13  0  4 45.0030000  0  5G13G19G15G 6G 2
  22859646.163   -10157130.243 6  -7611995.99521
  24729187.077    19252114.006 4  15000010.37621
  24605280.796    -1946049.178 6  -1438841.53821
  21683504.663   -15834587.978 7 -10211392.91424
  21813837.7884  -10978683.77348  -8522583.24764
 91  4 13  0  5  0.0030000  0  5G13G19G15G 6G 2
  22851472.8974  -10200086.31146  -7645468.10561
  24738326.3434   19300158.63644  15037447.60761
  24605620.257    -1944251.222 5  -1437440.46021
  21681231.132   -15846539.820 7 -10220706.02124
  21816042.9764  -10967099.59648  -8513556.61464
 91  4 13  0  5 15.0030000  0  5G13G19G15G 6G 2
  22843319.4444  -10242943.41446  -7678863.10261
  24747483.304    19348256.562 4  15074926.36821
  24605986.421    -1942320.088 5  -1435935.64021
  21678971.5774  -15858415.34847 -10229959.65164
  21818253.7964  -10955470.55348  -8504495.01564
 91  4 13  0  5 30.0030000  0  5G13G19G15G 6G 2
  22835181.272   -10285703.028 6  -7712182.13921
  24756647.3664   19396405.58645  15112444.94861
  24606382.343    -1940257.665 6  -1434328.49021
  21676725.093   -15870216.334 7 -10239155.20124
  21820476.9374  -10943798.70948  -8495400.07164
 91  4 13  0  5 45.0030000  0  5G13G19G15G 6G 2
  22827062.2264  -10328364.68846  -7745424.84961
  24765819.9994   19444605.91845  15150003.49761
  24606799.5624   -1938063.59046  -1432618.75761
  21674495.155   -15881942.146 7 -10248292.17824
  21822705.4994  -10932083.72048  -8486271.50364
 91  4 13  0  6  0.0030000  0  5G13G19G15G 6G 2
  22818962.9994  -10370927.52146  -7778590.54461
  24774999.179    19492857.789 4  15187602.21321
  24607244.405    -1935737.432 6  -1430806.12521
  21672276.9214  -15893592.41047 -10257370.27964
  21824941.8824  -10920325.47448  -8477109.23064
 91  4 13  0  6 15.0030000  0  5G13G19G15G 6G 2
  22810881.7804  -10413393.84846  -7811681.04061
  24784190.0774   19541158.51544  15225239.00461
  24607708.569    -1933281.867 5  -1428892.65621
  21670073.929   -15905169.378 7 -10266391.26924
  21827186.5544  -10908526.52448  -8467915.23764
 91  4 13  0  6 30.0030000  0  5G13G19G15G 6G 2
  22802817.015   -10455760.627 6  -7844693.97121
  24793394.366    19589510.436 4  15262915.66021
  24608196.647    -1930694.141 5  -1426876.18221
  21667887.944   -15916670.209 7 -10275352.93624
  21829442.0074  -10896684.35348  -8458687.57264
 91  4 13  0  6 45.0030000  0  5G13G19G15G 6G 2
  22794776.257   -10498027.653 6  -7877629.18621
  24802602.171    19637913.686 5  15300632.32921
  24608719.2884   -1927973.66045  -1424756.27461
  21665711.812   -15928094.474 7 -10284254.93724
  21831702.0624  -10884798.76548  -8449426.07264
 91  4 13  0  7  0.0030000  0  5G13G19G15G 6G 2
  22786751.9994  -10540194.09446  -7910486.00061
  24811825.5774   19686368.52245  15338389.20261
  24609264.4684   -1925120.14846  -1422532.71161
  21663552.944   -15939441.416 7 -10293096.68924
  21833972.7654  -10872869.35348  -8440130.42264
 91  4 13  0  7 15.0030000  0  5G13G19G15G 6G 2
  22778746.991   -10582260.132 6  -7943264.58921
  24821053.0074   19734874.37745  15376185.82761
  24609832.483    -1922134.115 6  -1420205.87921
  21661407.944   -15950711.340 7 -10301878.42524
  21836251.0694  -10860896.64748  -8430801.03964
 91  4 13  0  7 30.0030000  0  5G13G19G15G 6G 2
  22770760.843   -10624222.190 6  -7975962.16221
  24830296.913    19783434.399 4  15414024.64421
  24610420.3274   -1919012.16546  -1417773.14961
  21659278.249   -15961900.470 7 -10310597.20824
  21838540.0694  -10848877.35048  -8421435.35564
 91  4 13  0  7 45.0030000  0  5G13G19G15G 6G 2
  22762795.718   -10666085.112 6  -8008582.47721
  24839542.468    19832043.197 4  15451901.50921
  24611042.2804   -1915759.10246  -1415238.24861
  21657162.694   -15973013.867 7 -10319256.97924
  21840833.8124  -10836816.86848  -8412037.57164
 91  4 13  0  8  0.0030000  0  5G13G19G15G 6G 2
  22754848.968   -10707849.973 6  -8041126.38321
  24848804.679    19880699.541 4  15489815.39321
  24611686.655    -1912376.081 6  -1412602.07621
  21655063.140   -15984052.610 7 -10327858.57824
  21843137.4914  -10824716.43348  -8402608.65764
 91  4 13  0  8 15.0030000  0  5G13G19G15G 6G 2
  22746919.140   -10749513.932 6  -8073591.67221
  24858073.796    19929405.887 4  15527768.23821
  24612355.8664   -1908860.52146  -1409862.64261
  21652977.038   -15995013.799 7 -10336399.74524
  21845447.9994  -10812573.45648  -8393146.59564
 91  4 13  0  8 30.0030000  0  5G13G19G15G 6G 2
  22739010.562   -10791074.544 6  -8105976.42121
  24867353.7804   19978163.85744  15565761.33461
  24613049.304    -1905210.449 5  -1407018.37221
  21650906.921   -16005895.293 7 -10344878.80324
  21847766.2574  -10800386.10748  -8383649.95264
 91  4 13  0  8 45.0030000  0  5G13G19G15G 6G 2
  22731120.2724  -10832533.90046  -8138282.28361
  24876637.960    20026970.777 4  15603792.55621
  24613768.1014   -1901428.19145  -1404071.10761
  21648850.116   -16016699.368 7 -10353297.54524
  21850093.3124  -10788156.82348  -8374120.63364
 91  4 13  0  9  0.0030000  0  5G13G19G15G 6G 2
  22723251.366   -10873892.665 6  -8170509.75021
  24885937.6244   20075826.09544  15641861.48961
  24614513.530    -1897514.096 6  -1401021.11821
  21646809.437   -16027426.289 7 -10361656.16624
  21852429.5224  -10775886.25448  -8364559.14564
 91  4 13  0  9 15.0030000  0  5G13G19G15G 6G 2
  22715401.413   -10915147.040 6  -8202655.88321
  24895247.476    20124733.011 4  15679970.60821
  24615285.1794   -1893465.01346  -1397865.94661
  21644782.569   -16038072.410 7 -10369951.82424
  21854773.3904  -10763570.98148  -8354962.82564
 91  4 13  0  9 30.0030000  0  5G13G19G15G 6G 2
  22707569.179   -10956297.920 6  -8234721.37121
  24904557.374    20173690.284 4  15718118.98721
  24616079.9834   -1889281.80146  -1394606.27061
  21642773.741   -16048638.747 7 -10378185.31224
  21857123.1944  -10751212.55248  -8345332.87464
 91  4 13  0  9 45.0030000  0  5G13G19G15G 6G 2
  22699758.710   -10997346.316 6  -8266706.99821
  24913890.351    20222696.113 4  15756305.22421
  24616899.7724   -1884966.05945  -1391243.30161
  21640778.382   -16059126.630 7 -10386357.66524
  21859483.4994  -10738812.38648  -8335670.40764
 91  4 13  0 10  0.0030000  0  5G13G19G15G 6G 2
  22691966.4374  -11038289.94546  -8298610.98461
  24923226.554    20271752.518 4  15794530.85121
  24617748.155    -1880515.602 6  -1387775.37821
  21638796.827   -16069533.574 7 -10394466.95124
  21861852.1404  -10726368.49348  -8325973.86764
 91  4 13  0 10 15.0030000  0  5G13G19G15G 6G 2
  22684196.507   -11079127.050 7  -8330431.97221
  24932568.202    20320860.739 4  15832796.85621
  24618621.5074   -1875928.91046  -1384201.28761
  21636831.741   -16079857.874 7 -10402511.84724
  21864227.6164  -10713879.28748  -8316242.01564
 91  4 13  0 10 30.0030000  0  5G13G19G15G 6G 2
  22676444.530   -11119858.637 6  -8362170.73121
  24941916.9834   20370019.34044  15871102.09361
  24619518.866    -1871207.016 6  -1380521.86121
  21634882.499   -16090100.527 7 -10410493.11624
  21866613.0464  -10701346.05948  -8306475.86464
 91  4 13  0 10 45.0030000  0  5G13G19G15G 6G 2
  22668713.272   -11160484.397 6  -8393827.02321
  24951289.2964   20419228.27444  15909446.58361
  24620440.265    -1866349.849 6  -1376736.99321
  21632947.999   -16100261.277 7 -10418410.56624
  21869005.7964  -10688768.88748  -8296675.47264
 91  4 13  0 11  0.0030000  0  5G13G19G15G 6G 2
  22661000.366   -11201008.429 6  -8425404.05521
  24960660.147    20468483.019 4  15947826.75221
  24621393.226    -1861361.542 6  -1372849.96121
  21631031.304   -16110344.261 7 -10426267.41624
  21871406.7724  -10676152.20648  -8286844.29064
 91  4 13  0 11 15.0030000  0  5G13G19G15G 6G 2
  22653311.257   -11241425.543 6  -8456897.77221
  24970043.460    20517788.462 4  15986246.41321
  24622370.1634   -1856237.26446  -1368856.98261
  21629128.530   -16120344.371 7 -10434059.68824
  21873816.5854  -10663491.15848  -8276978.54164
 91  4 13  0 11 30.0030000  0  5G13G19G15G 6G 2
  22645639.929   -11281740.120 6  -8488311.59321
  24979434.6714   20567139.69544  16024701.78961
  24623372.655    -1850981.853 6  -1364761.82521
  21627240.218   -16130265.923 7 -10441790.75124
  21876232.9684  -10650790.50348  -8267081.92564
 91  4 13  0 11 45.0030000  0  5G13G19G15G 6G 2
  22637985.4914  -11321947.95646  -8519642.23161
  24988831.0384   20616540.60644  16063195.84561
  24624394.772    -1845591.041 5  -1360561.15621
  21625367.390   -16140104.719 7 -10449457.32124
  21878658.5774  -10638046.20348  -8257151.30364
 91  4 13  0 12  0.0030000  0  5G13G19G15G 6G 2
  22630355.929   -11362052.830 6  -8550892.64221
  24998239.272    20665986.851 3  16101725.25121
  24625435.640    -1840069.016 5  -1356258.22921
  21623509.858   -16149864.651 7 -10457062.44224
  21881091.4994  -10625262.51348  -8247189.98264
 91  4 13  0 12 15.0030000  0  5G13G19G15G 6G 2
  22622744.827   -11402048.897 6  -8582058.26521
  25007662.4054   20715483.52743  16140293.94661
  24626522.0934   -1834410.29245  -1351848.80161
  21621668.562   -16159540.092 7 -10464601.72624
  21883531.5464  -10612433.88648  -8237193.65364
 91  4 13  0 12 30.0030000  0  5G13G19G15G 6G 2
  22615155.147   -11441937.882 6  -8613140.44221
  25017087.1714   20765028.79143  16178900.48661
  24627623.9294   -1828616.54445  -1347334.16961
  21619843.874   -16169132.589 7 -10472076.37924
  21885983.7494  -10599562.15348  -8227163.73264
 91  4 13  0 12 45.0030000  0  5G13G19G15G 6G 2
  22607582.6714  -11481723.12146  -8644141.77861
  25026527.468    20814619.127 3  16217542.16721
  24628755.9134   -1822691.19246  -1342716.98161
  21618031.827   -16178645.432 7 -10479488.96524
  21888437.8194  -10586651.05148  -8217103.13364
 91  4 13  0 13  0.0030000  0  5G13G19G15G 6G 2
  22600033.1404  -11521397.18046  -8675056.48461
  25035973.827    20864261.160 3  16256224.12921
  24629905.132    -1816627.196 5  -1337991.75221
  21616241.780   -16188071.388 7 -10486833.84323
  21890904.9134  -10573693.79348  -8207006.56664
 91  4 13  0 13 15.0030000  0  5G13G19G15G 6G 2
  22592504.647   -11560958.882 6  -8705883.64921
  25045431.0694   20913955.88543  16294947.13761
  24631085.9914   -1810423.31745  -1333157.52961
  21614460.944   -16197409.297 7 -10494110.11224
  21893380.1244  -10560689.28848  -8196873.18664
 91  4 13  0 13 30.0030000  0  5G13G19G15G 6G 2
  22584996.1084  -11600411.87246  -8736626.09461
  25054892.2884   20963699.15543  16333707.96161
  24632291.296    -1804083.846 6  -1328217.63621
  21612702.601   -16206662.689 7 -10501320.52623
  21895861.6554  -10547641.49648  -8186706.07164
 91  4 13  0 13 45.0030000  0  5G13G19G15G 6G 2
  22577509.366   -11639756.828 7  -8767284.36421
  25064370.8744   21013489.88743  16372505.77461
  24633522.7414   -1797609.55945  -1323172.69161
  21610956.437   -16215832.257 7 -10508465.62424
  21898352.6324  -10534551.45748  -8176506.04164
 91  4 13  0 14  0.0030000  0  5G13G19G15G 6G 2
  22570043.116   -11678990.192 7  -8797855.68121
  25073854.960    21063331.215 3  16411342.99421
  24634783.882    -1790997.048 5  -1318020.06921
  21609229.624   -16224914.710 7 -10515542.83323
  21900852.7884  -10521415.78048  -8166270.44264
 91  4 13  0 14 15.0030000  0  5G13G19G15G 6G 2
  22562600.507   -11718111.258 7  -8828339.48821
  25083352.343    21113223.504 4  16450219.96321
  24636065.8824   -1784245.57545  -1312759.13661
  21607516.749   -16233909.076 7 -10522551.40224
  21903361.1714  -10508234.12148  -8155999.01064
 91  4 13  0 14 30.0030000  0  5G13G19G15G 6G 2
  22555175.124   -11757120.643 7  -8858736.27321
  25092856.4214   21163165.46444  16489135.61461
  24637375.5304   -1777356.34645  -1307390.87961
  21605820.483   -16242816.213 7 -10529492.00623
  21905878.7104  -10495007.52748  -8145692.57064
 91  4 13  0 14 45.0030000  0  5G13G19G15G 6G 2
  22547774.054   -11796018.281 7  -8889045.98221
  25102370.6634   21213156.60543  16528089.60761
  24638713.4524   -1770329.59446  -1301915.45461
  21604145.1874  -16251636.19147 -10536364.68763
  21908402.7964  -10481736.30448  -8135351.35264
 91  4 13  0 15  0.0030000  0  5G13G19G15G 6G 2
  22540391.312   -11834802.064 7  -8919266.98121
  25111891.1084   21263198.94444  16567083.48061
  24640083.1554   -1763163.37146  -1296331.35261
  21602481.4994  -16260366.73847 -10543167.67863
  21910937.2104  -10468418.40548  -8124973.75964
 91  4 13  0 15 15.0030000  0  5G13G19G15G 6G 2
  22533032.476   -11873473.913 7  -8949400.75321
  25121422.4054   21313290.11944  16606115.38761
  24641465.9604   -1755859.53945  -1290640.03861
  21600837.022   -16269009.609 7 -10549902.36323
  21913481.069   -10455055.947 8  -8114561.44424
 91  4 13  0 15 30.0030000  0  5G13G19G15G 6G 2
  22525695.179   -11912036.087 7  -8979449.07021
  25130968.030    21363427.501 4  16645183.36021
  24642884.7884   -1748420.68645  -1284843.50561
  21599209.1164  -16277567.25547 -10556570.62763
  21916032.4374  -10441651.68448  -8104116.55264
 91  4 13  0 15 45.0030000  0  5G13G19G15G 6G 2
  22518379.163   -11950485.453 7  -9009409.47821
  25140512.8744   21413613.57444  16684289.22761
  24644331.062    -1740844.138 6  -1278939.67921
  21597597.913   -16286036.839 7 -10563170.28323
  21918590.6634  -10428203.04148  -8093637.08564
 91  4 13  0 16  0.0030000  0  5G13G19G15G 6G 2
  22511082.6014  -11988824.41447  -9039283.86761
  25150068.2024   21463845.85944  16723431.12561
  24645793.827    -1733132.383 5  -1272930.47221
  21596001.999   -16294420.425 7 -10569702.92023
  21921158.382   -10414712.381 8  -8083124.87324
 91  4 13  0 16 15.0030000  0  5G13G19G15G 6G 2
  22503809.9214  -12027050.00147  -9069069.91161
  25159633.101    21514126.481 3  16762610.67621
  24647283.687    -1725282.851 5  -1266813.93921
  21594423.6404  -16302715.41947 -10576166.52163
  21923733.9374  -10401177.35548  -8072578.08964
 91  4 13  0 16 30.0030000  0  5G13G19G15G 6G 2
  22496554.7964  -12065166.08947  -9098770.63361
  25169214.2104   21564451.22344  16801824.59761
  24648809.585    -1717299.374 6  -1260593.02321
  21592860.296   -16310925.536 7 -10582563.99623
  21926317.827   -10387602.133 8  -8061999.98424
 91  4 13  0 16 45.0030000  0  5G13G19G15G 6G 2
  22489322.9214  -12103174.97447  -9128387.81861
  25178803.624    21614817.467 3  16841070.87521
  24650351.483    -1709184.614 6  -1254269.82121
  21591313.7184  -16319053.07347 -10588897.11864
  21928906.851   -10373989.163 8  -8051392.45924
 91  4 13  0 17  0.0030000  0  5G13G19G15G 6G 2
  22482113.007   -12141070.336 7  -9157916.54421
  25188395.6874   21665231.17143  16880354.12061
  24651923.772    -1700932.380 5  -1247839.49421
  21589784.233   -16327091.638 7 -10595160.90823
  21931504.960   -10360332.264 8  -8040750.70824
 91  4 13  0 17 15.0030000  0  5G13G19G15G 6G 2
  22474920.8194  -12178857.56447  -9187361.01761
  25197993.1794   21715686.38143  16919669.74261
  24653513.1244   -1692548.11345  -1241306.27961
  21588271.4914  -16335046.72347 -10601359.65463
  21934110.749   -10346637.273 8  -8030079.27524
 91  4 13  0 17 30.0030000  0  5G13G19G15G 6G 2
  22467750.8274  -12216536.92247  -9216721.42961
  25207605.108    21766182.392 3  16959017.11621
  24655139.062    -1684032.422 6  -1234670.62321
  21586773.522   -16342918.718 7 -10607493.65323
  21936723.257   -10332904.725 8  -8019378.57724
 91  4 13  0 17 45.0030000  0  5G13G19G15G 6G 2
  22460601.3434  -12254107.74447  -9245997.27561
  25217223.7964   21816719.44643  16998396.48261
  24656781.9374   -1675384.98645  -1227932.34661
  21585292.108   -16350706.926 7 -10613562.36723
  21939343.249   -10319134.295 8  -8008648.35624
 91  4 13  0 18  0.0030000  0  5G13G19G15G 6G 2
  22453471.7024  -12291570.57647  -9275188.97861
  25226849.1714   21867297.01543  17037807.39961
  24658453.257    -1666606.451 5  -1221091.89021
  21583826.124   -16358411.594 7 -10619565.97923
  21941973.593   -10305326.646 8  -7997889.13624
 91  4 13  0 18 15.0030000  0  5G13G19G15G 6G 2
  22446362.5544  -12328921.15147  -9304293.20361
  25236483.0384   21917918.75343  17077252.77461
  24660150.015    -1657692.696 5  -1214146.07321
  21582374.804   -16366028.635 7 -10625501.31623
  21944608.757   -10291477.885 8  -7987097.88024
 91  4 13  0 18 30.0030000  0  4G13G15G 6G 2
  22439278.749   -12366158.009 7  -9333308.81721
  24661876.2724   -1648642.70946  -1207094.10661
  21580940.796   -16373556.628 7 -10631367.26723
  21947250.9604  -10277586.90548  -7976273.73464
 91  4 13  0 18 45.0030000  0  4G13G15G 6G 2
  22432213.6084  -12403280.94347  -9362235.66461
  24663621.710    -1639456.755 5  -1199936.20421
  21579526.632   -16380995.506 7 -10637163.78223
  21949902.562   -10263653.940 8  -7965416.86524
 91  4 13  0 19  0.0030000  0  4G13G15G 6G 2
  22425170.304   -12440294.181 7  -9391077.03721
  24665394.819    -1630138.971 5  -1192675.56721
  21578124.921   -16388349.363 7 -10642894.03823
  21952560.9994  -10249683.33548  -7954530.67164
 91  4 13  0 19 15.0030000  0  4G13G15G 6G 2
  22418148.0774  -12477198.19447  -9419833.29461
  24667188.1404   -1620689.88045  -1185312.63161
  21576743.538   -16395618.532 7 -10648558.30623
  21955228.077   -10235675.744 8  -7943615.65024
 91  4 13  0 19 30.0030000  0  4G13G15G 6G 2
  22411144.687   -12513992.321 7  -9448503.92721
  24669016.4604   -1611109.45745  -1177847.31261
  21575377.108   -16402802.691 7 -10654156.33823
  21957897.8044  -10221631.05248  -7932671.72564
 91  4 13  0 19 45.0030000  0  4G13G15G 6G 2
  22404165.233   -12550671.692 7  -9477085.15221
  24670866.3974   -1601392.81446  -1170275.88261
  21574026.374   -16409896.907 7 -10659684.28023
  21960580.3514  -10207544.63248  -7921695.28664
 91  4 13  0 20  0.0030000  0  4G13G15G 6G 2
  22397208.9834  -12587238.92647  -9505578.97661
  24672728.1014   -1591542.79745  -1162600.51161
  21572692.804   -16416903.720 7 -10665144.11823
  21963270.5224  -10193419.11148  -7910688.37464
 91  4 13  0 20 15.0030000  0  4G13G15G 6G 2
  22390270.437   -12623695.045 7  -9533986.23021
  24674636.8584   -1581560.63846  -1154822.19161
  21571376.147   -16423824.269 7 -10670536.74023
  21965962.3584  -10179256.00648  -7899652.18864
 91  4 13  0 20 30.0030000  0  4G13G15G 6G 2
  22383352.3434  -12660038.76747  -9562305.89461
  24676562.2264   -1571445.60146  -1146940.31861
  21570075.7804  -16430657.42547 -10675861.26063
  21968666.4684  -10165054.46448  -7888586.04064
 91  4 13  0 20 45.0030000  0  4G13G15G 6G 2
  22376458.897   -12696266.429 7  -9590535.13221
  24678508.7884   -1561193.95745  -1138951.98261
  21568794.733   -16437399.227 7 -10681114.59623
  21971377.452   -10150810.774 8  -7877487.05124
 91  4 13  0 21  0.0030000  0  4G13G15G 6G 2
  22369584.202   -12732381.454 7  -9618676.60021
  24680492.5934   -1550809.41146  -1130860.10261
  21567528.593   -16444053.214 7 -10686299.50323
  21974094.1554  -10136528.71448  -7866358.17164
 91  4 13  0 21 15.0030000  0  4G13G15G 6G 2
  22362735.6634  -12768380.88547  -9646727.98761
  24682486.1634   -1540289.36145  -1122662.61561
  21566277.9294  -16450616.43547 -10691413.69363
  21976821.2724  -10122205.74548  -7855197.41364
 91  4 13  0 21 30.0030000  0  4G13G15G 6G 2
  22355907.296   -12804263.617 7  -9674688.44921
  24684521.2184   -1529632.59046  -1114358.62061
  21565047.5694  -16457087.58347 -10696456.13563
  21979553.6874  -10107840.85248  -7844003.98464
 91  4 13  0 21 45.0030000  0  4G13G15G 6G 2
  22349101.882   -12840027.722 7  -9702556.47421
  24686575.3904   -1518837.43846  -1105946.78261
  21563835.569   -16463464.671 7 -10701425.28123
  21982295.6244  -10093432.18148  -7832776.45064
 91  4 13  0 22  0.0030000  0  4G13G15G 6G 2
  22342319.226   -12875673.126 7  -9730332.00121
  24688648.0774   -1507904.47046  -1097427.57361
  21562638.327   -16469747.854 7 -10706321.25423
  21985043.5694  -10078980.26348  -7821515.21564
 91  4 13  0 22 15.0030000  0  4G13G15G 6G 2
  22335555.226   -12911202.896 7  -9758017.42721
  24690760.960    -1496836.882 6  -1088803.45821
  21561460.069   -16475940.206 7 -10711146.45123
  21987804.0694  -10064488.31548  -7810222.78664
 91  4 13  0 22 30.0030000  0  4G13G15G 6G 2
  22328819.140   -12946616.288 7  -9785612.17021
  24692889.812    -1485634.182 5  -1080074.06121
  21560298.983   -16482041.025 7 -10715900.32223
  21990567.6474  -10049956.04748  -7798898.94464
 91  4 13  0 22 45.0030000  0  4G13G15G 6G 2
  22322104.413   -12981906.527 7  -9813110.95121
  24695052.9524   -1474289.71946  -1071234.17561
  21559156.022   -16488043.625 7 -10720577.66123
  21993342.0224  -10035376.91248  -7787538.58464
 91  4 13  0 23  0.0030000  0  4G13G15G 6G 2
  22315411.101   -13017079.309 7  -9840518.20121
  24697240.296    -1462809.209 6  -1062288.30021
  21558031.483   -16493953.533 7 -10725182.77323
  21996123.5384  -10020756.83948  -7776146.32364
 91  4 13  0 23 15.0030000  0  4G13G15G 6G 2
  22308740.499   -13052128.850 7  -9867829.42121
  24699444.4834   -1451187.26645  -1053232.22761
  21556926.608   -16499764.979 7 -10729711.16023
  21998915.4374  -10006090.20048  -7764717.78264
 91  4 13  0 23 30.0030000  0  4G13G15G 6G 2
  22302093.687   -13087055.594 7  -9895044.96021
  24701688.233    -1439424.720 6  -1044066.55321
  21555839.562   -16505478.486 7 -10734163.22623
  22001714.1714   -9991377.64148  -7753253.45364
 91  4 13  0 23 45.0030000  0  4G13G15G 6G 2
  22295470.7964  -13121863.50447  -9922167.90261
  24703950.718    -1427525.403 5  -1034794.35021
  21554768.507   -16511097.724 7 -10738541.83923
  22004522.929    -9976623.247 8  -7741756.53424
 91  4 13  0 24  0.0030000  0  4G13G15G 6G 2
  22288870.390   -13156547.572 7  -9949194.34621
  24706238.5074   -1415484.85846  -1025412.07761
  21553717.491   -16516617.896 7 -10742843.25523
  22007339.132    -9961822.590 8  -7730223.56824
 91  4 13  0 24 15.0030000  0  4G13G15G 6G 2
  22282293.038   -13191108.144 7  -9976124.55621
  24708554.2334   -1403303.87045  -1015920.36761
  21552687.3354  -16522039.46747 -10747067.84763
  22010164.2184   -9946976.40548  -7718655.11664
 91  4 13  0 24 30.0030000  0  4G13G15G 6G 2
  22275742.437   -13225543.324 7 -10002957.06321
  24710906.9294   -1390980.39546  -1006317.63261
  21551675.726   -16527360.531 7 -10751214.11823
  22012998.2804   -9932082.85648  -7707049.75964
 91  4 13  0 24 45.0030000  0  4G13G15G 6G 2
  22269211.218   -13259854.935 7 -10029693.29321
  24713276.3584   -1378516.88146   -996605.78161
  21550682.194   -16532582.799 7 -10755283.40223
  22015840.812    -9917144.076 8  -7695409.16424
 91  4 13  0 25  0.0030000  0  4G13G15G 6G 2
  22262703.546   -13294044.149 7 -10056334.14121
  24715672.2024   -1365914.47545   -986785.70361
  21549705.944   -16537707.304 7 -10759276.51323
  22018690.8044   -9902161.39048  -7683734.35064
 91  4 13  0 25 15.0030000  0  4G13G15G 6G 2
  22256224.5154  -13328111.85547 -10082880.30761
  24718095.210    -1353174.214 5   -976858.19121
  21548749.1084  -16542735.04547 -10763194.22363
  22021552.101    -9887135.859 8  -7672026.15924
 91  4 13  0 25 30.0030000  0  4G13G15G 6G 2
  22249763.4524  -13362054.02147 -10109328.65461
  24720553.593    -1340292.205 5   -966820.24821
  21547813.1794  -16547661.95347 -10767033.36263
  22024420.1794   -9872063.82948  -7660281.73364
 91  4 13  0 25 45.0030000  0  4G13G15G 6G 2
  22243329.257   -13395872.254 7 -10135680.42821
  24723024.694    -1327270.729 5   -956673.61521
  21546891.0694  -16552489.82747 -10770795.33363
  22027296.858    -9856947.391 8  -7648502.70224
 91  4 13  0 26  0.0030000  0  4G13G15G 6G 2
  22236914.2334  -13429565.42347 -10161934.74861
  24725530.772    -1314108.880 5   -946417.60421
  21545993.0074  -16557217.38247 -10774479.13063
  22030182.4834   -9841785.46848  -7636688.22764
 91  4 13  0 26 15.0030000  0  4G13G15G 6G 2
  22230526.1874  -13463137.77247 -10188094.92261
  24728064.038    -1300811.004 6   -936055.60321
  21545111.8974  -16561848.66347 -10778087.91463
  22033073.6244   -9826582.30148  -7624841.61564
 91  4 13  0 26 30.0030000  0  4G13G15G 6G 2
  22224161.6794  -13496589.19647 -10214160.87161
  24730618.187    -1287377.218 6   -925587.68421
  21544249.2184  -16566383.70847 -10781621.70263
  22035975.4134   -9811338.44048  -7612963.29764
 91  4 13  0 26 45.0030000  0  4G13G15G 6G 2
  22217818.632   -13529920.280 7 -10240133.05821
  24733199.562    -1273808.221 5   -915014.42221
  21543402.2724  -16570822.89647 -10785080.80863
  22038884.2024   -9796054.37948  -7601053.64664
 91  4 13  0 27  0.0030000  0  4G13G15G 6G 2
  22211499.921   -13563125.154 7 -10266006.88421
  24735809.6554   -1260098.24445   -904331.32661
  21542578.2574  -16575160.51347 -10788460.75663
  22041803.155    -9780724.396 8  -7589108.22024
 91  4 13  0 27 15.0030000  0  4G13G15G 6G 2
  22205204.6874  -13596205.85347 -10291783.96261
  24738438.382    -1246249.829 5   -893540.31421
  21541773.6084  -16579398.42047 -10791763.01463
  22044726.1404   -9765350.84748  -7577128.83564
 91  4 13  0 27 30.0030000  0  4G13G15G 6G 2
  22198932.7884  -13629165.01247 -10317466.33261
  24741103.788    -1232265.787 5   -882643.64621
  21540983.0304  -16583539.49947 -10794989.82163
  22047660.6944   -9749936.70548  -7565117.82264
 91  4 13  0 27 45.0030000  0  4G13G15G 6G 2
  22192683.3044  -13661996.81847 -10343049.46761
  24743793.218    -1218140.627 5   -871637.00121
  21540214.0074  -16587577.83847 -10798136.56963
  22050600.9134   -9734476.52648  -7553070.94064
 91  4 13  0 28  0.0030000  0  4G13G15G 6G 2
  22186461.9764  -13694704.10947 -10368535.57261
  24746508.6474   -1203877.41445   -860522.79261
  21539466.5304  -16591516.25347 -10801205.45763
  22053549.8274   -9718973.18248  -7540990.42364
 91  4 13  0 28 15.0030000  0  4G13G15G 6G 2
  22180260.8514  -13727288.89647 -10393926.22161
  24749243.7334   -1189478.30945   -849302.68661
  21538735.022   -16595356.735 7 -10804198.02923
  22056510.0304   -9703428.97248  -7528878.06564
 91  4 13  0 28 30.0030000  0  4G13G15G 6G 2
  22174083.4914  -13759750.51447 -10419220.89861
  24752006.546    -1174942.803 5   -837976.28221
  21538023.9684  -16599098.41447 -10807113.62363
  22059476.866    -9687843.224 8  -7516733.34524
 91  4 13  0 28 45.0030000  0  4G13G15G 6G 2
  22167929.171   -13792089.149 7 -10444419.73021
  24754810.0224   -1160271.52446   -826544.12261
  21537331.257   -16602741.806 7 -10809952.61723
  22062447.2724   -9672216.88448  -7504556.98064
 91  4 13  0 29  0.0030000  0  4G13G15G 6G 2
  22161798.3824  -13824304.92347 -10469522.83861
  24757620.968    -1145464.948 6   -815006.48821
  21536656.2334  -16606286.92547 -10812715.03963
  22065430.9684   -9656550.04248  -7492349.06164
 91  4 13  0 29 15.0030000  0  4G13G15G 6G 2
  22155690.0854  -13856398.45547 -10494530.68761
  24760468.608    -1130523.851 5   -803364.05721
  21535998.0074  -16609734.31147 -10815401.30763
  22068419.3044   -9640843.55748  -7480110.24064
 91  4 13  0 29 30.0030000  0  4G13G15G 6G 2
  22149607.257   -13888365.282 7 -10519439.80521
  24763330.1474   -1115443.71745   -791613.28361
  21535362.1164  -16613079.38947 -10818007.85863
  22071415.4294   -9625093.23248  -7467837.26564
 91  4 13  0 29 45.0030000  0  4G13G15G 6G 2
  22143548.569   -13920206.623 7 -10544251.13621
  24766233.6244   -1100226.37045   -779755.60661
  21534743.0224  -16616323.55547 -10820535.77063
  22074420.9374   -9609300.58648  -7455531.31064
 91  4 13  0 30  0.0030000  0  4G13G15G 6G 2
  22137511.9444  -13951922.50847 -10568964.71662
  24769154.4684   -1084871.86145   -767791.02661
  21534146.3974  -16619466.54647 -10822984.84463
  22077433.1164   -9593465.62748  -7443192.38364
 91  4 13  0 30 15.0030000  0  4G13G15G 6G 2
  22131500.3124  -13983517.11747 -10593583.79461
  24772099.226    -1069384.446 5   -755722.88921
  21533568.3974  -16622512.54447 -10825358.34063
  22080456.6874   -9577592.59748  -7430823.79664
 91  4 13  0 30 30.0030000  0  4G13G15G 6G 2
  22125511.8044  -14014986.80047 -10618105.52661
  24775073.0384   -1053761.11446   -743548.85761
  21533008.093   -16625458.065 7 -10827653.53923
  22083484.3824   -9561678.29148  -7418423.04064
 91  4 13  0 30 45.0030000  0  4G13G15G 6G 2
  22119546.6874  -14046333.39947 -10642531.35761
  24778072.335    -1038004.020 5   -731270.58221
  21532462.6014  -16628304.86247 -10829871.81263
  22086520.2494   -9545724.96348  -7405991.88164
 91  4 13  0 31  0.0030000  0  4G13G15G 6G 2
  22113606.2184  -14077559.15247 -10666863.01861
  24781092.351    -1022115.501 5
  21531940.7264  -16631055.33447 -10832015.03063
  22089562.8124   -9529735.05848
 91  4 13  0 31 15.0030000  0  4G13G15G 6G 2
  22107688.7964  -14108657.10747 -10691095.09161
  24784147.522    -1006088.750 5
  21531436.749   -16633702.135 7 -10834077.46023
  22092615.1084   -9513701.59448
 91  4 13  0 31 30.0030000  0  4G13G15G 6G 2
  22101793.2574  -14139627.53547 -10715227.80361
  24787223.7264    -989924.50045   -693805.96661
  21530953.1554  -16636245.77247 -10836059.50063
  22095672.5854   -9497625.14548  -7368511.50764
 91  4 13  0 31 45.0030000  0  4G13G15G 6G 2
  22095924.3824  -14170471.86347 -10739262.24861
  24790319.687     -973624.180 5   -681104.39221
  21530489.632   -16638687.600 7 -10837962.21123
  22098740.7724   -9481507.47748  -7355952.28564
 91  4 13  0 32  0.0030000  0  4G13G15G 6G 2
  22090078.8354  -14201189.12147 -10763197.68661
  24793448.7494    -957187.34745   -668296.42961
  21530044.2414  -16641026.51947 -10839784.73563
  22101814.4054   -9465347.72548  -7343360.26264
 91  4 13  0 32 15.0030000  0  4G13G15G 6G 2
  22084259.0304  -14231776.67847 -10787032.05361
  24796607.5464    -940611.83745   -655380.44861
  21529620.5384  -16643260.04647 -10841525.14263
  22104897.7414   -9449143.52648  -7330733.61364
 91  4 13  0 32 30.0030000  0  4G13G15G 6G 2
  22078462.3274  -14262237.11747 -10810767.36462
  24799784.4834    -923900.10445   -642358.29761
  21529214.1634  -16645390.61047 -10843185.31363
  22107989.9914   -9432897.50148  -7318074.37264
 91  4 13  0 32 45.0030000  0  4G13G15G 6G 2
  22072691.6324  -14292571.54147 -10834404.48261
  24802985.5694    -907053.20845   -629230.82161
  21528826.5154  -16647419.10747 -10844765.95063
  22111090.1324   -9416610.76648  -7305383.41064
 91  4 13  0 33  0.0030000  0  4G13G15G 6G 2
  22066941.9214  -14322779.45347 -10857943.02761
  24806226.2104    -890070.78545   -615997.74061
  21528460.6474  -16649344.76847 -10846266.45563
  22114197.4604   -9400282.93748  -7292660.41664
 91  4 13  0 33 15.0030000  0  4G13G15G 6G 2
  22061216.1944  -14352861.87447 -10881383.78261
  24809473.452     -872954.588 5   -602660.43121
  21528114.108   -16651169.195 7 -10847688.07623
  22117313.3274   -9383915.85248  -7279906.84464
 91  4 13  0 33 30.0030000  0  4G13G15G 6G 2
  22055515.9604  -14382814.60147 -10904723.48661
  24812766.452     -855700.615 5   -589215.75821
  21527786.6874  -16652887.96647 -10849027.36463
  22120434.3824   -9367505.32348  -7267119.41764
 91  4 13  0 33 45.0030000  0  4G13G15G 6G 2
  22049840.1244  -14412639.55947 -10927963.62661
  24816071.554     -838310.952 5   -575665.34321
  21527480.6874  -16654502.84347 -10850285.70463
  22123564.2804   -9351053.22248  -7254299.59464
 91  4 13  0 34  0.0030000  0  4G13G15G 6G 2
  22044188.468   -14442339.628 7 -10951106.45221
  24819407.124     -820788.942 5   -562011.81421
  21527190.187   -16656016.879 7 -10851465.45623
  22126704.8044   -9334563.01148  -7241450.08064
 91  4 13  0 34 15.0030000  0  4G13G15G 6G 2
  22038563.3744  -14471911.88647 -10974149.68661
  24822774.0224    -803131.79045   -548252.96661
  21526924.3904  -16657427.03947 -10852564.27263
  22129849.3274   -9318031.76348  -7228568.58564
 91  4 13  0 34 30.0030000  0  4G13G15G 6G 2
  22032958.022   -14501352.781 7 -10997090.55521
  24826154.249     -785336.017 5   -534386.11021
  21526674.5774  -16658729.68547 -10853579.31363
  22133002.7494   -9301456.08348  -7215652.46564
 91  4 13  0 34 45.0030000  0  4G13G15G 6G 2
  22027381.7104  -14530663.79147 -11019930.21961
  24829564.0624    -767403.59945   -520412.77761
  21526448.655   -16659926.312 7 -10854511.73023
  22136166.4834   -9284837.78848  -7202703.13664
 91  4 13  0 35  0.0030000  0  4G13G15G 6G 2
  22021827.5154  -14559846.31747 -11042669.76161
  24833001.140     -749336.057 5   -506334.16721
  21526240.374   -16661018.289 7 -10855362.61223
  22139335.2264   -9268178.28248  -7189721.70564
 91  4 13  0 35 15.0030000  0  4G13G15G 6G 2
  22016299.5774  -14588898.98747 -11065308.11461
  24836463.319     -731132.449 5   -492149.50921
  21526053.647   -16662004.162 7 -10856130.81223
  22142513.9914   -9251476.57348  -7176707.38364
 91  4 13  0 35 30.0030000  0  4G13G15G 6G 2
  22010796.2724  -14617823.26447 -11087846.42561
  24839954.460     -712794.266 5   -477859.98521
  21525884.0774  -16662885.20047 -10856817.32463
  22145700.5624   -9234734.04548  -7163661.25964
 91  4 13  0 35 45.0030000  0  4G13G15G 6G 2
  22005315.1634  -14646618.22547 -11110283.97361
  24843472.1794    -694320.53745   -463464.82961
  21525737.5854  -16663660.49347 -10857421.43863
  22148894.7104   -9217949.87948  -7150582.69264
 91  4 13  0 36  0.0030000  0  4G13G15G 6G 2
  21999860.8664  -14675282.42247 -11132619.62561
  24847014.0624    -675710.51845   -448963.51561
  21525610.577   -16664328.576 7 -10857942.00623
  22152093.4684   -9201122.97948  -7137470.81964
 91  4 13  0 36 15.0030000  0  4G13G15G 6G 2
  21994433.046   -14703813.622 7 -11154851.63921
  24850587.2184    -656962.09846   -434354.33961
  21525503.8044  -16664887.15147 -10858377.25463
  22155307.0304   -9184251.31548  -7124324.07464
 91  4 13  0 36 30.0030000  0  4G13G15G 6G 2
  21989027.0224  -14732210.99747 -11176979.38261
  24854177.733     -638074.779 5   -419636.92321
  21525419.929   -16665335.495 7 -10858726.59623
  22158527.2494   -9167334.25748  -7111141.95264
 91  4 13  0 36 45.0030000  0  4G13G15G 6G 2
  21983650.2414  -14760472.75347 -11199001.44661
  24857792.9684    -619046.97745   -404810.06561
  21525355.624   -16665671.824 7 -10858988.65823
  22161754.6164   -9150370.34848  -7097923.32264
 91  4 13  0 37  0.0030000  0  4G13G15G 6G 2
  21978297.194   -14788601.387 7 -11220919.78121
  24861447.069     -599881.415 5   -389875.84121
  21525312.5464  -16665898.42547 -10859165.21963
  22164989.6634   -9133362.19648  -7084670.21864
 91  4 13  0 37 15.0030000  0  4G13G15G 6G 2
  21972969.108   -14816598.064 7 -11242735.29321
  24865112.358     -580579.454 5   -374835.33621
  21525289.827   -16666016.329 7
  22168235.0304   -9116310.91948  -7071383.51464
 91  4 13  0 37 30.0030000  0  4G13G15G 6G 2
  21967668.0934  -14844460.98147 -11264446.56961
  24868818.8274    -561139.84846   -359687.57161
  21525287.905   -16666023.984 7
  22171487.5464   -9099215.05748  -7058062.06364
 91  4 13  0 37 45.0030000  0  4G13G15G 6G 2
  21962390.069   -14872190.263 7 -11286053.72121
  24872536.851     -541562.785 5   -344432.69221
  21525307.601   -16665921.433 7
  22174750.0624   -9082074.92648  -7044706.11864
 91  4 13  0 38  0.0030000  0  4G13G15G 6G 2
  21957138.280   -14899784.786 7 -11307555.86622
  24876293.9604    -521847.28745   -329069.95461
  21525350.007   -16665707.226 7
  22178021.0154   -9064889.26848  -7031314.70064
 91  4 13  0 38 15.0030000  0  4G13G15G 6G 2
  21951911.608   -14927248.229 7 -11328955.87021
  24880073.3514    -501997.49945   -313602.57861
  21525408.647   -16665385.157 7
  22181298.2104   -9047662.21948  -7017891.02964
 91  4 13  0 38 30.0030000  0  4G13G15G 6G 2
  21946714.460   -14954574.305 7 -11350248.83322
  24883869.5304    -482007.13845   -298025.65161
  21525493.788   -16664948.833 7 -10858425.18823
  22184586.9684   -9030387.63248  -7004430.31564
 91  4 13  0 38 45.0030000  0  4G13G15G 6G 2
  21941538.3124  -14981766.11647 -11371437.17162
  24887700.030     -461879.730 5   -282341.94521
  21525595.312   -16664401.294 7 -10857998.51123
  22187880.9764   -9013068.68248  -6990935.03364
 91  4 13  0 39  0.0030000  0  4G13G15G 6G 2
  21936389.335   -15008826.034 7 -11392522.74122
  24891556.3044    -441617.79945   -266553.42161
  21525720.538   -16663744.903 7 -10857487.02823
  22191185.7184   -8995707.84048  -6977407.11164
 91  4 13  0 39 15.0030000  0  4G13G15G 6G 2
  21931264.397   -15035751.692 7 -11413503.69022
  24895442.0854    -421219.07245   -250658.31061
  21525866.640   -16662977.263 7 -10856888.85323
  22194498.3194   -8978303.04648  -6963844.94064
 91  4 13  0 39 30.0030000  0  4G13G15G 6G 2
  21926166.022   -15062545.207 7 -11434381.67522
  24899350.9524    -400686.05546   -234658.54461
  21526034.483   -16662100.302 7 -10856205.49323
  22197817.6404   -8960856.53648  -6950250.26364
 91  4 13  0 39 45.0030000  0  4G13G15G 6G 2
  21921091.929   -15089208.074 7 -11455157.84922
  24903280.022     -380020.772 5   -218555.70721
  21526221.538   -16661115.613 7 -10855438.19223
  22201145.5934   -8943370.03548  -6936624.42864
 91  4 13  0 40  0.0030000  0  4G13G15G 6G 2
  21916043.405   -15115739.043 7 -11475831.25322
  24907238.8124    -359222.15346   -202348.98561
  21526429.679   -16660021.981 7 -10854586.00523
  22204481.7804   -8925842.32648  -6922966.48164
 91  4 13  0 40 15.0030000  0  4G13G15G 6G 2
  21911020.9684  -15142136.42847 -11496400.56062
  24911223.9134    -338288.67046   -186037.18161
  21526659.374   -16658817.701 7 -10853647.59423
  22207823.9604   -8908272.06448  -6909275.37464
 91  4 13  0 40 30.0030000  0  4G13G15G 6G 2
  21906022.608   -15168399.665 7 -11516865.33922
  24915236.132     -317220.091 6   -169620.09121
  21526908.8274  -16657501.95247 -10852622.32863
  22211176.1794   -8890658.77548  -6895550.74164
 91  4 13  0 40 45.0030000  0  4G13G15G 6G 2
  21901051.147   -15194527.355 7 -11537224.49922
  24919266.7024    -296014.88646   -153096.54461
  21527180.929   -16656073.229 7 -10851509.02523
  22214535.6014   -8873000.91748  -6881791.37264
 91  4 13  0 41  0.0030000  0  4G13G15G 6G 2
  21896104.7964  -15220521.85347 -11557479.86862
  24923324.733     -274675.656 5   -136468.56121
  21527473.3274  -16654533.83947 -10850309.49063
  22217903.0224   -8855301.03748  -6867999.25964
 91  4 13  0 41 15.0030000  0  4G13G15G 6G 2
  21891182.952   -15246384.813 7 -11577632.74022
  24927415.2804    -253204.60746   -119737.87261
  21527787.9604  -16652885.55347 -10849025.10363
  22221279.8044   -8837561.08548  -6854175.92263
 91  4 13  0 41 30.0030000  0  4G13G15G 6G 2
  21886288.233   -15272112.319 7 -11597680.06822
  24931520.6794    -231598.05345   -102901.59861
  21528122.4374  -16651124.34047 -10847652.71863
  22224663.0934   -8819777.38348  -6840318.49164
 91  4 13  0 41 45.0030000  0  4G13G15G 6G 2
  21881415.819   -15297705.705 7 -11617622.88922
  24935664.2414    -209857.41545    -85960.85661
  21528480.5224  -16649251.38847 -10846193.27363
  22228056.4214   -8801951.33648  -6826428.07164
 91  4 13  0 42  0.0030000  0  4G13G15G 6G 2
  21876573.015   -15323161.998 7 -11637458.87822
  24939823.3514    -187980.16145    -68913.63561
  21528857.3744  -16647263.60347 -10844644.34363
  22231457.5304   -8784080.06648  -6812502.41763
 91  4 13  0 42 15.0030000  0  4G13G15G 6G 2
  21871755.312   -15348485.871 7 -11657191.68622
  24944009.3354    -165971.04945    -51763.65661
  21529256.1164  -16645165.65847 -10843009.57663
  22234865.8584   -8766168.41048  -6798545.28663
 91  4 13  0 42 30.0030000  0  4G13G15G 6G 2
  21866958.538   -15373678.488 7 -11676822.22022
  24948232.2884    -143831.53946    -34512.10961
  21529676.7494  -16642958.82347 -10841289.96063
  22238283.0154   -8748217.74448  -6784557.76263
 91  4 13  0 42 45.0030000  0  4G13G15G 6G 2
  21862190.304   -15398739.914 7 -11696350.52222
  24952462.921     -121562.177 5    -17159.35121
  21530118.0774  -16640642.83547 -10839485.29463
  22241703.5154   -8730228.18548  -6770539.93063
 91  4 13  0 43  0.0030000  0  4G13G15G 6G 2
  21857445.397   -15423668.874 7 -11715775.60522
  24956726.218      -99162.108 5       295.24821
  21530578.4054  -16638216.74847 -10837594.83363
  22245134.0854   -8712198.80848  -6756491.07063
 91  4 13  0 43 15.0030000  0  4G13G15G 6G 2
  21852727.218   -15448465.639 7 -11735097.68122
  24961013.8044     -76631.81545     17851.32461
  21531060.5154  -16635680.77047 -10835618.74863
  22248575.9444   -8694130.08948  -6742411.54863
 91  4 13  0 43 30.0030000  0  4G13G15G 6G 2
  21848035.171   -15473129.186 7 -11754315.95322
  24965326.8274     -53970.28245     35509.65461
  21531565.2884  -16633033.55847 -10833555.98263
  22252018.7884   -8676020.85948  -6728300.46363
 91  4 13  0 43 45.0030000  0  4G13G15G 6G 2
  21843367.452   -15497658.395 7 -11773429.54422
  24969662.4444     -31176.52545     53271.03061
  21532090.1714  -16630273.86647 -10831405.57263
  22255475.1714   -8657869.93148  -6714156.88363
 91  4 13  0 44  0.0030000  0  4G13G15G 6G 2
  21838724.476   -15522053.729 7 -11792438.81922
  24974025.366       -8251.321 5     71134.84021
  21532636.7264  -16627402.11547 -10829167.84663
  22258936.8744   -8639678.05448  -6699981.39663
 91  4 13  0 44 15.0030000  0  4G13G15G 6G 2
  21834108.522   -15546313.882 7 -11811342.75022
  24978414.9764      14806.59645     89102.04661
  21533205.9374  -16624417.00847 -10826841.78963
  22262405.1474   -8621443.94348  -6685773.00263
 91  4 13  0 44 30.0030000  0  4G13G15G 6G 2
  21829517.319   -15570438.550 7 -11830141.12122
  24982828.6714      37997.08745    107172.57261
  21533795.9054  -16621318.09847 -10824427.06063
  22265883.3904   -8603167.71348  -6671531.78663
 91  4 13  0 44 45.0030000  0  4G13G15G 6G 2
  21824952.038   -15594427.811 7 -11848833.97522
  24987264.8974      61319.69945    125346.04161
  21534406.2414  -16618105.61147 -10821923.82363
  22269368.8274   -8584849.47348  -6657257.83763
 91  4 13  0 45  0.0030000  0  4G13G15G 6G 2
  21820411.968   -15618282.314 7 -11867421.82422
  24991729.241       84773.499 5    143621.74021
  21535036.4134  -16614780.11747 -10819332.53363
  22272866.5774   -8566490.15648  -6642951.88363
 91  4 13  0 45 15.0030000  0  4G13G15G 6G 2
  21815897.882   -15642003.597 7 -11885905.86422
  24996215.226      108356.798 5    161998.34221
  21535692.4994  -16611342.99647 -10816654.26463
  22276364.4444   -8548091.13548  -6628614.98864
 91  4 13  0 45 30.0030000  0  4G13G15G 6G 2
  21811409.796   -15665591.014 7 -11904285.59522
  25000725.249      132069.868 5    180476.08021
  21536368.2804  -16607793.50347 -10813888.42663
  22279871.7104   -8529652.16448  -6614246.96663
 91  4 13  0 45 45.0030000  0  4G13G15G 6G 2
  21806944.7804  -15689044.24947 -11922560.77262
  25005268.1714     155912.82445    199054.99561
  21537064.7104  -16604131.09647 -10811034.61063
  22283391.1014   -8511172.66648  -6599847.36664
 91  4 13  0 46  0.0030000  0  4G13G15G 6G 2
  21802508.382   -15712358.091 7 -11940727.32922
  25009824.9294     179890.72545    217739.09761
  21537783.1164  -16600350.76347 -10808088.89863
  22286913.5934   -8492647.69948  -6585412.33364
 91  4 13  0 46 15.0030000  0  4G13G15G 6G 2
  21798098.265   -15735537.135 7 -11958788.84822
  25014419.9834     203998.90145    236524.68361
  21538525.8744  -16596456.78847 -10805054.63563
  22290448.2884   -8474081.86548  -6570945.45264
 91  4 13  0 46 30.0030000  0  4G13G15G 6G 2
  21793713.397   -15758578.527 7 -11976743.10722
  25019028.7264     228239.96745    255413.84361
  21539289.7574  -16592446.26747 -10801929.55563
  22293989.7804   -8455472.41148  -6556444.58364
 91  4 13  0 46 45.0030000  0  4G13G15G 6G 2
  21789353.616   -15781485.509 7 -11994592.62522
  25023665.030      252610.001 5    274403.47821
  21540073.4684  -16588322.61447 -10798716.32563
  22297537.7574   -8436823.02348  -6541912.59464
 91  4 13  0 47  0.0030000  0  4G13G15G 6G 2
  21785022.491   -15804257.253 7 -12012336.77122
  25028333.632      277109.890 5    293494.27221
  21540880.0074  -16584084.67647 -10795414.03863
  22301094.6164   -8418132.83348  -6527348.81164
 91  4 13  0 47 15.0030000  0  4G13G15G 6G 2
  21780714.241   -15826891.619 7 -12029973.86422
  25033020.8354     301741.39545    312687.66961
  21541707.8824  -16579730.43447 -10792021.12263
  22304660.5464   -8399399.89348  -6512751.71464
 91  4 13  0 47 30.0030000  0  4G13G15G 6G 2
  21776433.3124  -15849386.86147 -12047502.55262
  25037728.0384     326506.15445    331984.88661
  21542558.4914  -16575257.77047 -10788535.93163
  22308232.4684   -8380622.16648  -6498119.72864
 91  4 13  0 47 45.0030000  0  4G13G15G 6G 2
  21772178.226   -15871745.910 7 -12064925.11822
  25042467.077      351400.701 5    351383.19521
  21543431.3824  -16570669.92247 -10784960.98363
  22311815.1714   -8361803.04648  -6483455.49164
 91  4 13  0 48  0.0030000  0  4G13G15G 6G 2
  21767951.140   -15893967.463 7 -12082240.54322
  25047222.3974     376426.42645    370883.78761
  21544327.2104  -16565965.29747 -10781295.04663
  22315403.4214   -8342941.16648  -6468757.92163
 91  4 13  0 48 15.0030000  0  4G13G15G 6G 2
  21763747.960   -15916052.854 7 -12099449.86722
  25052019.1164     401581.62445    390485.23161
  21545244.4914  -16561145.31247 -10777539.20763
  22319001.4054   -8324038.04848  -6454028.22863
 91  4 13  0 48 30.0030000  0  4G13G15G 6G 2
  21759569.085   -15938002.445 7 -12116553.37022
  25056829.444      426865.521 5    410186.98421
  21546183.4214  -16556210.15347 -10773693.63463
  22322604.1244   -8305094.03448  -6439266.66063
 91  4 13  0 48 45.0030000  0  4G13G15G 6G 2
  21755419.335   -15959817.204 7 -12133551.81122
  25061664.0774     452276.69745    429987.90661
  21547144.983   -16551160.772 7 -10769759.04223
  22326216.9374   -8286110.36348  -6424474.19763
 91  4 13  0 49  0.0030000  0  4G13G15G 6G 2
  21751294.710   -15981494.639 7 -12150443.24122
  25066524.687      477817.643 5    449889.90721
  21548127.8354  -16545994.66147 -10765733.49263
  22329837.4914   -8267084.59548  -6409648.92863
 91  4 13  0 49 15.0030000  0  4G13G15G 6G 2
  21747195.913   -16003029.405 7 -12167223.50722
  25071406.2494     503493.65745    469897.20361
  21549133.640   -16540706.112 7 -10761612.53423
  22333468.0154   -8248011.40048  -6394786.70463
 91  4 13  0 49 30.0030000  0  4G13G15G 6G 2
  21743123.062   -16024426.430 7 -12183896.44222
  25076324.1874     529299.52045    490005.64361
  21550163.7264  -16535300.17647 -10757400.10963
  22337103.7654   -8228895.89048  -6379891.50963
 91  4 13  0 49 45.0030000  0  4G13G15G 6G 2
  21739078.9054  -16045685.68547 -12200462.02562
  25081252.108      555234.869 5    510214.98721
  21551215.2964  -16529776.63747 -10753096.04663
  22340750.671    -8209738.105 8  -6364963.37423
 91  4 13  0 50  0.0030000  0  4G13G15G 6G 2
  21735060.163   -16066807.861 7 -12216920.79122
  25086212.288      581298.691 5    530524.47721
  21552287.2334  -16524136.26947 -10748700.93963
  22344402.772    -8190538.772 8  -6350002.86723
 91  4 13  0 50 15.0030000  0  4G13G15G 6G 2
  21731066.6324  -16087791.66847 -12233271.74462
  25091199.7414     607492.38545    550935.15961
  21553383.8744  -16518377.47447 -10744213.57163
  22348065.007    -8171296.399 8  -6335008.82723
 91  4 13  0 50 30.0030000  0  4G13G15G 6G 2
  21727098.6324  -16108639.51047 -12249516.74962
  25096207.1794     633813.10245    571444.82061
  21554501.7494  -16512502.69947 -10739635.81663
  22351735.530    -8152013.567 8  -6319983.25523
 91  4 13  0 50 45.0030000  0  4G13G15G 6G 2
  21723158.733   -16129351.054 7 -12265655.54022
  25101242.3274     660260.77845    592053.39461
  21555640.6874  -16506511.48447 -10734967.33263
  22355413.1714   -8132690.13548  -6304926.04463
 91  4 13  0 51  0.0030000  0  4G13G15G 6G 2
  21719243.0694  -16149920.78147 -12281683.83362
  25106299.101      686840.537 5    612764.89021
  21556804.0384  -16500398.41147 -10730203.89463
  22359097.929    -8113320.794 8  -6289833.06423
 91  4 13  0 51 15.0030000  0  4G13G15G 6G 2
  21715353.757   -16170349.565 7 -12297602.29522
  25111381.8514     713551.62945    633578.74161
  21557990.6084  -16494163.92347 -10725345.84863
  22362792.3904   -8093906.28348  -6274704.88464
 91  4 13  0 51 30.0030000  0  4G13G15G 6G 2
  21711495.2334  -16190637.11147 -12313410.70562
  25116489.3744     740394.06345    654494.92661
  21559201.6404  -16487807.95147 -10720393.13563
  22366496.2574   -8074446.48748  -6259541.42064
 91  4 13  0 51 45.0030000  0  4G13G15G 6G 2
  21707659.991   -16210784.120 7 -12329109.59722
  25121623.577      767366.769 5    675512.63221
  21560432.8354  -16481331.10447 -10715346.24563
  22370206.2724   -8054942.36548  -6244343.41364
 91  4 13  0 52  0.0030000  0  4G13G15G 6G 2
  21703855.0384  -16230790.12947 -12344698.62962
  25126773.3124     794470.09145    696632.10361
  21561688.9214  -16474732.73147 -10710204.64663
  22373926.085    -8035393.539 8  -6229110.57623
 91  4 13  0 52 15.0030000  0  3G13G 6G 2
  21700073.0464  -16250656.10247 -12360178.54462
  21562967.4914  -16468013.87847 -10704969.18263
  22377655.9524   -8015800.86948  -6213843.56763
 91  4 13  0 52 30.0030000  0  3G13G 6G 2
  21696319.960   -16270380.194 7 -12375547.89222
  21564268.8274  -16461172.54447 -10699638.27163
  22381391.5154   -7996162.55848  -6198540.99363
 91  4 13  0 52 45.0030000  0  3G13G 6G 2
  21692593.7574  -16289964.10547 -12390808.01762
  21565594.1164  -16454210.22647 -10694213.08863
  22385138.3274   -7976480.32748  -6183204.19263
 91  4 13  0 53  0.0030000  0  3G13G 6G 2
  21688894.1714  -16309406.46847 -12405957.84462
  21566943.6874  -16447125.31247 -10688692.38263
  22388891.7494   -7956752.92048  -6167832.19863
 91  4 13  0 53 15.0030000  0  3G13G 6G 2
  21685221.0074  -16328708.31547 -12420998.17562
  21568312.5854  -16439919.04547 -10683077.11263
  22392654.4604   -7936981.45748  -6152425.87063
 91  4 13  0 53 30.0030000  0  3G13G 6G 2
  21681576.2414  -16347864.86747 -12435925.29362
  21569709.2964  -16432586.53347 -10677363.47463
  22396426.6714   -7917161.25348  -6136981.56464
 91  4 13  0 53 45.0030000  0  3G13G 6G 2
  21677958.2494  -16366881.54247 -12450743.41262
  21571126.6944  -16425133.07947 -10671555.59363
  22400206.5544   -7897297.78748  -6121503.54263
 91  4 13  0 54  0.0030000  0  3G13G 6G 2
  21674363.8514  -16385757.79547 -12465452.11462
  21572568.2334  -16417557.82647 -10665652.80163
  22403994.4764   -7877390.35848  -6105991.27163
 91  4 13  0 54 15.0030000  0  3G13G 6G 2
  21670798.491   -16404489.910 7 -12480048.49422
  21574033.6014  -16409857.13047 -10659652.26663
  22407791.851    -7857435.431 8  -6090441.98823
 91  4 13  0 54 30.0030000  0  3G13G 6G 2
  21667261.6874  -16423078.80947 -12494533.28962
  21575521.9834  -16402031.87647 -10653554.67463
  22411598.3664   -7837434.08648  -6074856.53363
 91  4 13  0 54 45.0030000  0  3G13G 6G 2
  21663751.0774  -16441525.67947 -12508907.40762
  21577035.3124  -16394083.28347 -10647360.96563
  22415412.5854   -7817387.63448  -6059235.92763
 91  4 13  0 55  0.0030000  0  3G13G 6G 2
  21660266.991   -16459836.338 7 -12523175.38222
  21578570.7884  -16386017.11247 -10641075.63763
  22419233.5464   -7797301.86948  -6043584.69163
 91  4 13  0 55 15.0030000  0  3G13G 6G 2
  21656809.7724  -16478005.89147 -12537333.40562
  21580128.5694  -16377828.01447 -10634694.52963
  22423065.7654   -7777171.69348  -6027898.84563
 91  4 13  0 55 30.0030000  0  3G13G 6G 2
  21653378.7724  -16496036.04647 -12551382.81162
  21581710.3664  -16369517.69147 -10628218.95363
  22426902.9294   -7756998.97648  -6012179.85163
 91  4 13  0 55 45.0030000  0  3G13G 6G 2
  21649974.6634  -16513927.06347 -12565323.79562
  21583315.3664  -16361086.57647 -10621649.25663
  22430751.6944   -7736784.24248  -5996428.11064
 91  4 13  0 56  0.0030000  0  3G13G 6G 2
  21646595.2804  -16531680.52047 -12579157.58962
  21584941.2184  -16352536.20547 -10614986.63263
  22434606.7574   -7716529.32948  -5980645.06864
 91  4 13  0 56 15.0030000  0  3G13G 6G 2
  21643243.444   -16549293.158 7 -12592881.65522
  21586591.9994  -16343863.15047 -10608228.41063
  22438467.3744   -7696230.78348  -5964828.02964
 91  4 13  0 56 30.0030000  0  3G13G 6G 2
  21639918.4294  -16566765.81047 -12606496.64362
  21588266.4994  -16335067.82747 -10601374.91363
  22442338.8434   -7675889.10048  -5948977.37564
 91  4 13  0 56 45.0030000  0  3G13G 6G 2
  21636621.1014  -16584098.66747 -12620002.69562
  21589964.4374  -16326150.25947 -10594426.16163
  22446217.9054   -7655504.74448  -5933093.46764
 91  4 13  0 57  0.0030000  0  3G13G 6G 2
  21633349.6164  -16601291.16747 -12633399.38562
  21591681.8824  -16317109.93147 -10587381.74963
  22450107.1794   -7635077.01448  -5917175.76764
 91  4 13  0 57 15.0030000  0  3G13G 6G 2
  21630104.1794  -16618342.06647 -12646685.73262
  21593427.4524  -16307945.82547 -10580240.89163
  22454001.9134   -7614604.98748  -5901223.54564
 91  4 13  0 57 30.0030000  0  3G13G 6G 2
  21626888.2654  -16635249.14447 -12659860.01262
  21595194.5934  -16298655.28147 -10573001.50563
  22457904.1714   -7594086.29648  -5885234.96663
 91  4 13  0 57 45.0030000  0  3G13G 6G 2
  21623696.4294  -16652016.53047 -12672925.44062
  21596985.5694  -16289242.36747 -10565666.77263
  22461816.413    -7573524.955 8  -5869213.15324
 91  4 13  0 58  0.0030000  0  3G13G 6G 2
  21620534.1634  -16668639.49847 -12685878.33962
  21598800.6404  -16279702.44547 -10558233.06663
  22465740.2654   -7552916.54548  -5853154.66563
 91  4 13  0 58 15.0030000  0  3G13G 6G 2
  21617395.8354  -16685122.29847 -12698722.01762
  21600640.0464  -16270039.41247 -10550703.42963
  22469670.140    -7532265.276 8  -5837062.78223
 91  4 13  0 58 30.0030000  0  3G13G 6G 2
  21614286.5694  -16701461.99847 -12711454.17962
  21602502.9764  -16260250.56147 -10543075.75763
  22473608.179    -7511568.209 8  -5820935.21123
 91  4 13  0 58 45.0030000  0  3G13G 6G 2
  21611204.5854  -16717661.11447 -12724076.80562
  21604388.4134  -16250338.08647 -10535351.74963
  22477555.077    -7490827.872 8  -5804773.92423
 91  4 13  0 59  0.0030000  0  3G13G 6G 2
  21608148.8194  -16733718.98947 -12736589.37062
  21606299.2804  -16240301.33847 -10527530.91863
  22481510.265    -7470043.761 8  -5788578.53323
 91  4 13  0 59 15.0030000  0  3G13G 6G 2
  21605118.7574  -16749637.42347 -12748993.28262
  21608232.897   -16230142.009 7 -10519614.56923
  22485474.413    -7449217.612 8  -5772350.37723
 91  4 13  0 59 30.0030000  0  3G13G 6G 2
  21602116.3974  -16765414.73147 -12761287.22862
  21610189.9914  -16219858.28847 -10511601.29463
  22489443.929    -7428347.830 8  -5756088.22023
 91  4 13  0 59 45.0030000  0  3G13G 6G 2
  21599140.6634  -16781048.83347 -12773469.57962
  21612169.827   -16209447.959 7 -10503489.36423
  22493423.710    -7407432.214 8  -5739790.34923
 91  4 13  1  0  0.0030000  0  3G13G 6G 2
  21596192.8354  -16796539.90447 -12785540.48262
  21614175.1874  -16198911.13747 -10495278.86063
  22497413.5464   -7386471.03948  -5723456.97963
 91  4 13  1  0 15.0030000  0  3G13G 6G 2
  21593274.1474  -16811884.99747 -12797497.63562
  21616205.9914  -16188244.75947 -10486967.40663
  22501411.851    -7365461.410 8  -5707085.85023
 91  4 13  1  0 30.0030000  0  3G13G 6G 2
  21590381.1794  -16827086.64047 -12809343.01062
  21618258.4764  -16177451.23147 -10478556.87363
  22505418.647    -7344405.815 8  -5690678.91323
 91  4 13  1  0 45.0030000  0  3G13G 6G 2
  21587514.2264  -16842148.37347 -12821079.36262
  21620336.8664  -16166534.14847 -10470050.06563
  22509434.1164   -7323307.78648  -5674238.89863
